<?xml version="1.0" encoding="UTF-8" standalone="no" ?>
<gpx xmlns="http://www.topografix.com/GPX/1/1" xmlns:xsi="http://www.w3.org/2001/XMLSchema-instance" xsi:schemaLocation="http://www.topografix.com/GPX/1/1 http://www.topografix.com/GPX/1/1/gpx.xsd" version="1.1" creator="VisuGPX - https://www.visugpx.com">
  <metadata>
    <name>Hérès-Préchac - A-R</name>
    <desc><![CDATA[20 févr. 2021 à 08:50:58

]]></desc>
  </metadata>
  <trk>
    <name><![CDATA[20 févr. 2021 à 08:50:58]]></name>
    <cmt><![CDATA[20 févr. 2021 à 08:50:58]]></cmt>
    <trkseg>
      <trkpt lat="43.55315" lon="0.00324">
        <ele>146</ele>
        <time>2021-02-20T07:50:58Z</time>
      </trkpt>
      <trkpt lat="43.55309" lon="0.00319">
        <ele>146</ele>
        <time>2021-02-20T07:51:19Z</time>
      </trkpt>
      <trkpt lat="43.55314" lon="0.00319">
        <ele>147</ele>
        <time>2021-02-20T07:53:23Z</time>
      </trkpt>
      <trkpt lat="43.55321" lon="0.00322">
        <ele>147</ele>
        <time>2021-02-20T07:53:43Z</time>
      </trkpt>
      <trkpt lat="43.55336" lon="0.00313">
        <ele>147</ele>
        <time>2021-02-20T07:53:52Z</time>
      </trkpt>
      <trkpt lat="43.55342" lon="0.00313">
        <ele>147</ele>
        <time>2021-02-20T07:53:56Z</time>
      </trkpt>
      <trkpt lat="43.55358" lon="0.00301">
        <ele>147</ele>
        <time>2021-02-20T07:54:07Z</time>
      </trkpt>
      <trkpt lat="43.55364" lon="0.00298">
        <ele>147</ele>
        <time>2021-02-20T07:54:13Z</time>
      </trkpt>
      <trkpt lat="43.55373" lon="0.00299">
        <ele>146</ele>
        <time>2021-02-20T07:54:21Z</time>
      </trkpt>
      <trkpt lat="43.5538" lon="0.00291">
        <ele>146</ele>
        <time>2021-02-20T07:54:28Z</time>
      </trkpt>
      <trkpt lat="43.55387" lon="0.00287">
        <ele>146</ele>
        <time>2021-02-20T07:54:35Z</time>
      </trkpt>
      <trkpt lat="43.55391" lon="0.00283">
        <ele>146</ele>
        <time>2021-02-20T07:54:39Z</time>
      </trkpt>
      <trkpt lat="43.55395" lon="0.00281">
        <ele>146</ele>
        <time>2021-02-20T07:54:43Z</time>
      </trkpt>
      <trkpt lat="43.55399" lon="0.00282">
        <ele>146</ele>
        <time>2021-02-20T07:54:46Z</time>
      </trkpt>
      <trkpt lat="43.55407" lon="0.00275">
        <ele>146</ele>
        <time>2021-02-20T07:54:54Z</time>
      </trkpt>
      <trkpt lat="43.55444" lon="0.0026">
        <ele>146</ele>
        <time>2021-02-20T07:55:27Z</time>
      </trkpt>
      <trkpt lat="43.55451" lon="0.00259">
        <ele>146</ele>
        <time>2021-02-20T07:55:31Z</time>
      </trkpt>
      <trkpt lat="43.55479" lon="0.00244">
        <ele>146</ele>
        <time>2021-02-20T07:55:53Z</time>
      </trkpt>
      <trkpt lat="43.55483" lon="0.0024">
        <ele>145</ele>
        <time>2021-02-20T07:55:57Z</time>
      </trkpt>
      <trkpt lat="43.5549" lon="0.0024">
        <ele>145</ele>
        <time>2021-02-20T07:56:03Z</time>
      </trkpt>
      <trkpt lat="43.555" lon="0.00229">
        <ele>145</ele>
        <time>2021-02-20T07:56:13Z</time>
      </trkpt>
      <trkpt lat="43.55504" lon="0.00223">
        <ele>145</ele>
        <time>2021-02-20T07:56:35Z</time>
      </trkpt>
      <trkpt lat="43.55508" lon="0.00223">
        <ele>145</ele>
        <time>2021-02-20T07:56:41Z</time>
      </trkpt>
      <trkpt lat="43.55509" lon="0.00217">
        <ele>145</ele>
        <time>2021-02-20T07:56:44Z</time>
      </trkpt>
      <trkpt lat="43.55513" lon="0.00213">
        <ele>145</ele>
        <time>2021-02-20T07:56:51Z</time>
      </trkpt>
      <trkpt lat="43.55523" lon="0.00191">
        <ele>145</ele>
        <time>2021-02-20T07:57:04Z</time>
      </trkpt>
      <trkpt lat="43.55522" lon="0.0017">
        <ele>145</ele>
        <time>2021-02-20T07:57:11Z</time>
      </trkpt>
      <trkpt lat="43.55516" lon="0.00161">
        <ele>145</ele>
        <time>2021-02-20T07:57:17Z</time>
      </trkpt>
      <trkpt lat="43.55512" lon="0.00151">
        <ele>145</ele>
        <time>2021-02-20T07:57:22Z</time>
      </trkpt>
      <trkpt lat="43.55509" lon="0.00132">
        <ele>145</ele>
        <time>2021-02-20T07:57:33Z</time>
      </trkpt>
      <trkpt lat="43.55497" lon="0.00092">
        <ele>146</ele>
        <time>2021-02-20T07:57:57Z</time>
      </trkpt>
      <trkpt lat="43.55496" lon="0.00087">
        <ele>146</ele>
        <time>2021-02-20T07:58:00Z</time>
      </trkpt>
      <trkpt lat="43.55492" lon="0.00078">
        <ele>146</ele>
        <time>2021-02-20T07:58:06Z</time>
      </trkpt>
      <trkpt lat="43.55487" lon="0.00069">
        <ele>146</ele>
        <time>2021-02-20T07:58:12Z</time>
      </trkpt>
      <trkpt lat="43.55481" lon="0.00048">
        <ele>147</ele>
        <time>2021-02-20T07:58:26Z</time>
      </trkpt>
      <trkpt lat="43.55481" lon="0.00041">
        <ele>147</ele>
        <time>2021-02-20T07:58:29Z</time>
      </trkpt>
      <trkpt lat="43.55472" lon="0.00019">
        <ele>147</ele>
        <time>2021-02-20T07:58:43Z</time>
      </trkpt>
      <trkpt lat="43.55469" lon="1.0E-5">
        <ele>147</ele>
        <time>2021-02-20T07:58:54Z</time>
      </trkpt>
      <trkpt lat="43.5547" lon="-0.0001">
        <ele>148</ele>
        <time>2021-02-20T07:59:02Z</time>
      </trkpt>
      <trkpt lat="43.55472" lon="-0.00016">
        <ele>148</ele>
        <time>2021-02-20T07:59:05Z</time>
      </trkpt>
      <trkpt lat="43.55491" lon="-0.00018">
        <ele>148</ele>
        <time>2021-02-20T07:59:20Z</time>
      </trkpt>
      <trkpt lat="43.555" lon="-0.00016">
        <ele>148</ele>
        <time>2021-02-20T07:59:26Z</time>
      </trkpt>
      <trkpt lat="43.55504" lon="-0.00016">
        <ele>148</ele>
        <time>2021-02-20T07:59:29Z</time>
      </trkpt>
      <trkpt lat="43.55517" lon="-0.0002">
        <ele>148</ele>
        <time>2021-02-20T07:59:40Z</time>
      </trkpt>
      <trkpt lat="43.5552" lon="-0.00019">
        <ele>148</ele>
        <time>2021-02-20T07:59:43Z</time>
      </trkpt>
      <trkpt lat="43.55551" lon="-0.0002">
        <ele>147</ele>
        <time>2021-02-20T08:00:07Z</time>
      </trkpt>
      <trkpt lat="43.55555" lon="-0.00018">
        <ele>147</ele>
        <time>2021-02-20T08:00:10Z</time>
      </trkpt>
      <trkpt lat="43.5558" lon="-0.00015">
        <ele>147</ele>
        <time>2021-02-20T08:00:29Z</time>
      </trkpt>
      <trkpt lat="43.55591" lon="-9.0E-5">
        <ele>147</ele>
        <time>2021-02-20T08:00:39Z</time>
      </trkpt>
      <trkpt lat="43.55594" lon="-5.0E-5">
        <ele>147</ele>
        <time>2021-02-20T08:00:43Z</time>
      </trkpt>
      <trkpt lat="43.55597" lon="-3.0E-5">
        <ele>147</ele>
        <time>2021-02-20T08:00:47Z</time>
      </trkpt>
      <trkpt lat="43.556" lon="1.0E-5">
        <ele>147</ele>
        <time>2021-02-20T08:00:50Z</time>
      </trkpt>
      <trkpt lat="43.55604" lon="4.0E-5">
        <ele>147</ele>
        <time>2021-02-20T08:00:53Z</time>
      </trkpt>
      <trkpt lat="43.55616" lon="0.0002">
        <ele>147</ele>
        <time>2021-02-20T08:01:04Z</time>
      </trkpt>
      <trkpt lat="43.5562" lon="0.00024">
        <ele>147</ele>
        <time>2021-02-20T08:01:07Z</time>
      </trkpt>
      <trkpt lat="43.55632" lon="0.00042">
        <ele>147</ele>
        <time>2021-02-20T08:01:20Z</time>
      </trkpt>
      <trkpt lat="43.55635" lon="0.00045">
        <ele>148</ele>
        <time>2021-02-20T08:01:23Z</time>
      </trkpt>
      <trkpt lat="43.55637" lon="0.00051">
        <ele>148</ele>
        <time>2021-02-20T08:01:26Z</time>
      </trkpt>
      <trkpt lat="43.5565" lon="0.00072">
        <ele>148</ele>
        <time>2021-02-20T08:01:41Z</time>
      </trkpt>
      <trkpt lat="43.55653" lon="0.00077">
        <ele>149</ele>
        <time>2021-02-20T08:01:45Z</time>
      </trkpt>
      <trkpt lat="43.55658" lon="0.00081">
        <ele>149</ele>
        <time>2021-02-20T08:01:51Z</time>
      </trkpt>
      <trkpt lat="43.5566" lon="0.00087">
        <ele>149</ele>
        <time>2021-02-20T08:01:55Z</time>
      </trkpt>
      <trkpt lat="43.55666" lon="0.00092">
        <ele>149</ele>
        <time>2021-02-20T08:02:02Z</time>
      </trkpt>
      <trkpt lat="43.55688" lon="0.00128">
        <ele>149</ele>
        <time>2021-02-20T08:02:31Z</time>
      </trkpt>
      <trkpt lat="43.55694" lon="0.00133">
        <ele>149</ele>
        <time>2021-02-20T08:02:37Z</time>
      </trkpt>
      <trkpt lat="43.55699" lon="0.0014">
        <ele>149</ele>
        <time>2021-02-20T08:02:41Z</time>
      </trkpt>
      <trkpt lat="43.557" lon="0.00144">
        <ele>149</ele>
        <time>2021-02-20T08:02:44Z</time>
      </trkpt>
      <trkpt lat="43.55705" lon="0.00149">
        <ele>149</ele>
        <time>2021-02-20T08:02:49Z</time>
      </trkpt>
      <trkpt lat="43.55712" lon="0.00159">
        <ele>149</ele>
        <time>2021-02-20T08:02:59Z</time>
      </trkpt>
      <trkpt lat="43.55728" lon="0.00175">
        <ele>148</ele>
        <time>2021-02-20T08:03:15Z</time>
      </trkpt>
      <trkpt lat="43.5573" lon="0.00179">
        <ele>147</ele>
        <time>2021-02-20T08:03:17Z</time>
      </trkpt>
      <trkpt lat="43.55737" lon="0.00187">
        <ele>147</ele>
        <time>2021-02-20T08:03:25Z</time>
      </trkpt>
      <trkpt lat="43.55741" lon="0.00188">
        <ele>147</ele>
        <time>2021-02-20T08:03:28Z</time>
      </trkpt>
      <trkpt lat="43.55744" lon="0.00187">
        <ele>147</ele>
        <time>2021-02-20T08:03:32Z</time>
      </trkpt>
      <trkpt lat="43.55748" lon="0.00186">
        <ele>146</ele>
        <time>2021-02-20T08:03:41Z</time>
      </trkpt>
      <trkpt lat="43.55754" lon="0.00178">
        <ele>147</ele>
        <time>2021-02-20T08:04:17Z</time>
      </trkpt>
      <trkpt lat="43.55759" lon="0.00163">
        <ele>147</ele>
        <time>2021-02-20T08:04:27Z</time>
      </trkpt>
      <trkpt lat="43.55755" lon="0.00157">
        <ele>147</ele>
        <time>2021-02-20T08:04:37Z</time>
      </trkpt>
      <trkpt lat="43.55761" lon="0.00153">
        <ele>147</ele>
        <time>2021-02-20T08:04:59Z</time>
      </trkpt>
      <trkpt lat="43.55762" lon="0.00148">
        <ele>147</ele>
        <time>2021-02-20T08:05:27Z</time>
      </trkpt>
      <trkpt lat="43.55759" lon="0.00142">
        <ele>147</ele>
        <time>2021-02-20T08:06:09Z</time>
      </trkpt>
      <trkpt lat="43.55763" lon="0.00137">
        <ele>146</ele>
        <time>2021-02-20T08:06:37Z</time>
      </trkpt>
      <trkpt lat="43.55805" lon="0.00127">
        <ele>143</ele>
        <time>2021-02-20T08:07:07Z</time>
      </trkpt>
      <trkpt lat="43.55817" lon="0.00122">
        <ele>143</ele>
        <time>2021-02-20T08:07:14Z</time>
      </trkpt>
      <trkpt lat="43.55823" lon="0.00123">
        <ele>143</ele>
        <time>2021-02-20T08:07:17Z</time>
      </trkpt>
      <trkpt lat="43.55834" lon="0.00117">
        <ele>143</ele>
        <time>2021-02-20T08:07:25Z</time>
      </trkpt>
      <trkpt lat="43.55874" lon="0.00109">
        <ele>142</ele>
        <time>2021-02-20T08:07:59Z</time>
      </trkpt>
      <trkpt lat="43.5588" lon="0.00111">
        <ele>142</ele>
        <time>2021-02-20T08:08:04Z</time>
      </trkpt>
      <trkpt lat="43.55885" lon="0.00115">
        <ele>142</ele>
        <time>2021-02-20T08:08:07Z</time>
      </trkpt>
      <trkpt lat="43.55898" lon="0.00117">
        <ele>142</ele>
        <time>2021-02-20T08:08:18Z</time>
      </trkpt>
      <trkpt lat="43.55909" lon="0.00113">
        <ele>142</ele>
        <time>2021-02-20T08:08:28Z</time>
      </trkpt>
      <trkpt lat="43.55923" lon="0.00117">
        <ele>142</ele>
        <time>2021-02-20T08:08:39Z</time>
      </trkpt>
      <trkpt lat="43.55928" lon="0.00115">
        <ele>142</ele>
        <time>2021-02-20T08:08:44Z</time>
      </trkpt>
      <trkpt lat="43.55941" lon="0.00115">
        <ele>141</ele>
        <time>2021-02-20T08:08:52Z</time>
      </trkpt>
      <trkpt lat="43.55947" lon="0.00112">
        <ele>141</ele>
        <time>2021-02-20T08:08:58Z</time>
      </trkpt>
      <trkpt lat="43.55959" lon="0.00109">
        <ele>141</ele>
        <time>2021-02-20T08:09:12Z</time>
      </trkpt>
      <trkpt lat="43.55965" lon="0.00106">
        <ele>141</ele>
        <time>2021-02-20T08:09:16Z</time>
      </trkpt>
      <trkpt lat="43.55972" lon="0.00109">
        <ele>141</ele>
        <time>2021-02-20T08:09:20Z</time>
      </trkpt>
      <trkpt lat="43.55977" lon="0.00107">
        <ele>141</ele>
        <time>2021-02-20T08:09:23Z</time>
      </trkpt>
      <trkpt lat="43.55983" lon="0.00102">
        <ele>141</ele>
        <time>2021-02-20T08:09:28Z</time>
      </trkpt>
      <trkpt lat="43.55992" lon="0.00097">
        <ele>142</ele>
        <time>2021-02-20T08:09:37Z</time>
      </trkpt>
      <trkpt lat="43.55996" lon="0.00091">
        <ele>142</ele>
        <time>2021-02-20T08:09:41Z</time>
      </trkpt>
      <trkpt lat="43.55999" lon="0.00084">
        <ele>142</ele>
        <time>2021-02-20T08:09:46Z</time>
      </trkpt>
      <trkpt lat="43.56008" lon="0.00078">
        <ele>142</ele>
        <time>2021-02-20T08:09:53Z</time>
      </trkpt>
      <trkpt lat="43.56026" lon="0.00078">
        <ele>142</ele>
        <time>2021-02-20T08:10:06Z</time>
      </trkpt>
      <trkpt lat="43.56033" lon="0.00076">
        <ele>142</ele>
        <time>2021-02-20T08:10:11Z</time>
      </trkpt>
      <trkpt lat="43.56059" lon="0.00059">
        <ele>143</ele>
        <time>2021-02-20T08:10:37Z</time>
      </trkpt>
      <trkpt lat="43.56073" lon="0.00059">
        <ele>143</ele>
        <time>2021-02-20T08:10:48Z</time>
      </trkpt>
      <trkpt lat="43.56088" lon="0.0005">
        <ele>143</ele>
        <time>2021-02-20T08:11:01Z</time>
      </trkpt>
      <trkpt lat="43.56104" lon="0.00049">
        <ele>142</ele>
        <time>2021-02-20T08:11:45Z</time>
      </trkpt>
      <trkpt lat="43.56112" lon="0.00048">
        <ele>142</ele>
        <time>2021-02-20T08:11:52Z</time>
      </trkpt>
      <trkpt lat="43.56118" lon="0.00052">
        <ele>142</ele>
        <time>2021-02-20T08:11:55Z</time>
      </trkpt>
      <trkpt lat="43.56124" lon="0.00052">
        <ele>143</ele>
        <time>2021-02-20T08:12:01Z</time>
      </trkpt>
      <trkpt lat="43.56131" lon="0.0006">
        <ele>143</ele>
        <time>2021-02-20T08:12:08Z</time>
      </trkpt>
      <trkpt lat="43.56139" lon="0.00062">
        <ele>142</ele>
        <time>2021-02-20T08:12:13Z</time>
      </trkpt>
      <trkpt lat="43.56156" lon="0.00052">
        <ele>143</ele>
        <time>2021-02-20T08:12:27Z</time>
      </trkpt>
      <trkpt lat="43.56161" lon="0.00053">
        <ele>143</ele>
        <time>2021-02-20T08:12:31Z</time>
      </trkpt>
      <trkpt lat="43.56168" lon="0.0005">
        <ele>143</ele>
        <time>2021-02-20T08:12:37Z</time>
      </trkpt>
      <trkpt lat="43.56173" lon="0.00054">
        <ele>143</ele>
        <time>2021-02-20T08:12:45Z</time>
      </trkpt>
      <trkpt lat="43.56181" lon="0.00054">
        <ele>142</ele>
        <time>2021-02-20T08:12:52Z</time>
      </trkpt>
      <trkpt lat="43.56186" lon="0.00056">
        <ele>142</ele>
        <time>2021-02-20T08:12:57Z</time>
      </trkpt>
      <trkpt lat="43.56205" lon="0.00063">
        <ele>143</ele>
        <time>2021-02-20T08:13:10Z</time>
      </trkpt>
      <trkpt lat="43.5621" lon="0.00062">
        <ele>143</ele>
        <time>2021-02-20T08:13:14Z</time>
      </trkpt>
      <trkpt lat="43.56216" lon="0.0006">
        <ele>143</ele>
        <time>2021-02-20T08:13:19Z</time>
      </trkpt>
      <trkpt lat="43.56223" lon="0.00061">
        <ele>143</ele>
        <time>2021-02-20T08:13:22Z</time>
      </trkpt>
      <trkpt lat="43.56225" lon="0.00058">
        <ele>143</ele>
        <time>2021-02-20T08:13:24Z</time>
      </trkpt>
      <trkpt lat="43.56234" lon="0.00056">
        <ele>143</ele>
        <time>2021-02-20T08:13:30Z</time>
      </trkpt>
      <trkpt lat="43.56238" lon="0.00056">
        <ele>143</ele>
        <time>2021-02-20T08:13:34Z</time>
      </trkpt>
      <trkpt lat="43.56243" lon="0.00052">
        <ele>143</ele>
        <time>2021-02-20T08:13:37Z</time>
      </trkpt>
      <trkpt lat="43.56245" lon="0.00047">
        <ele>143</ele>
        <time>2021-02-20T08:13:39Z</time>
      </trkpt>
      <trkpt lat="43.56246" lon="0.00042">
        <ele>143</ele>
        <time>2021-02-20T08:13:42Z</time>
      </trkpt>
      <trkpt lat="43.5625" lon="0.00038">
        <ele>143</ele>
        <time>2021-02-20T08:13:45Z</time>
      </trkpt>
      <trkpt lat="43.56254" lon="0.00036">
        <ele>143</ele>
        <time>2021-02-20T08:13:48Z</time>
      </trkpt>
      <trkpt lat="43.56258" lon="0.00036">
        <ele>143</ele>
        <time>2021-02-20T08:13:50Z</time>
      </trkpt>
      <trkpt lat="43.56261" lon="0.00037">
        <ele>143</ele>
        <time>2021-02-20T08:13:54Z</time>
      </trkpt>
      <trkpt lat="43.56266" lon="0.00034">
        <ele>143</ele>
        <time>2021-02-20T08:13:59Z</time>
      </trkpt>
      <trkpt lat="43.56277" lon="0.00029">
        <ele>142</ele>
        <time>2021-02-20T08:14:11Z</time>
      </trkpt>
      <trkpt lat="43.56283" lon="0.00025">
        <ele>141</ele>
        <time>2021-02-20T08:14:16Z</time>
      </trkpt>
      <trkpt lat="43.56291" lon="0.00026">
        <ele>141</ele>
        <time>2021-02-20T08:14:25Z</time>
      </trkpt>
      <trkpt lat="43.56298" lon="0.00023">
        <ele>141</ele>
        <time>2021-02-20T08:14:34Z</time>
      </trkpt>
      <trkpt lat="43.56304" lon="0.00025">
        <ele>141</ele>
        <time>2021-02-20T08:14:43Z</time>
      </trkpt>
      <trkpt lat="43.56311" lon="0.00035">
        <ele>141</ele>
        <time>2021-02-20T08:14:54Z</time>
      </trkpt>
      <trkpt lat="43.56326" lon="0.00039">
        <ele>141</ele>
        <time>2021-02-20T08:15:19Z</time>
      </trkpt>
      <trkpt lat="43.5633" lon="0.00038">
        <ele>141</ele>
        <time>2021-02-20T08:15:22Z</time>
      </trkpt>
      <trkpt lat="43.56338" lon="0.00031">
        <ele>141</ele>
        <time>2021-02-20T08:15:29Z</time>
      </trkpt>
      <trkpt lat="43.56343" lon="0.0003">
        <ele>141</ele>
        <time>2021-02-20T08:15:34Z</time>
      </trkpt>
      <trkpt lat="43.56347" lon="0.00032">
        <ele>141</ele>
        <time>2021-02-20T08:15:36Z</time>
      </trkpt>
      <trkpt lat="43.56356" lon="0.00021">
        <ele>141</ele>
        <time>2021-02-20T08:15:47Z</time>
      </trkpt>
      <trkpt lat="43.56377" lon="0.00011">
        <ele>140</ele>
        <time>2021-02-20T08:16:05Z</time>
      </trkpt>
      <trkpt lat="43.56381" lon="0.00012">
        <ele>140</ele>
        <time>2021-02-20T08:16:07Z</time>
      </trkpt>
      <trkpt lat="43.56385" lon="0.00015">
        <ele>140</ele>
        <time>2021-02-20T08:16:10Z</time>
      </trkpt>
      <trkpt lat="43.56389" lon="0.00015">
        <ele>139</ele>
        <time>2021-02-20T08:16:12Z</time>
      </trkpt>
      <trkpt lat="43.56392" lon="0.00017">
        <ele>139</ele>
        <time>2021-02-20T08:16:21Z</time>
      </trkpt>
      <trkpt lat="43.56402" lon="0.00027">
        <ele>138</ele>
        <time>2021-02-20T08:16:50Z</time>
      </trkpt>
      <trkpt lat="43.56403" lon="0.00033">
        <ele>137</ele>
        <time>2021-02-20T08:16:56Z</time>
      </trkpt>
      <trkpt lat="43.56417" lon="0.00069">
        <ele>137</ele>
        <time>2021-02-20T08:17:16Z</time>
      </trkpt>
      <trkpt lat="43.5642" lon="0.00097">
        <ele>138</ele>
        <time>2021-02-20T08:17:34Z</time>
      </trkpt>
      <trkpt lat="43.56424" lon="0.00106">
        <ele>138</ele>
        <time>2021-02-20T08:17:39Z</time>
      </trkpt>
      <trkpt lat="43.56424" lon="0.00114">
        <ele>138</ele>
        <time>2021-02-20T08:17:44Z</time>
      </trkpt>
      <trkpt lat="43.56429" lon="0.0012">
        <ele>138</ele>
        <time>2021-02-20T08:17:56Z</time>
      </trkpt>
      <trkpt lat="43.5644" lon="0.00137">
        <ele>139</ele>
        <time>2021-02-20T08:18:14Z</time>
      </trkpt>
      <trkpt lat="43.56451" lon="0.0016">
        <ele>139</ele>
        <time>2021-02-20T08:18:29Z</time>
      </trkpt>
      <trkpt lat="43.56455" lon="0.00163">
        <ele>139</ele>
        <time>2021-02-20T08:18:32Z</time>
      </trkpt>
      <trkpt lat="43.56465" lon="0.00181">
        <ele>139</ele>
        <time>2021-02-20T08:18:47Z</time>
      </trkpt>
      <trkpt lat="43.56469" lon="0.00186">
        <ele>139</ele>
        <time>2021-02-20T08:18:52Z</time>
      </trkpt>
      <trkpt lat="43.56473" lon="0.00192">
        <ele>139</ele>
        <time>2021-02-20T08:18:56Z</time>
      </trkpt>
      <trkpt lat="43.5648" lon="0.00216">
        <ele>138</ele>
        <time>2021-02-20T08:19:10Z</time>
      </trkpt>
      <trkpt lat="43.56483" lon="0.00218">
        <ele>138</ele>
        <time>2021-02-20T08:19:14Z</time>
      </trkpt>
      <trkpt lat="43.56485" lon="0.00224">
        <ele>139</ele>
        <time>2021-02-20T08:19:17Z</time>
      </trkpt>
      <trkpt lat="43.56498" lon="0.0024">
        <ele>139</ele>
        <time>2021-02-20T08:19:34Z</time>
      </trkpt>
      <trkpt lat="43.56505" lon="0.00256">
        <ele>139</ele>
        <time>2021-02-20T08:19:45Z</time>
      </trkpt>
      <trkpt lat="43.56533" lon="0.00289">
        <ele>139</ele>
        <time>2021-02-20T08:20:17Z</time>
      </trkpt>
      <trkpt lat="43.56549" lon="0.00297">
        <ele>139</ele>
        <time>2021-02-20T08:20:30Z</time>
      </trkpt>
      <trkpt lat="43.56556" lon="0.00304">
        <ele>140</ele>
        <time>2021-02-20T08:20:37Z</time>
      </trkpt>
      <trkpt lat="43.56562" lon="0.00298">
        <ele>139</ele>
        <time>2021-02-20T08:20:45Z</time>
      </trkpt>
      <trkpt lat="43.56567" lon="0.00301">
        <ele>139</ele>
        <time>2021-02-20T08:20:50Z</time>
      </trkpt>
      <trkpt lat="43.5659" lon="0.00276">
        <ele>139</ele>
        <time>2021-02-20T08:21:15Z</time>
      </trkpt>
      <trkpt lat="43.56603" lon="0.00267">
        <ele>139</ele>
        <time>2021-02-20T08:21:31Z</time>
      </trkpt>
      <trkpt lat="43.56609" lon="0.00265">
        <ele>140</ele>
        <time>2021-02-20T08:21:38Z</time>
      </trkpt>
      <trkpt lat="43.56614" lon="0.0026">
        <ele>140</ele>
        <time>2021-02-20T08:21:44Z</time>
      </trkpt>
      <trkpt lat="43.56631" lon="0.00252">
        <ele>140</ele>
        <time>2021-02-20T08:22:02Z</time>
      </trkpt>
      <trkpt lat="43.56637" lon="0.00252">
        <ele>140</ele>
        <time>2021-02-20T08:22:08Z</time>
      </trkpt>
      <trkpt lat="43.56644" lon="0.00249">
        <ele>140</ele>
        <time>2021-02-20T08:22:17Z</time>
      </trkpt>
      <trkpt lat="43.5665" lon="0.00251">
        <ele>140</ele>
        <time>2021-02-20T08:22:21Z</time>
      </trkpt>
      <trkpt lat="43.56658" lon="0.00248">
        <ele>140</ele>
        <time>2021-02-20T08:22:25Z</time>
      </trkpt>
      <trkpt lat="43.56663" lon="0.00246">
        <ele>140</ele>
        <time>2021-02-20T08:22:29Z</time>
      </trkpt>
      <trkpt lat="43.5667" lon="0.00248">
        <ele>140</ele>
        <time>2021-02-20T08:22:33Z</time>
      </trkpt>
      <trkpt lat="43.56688" lon="0.00245">
        <ele>140</ele>
        <time>2021-02-20T08:23:05Z</time>
      </trkpt>
      <trkpt lat="43.56694" lon="0.00245">
        <ele>139</ele>
        <time>2021-02-20T08:23:13Z</time>
      </trkpt>
      <trkpt lat="43.56699" lon="0.0024">
        <ele>139</ele>
        <time>2021-02-20T08:23:18Z</time>
      </trkpt>
      <trkpt lat="43.56704" lon="0.00236">
        <ele>139</ele>
        <time>2021-02-20T08:23:24Z</time>
      </trkpt>
      <trkpt lat="43.56717" lon="0.00223">
        <ele>139</ele>
        <time>2021-02-20T08:23:38Z</time>
      </trkpt>
      <trkpt lat="43.56722" lon="0.0022">
        <ele>139</ele>
        <time>2021-02-20T08:23:44Z</time>
      </trkpt>
      <trkpt lat="43.56729" lon="0.00219">
        <ele>140</ele>
        <time>2021-02-20T08:24:00Z</time>
      </trkpt>
      <trkpt lat="43.56736" lon="0.00213">
        <ele>140</ele>
        <time>2021-02-20T08:24:06Z</time>
      </trkpt>
      <trkpt lat="43.56751" lon="0.002">
        <ele>140</ele>
        <time>2021-02-20T08:24:21Z</time>
      </trkpt>
      <trkpt lat="43.56756" lon="0.00199">
        <ele>140</ele>
        <time>2021-02-20T08:24:27Z</time>
      </trkpt>
      <trkpt lat="43.56759" lon="0.0019">
        <ele>139</ele>
        <time>2021-02-20T08:25:30Z</time>
      </trkpt>
      <trkpt lat="43.56762" lon="0.00172">
        <ele>139</ele>
        <time>2021-02-20T08:25:50Z</time>
      </trkpt>
      <trkpt lat="43.56767" lon="0.00165">
        <ele>139</ele>
        <time>2021-02-20T08:25:54Z</time>
      </trkpt>
      <trkpt lat="43.56772" lon="0.00162">
        <ele>139</ele>
        <time>2021-02-20T08:25:58Z</time>
      </trkpt>
      <trkpt lat="43.56797" lon="0.00153">
        <ele>139</ele>
        <time>2021-02-20T08:26:19Z</time>
      </trkpt>
      <trkpt lat="43.56801" lon="0.00147">
        <ele>139</ele>
        <time>2021-02-20T08:26:23Z</time>
      </trkpt>
      <trkpt lat="43.56807" lon="0.00144">
        <ele>139</ele>
        <time>2021-02-20T08:26:28Z</time>
      </trkpt>
      <trkpt lat="43.56814" lon="0.00143">
        <ele>139</ele>
        <time>2021-02-20T08:26:32Z</time>
      </trkpt>
      <trkpt lat="43.56819" lon="0.00144">
        <ele>139</ele>
        <time>2021-02-20T08:26:38Z</time>
      </trkpt>
      <trkpt lat="43.56829" lon="0.00138">
        <ele>139</ele>
        <time>2021-02-20T08:26:47Z</time>
      </trkpt>
      <trkpt lat="43.56835" lon="0.00131">
        <ele>139</ele>
        <time>2021-02-20T08:26:53Z</time>
      </trkpt>
      <trkpt lat="43.5684" lon="0.00129">
        <ele>139</ele>
        <time>2021-02-20T08:26:57Z</time>
      </trkpt>
      <trkpt lat="43.56843" lon="0.00122">
        <ele>139</ele>
        <time>2021-02-20T08:27:01Z</time>
      </trkpt>
      <trkpt lat="43.56867" lon="0.00131">
        <ele>139</ele>
        <time>2021-02-20T08:27:20Z</time>
      </trkpt>
      <trkpt lat="43.56872" lon="0.00138">
        <ele>139</ele>
        <time>2021-02-20T08:27:26Z</time>
      </trkpt>
      <trkpt lat="43.56878" lon="0.00138">
        <ele>139</ele>
        <time>2021-02-20T08:27:31Z</time>
      </trkpt>
      <trkpt lat="43.56895" lon="0.00147">
        <ele>139</ele>
        <time>2021-02-20T08:27:47Z</time>
      </trkpt>
      <trkpt lat="43.56899" lon="0.00153">
        <ele>139</ele>
        <time>2021-02-20T08:27:52Z</time>
      </trkpt>
      <trkpt lat="43.56907" lon="0.00153">
        <ele>139</ele>
        <time>2021-02-20T08:28:40Z</time>
      </trkpt>
      <trkpt lat="43.56909" lon="0.00144">
        <ele>139</ele>
        <time>2021-02-20T08:29:20Z</time>
      </trkpt>
      <trkpt lat="43.56914" lon="0.00153">
        <ele>138</ele>
        <time>2021-02-20T08:30:37Z</time>
      </trkpt>
      <trkpt lat="43.56921" lon="0.00156">
        <ele>138</ele>
        <time>2021-02-20T08:30:42Z</time>
      </trkpt>
      <trkpt lat="43.56929" lon="0.00166">
        <ele>138</ele>
        <time>2021-02-20T08:30:52Z</time>
      </trkpt>
      <trkpt lat="43.56935" lon="0.00167">
        <ele>138</ele>
        <time>2021-02-20T08:31:00Z</time>
      </trkpt>
      <trkpt lat="43.56944" lon="0.00177">
        <ele>138</ele>
        <time>2021-02-20T08:31:09Z</time>
      </trkpt>
      <trkpt lat="43.56949" lon="0.00188">
        <ele>139</ele>
        <time>2021-02-20T08:31:23Z</time>
      </trkpt>
      <trkpt lat="43.56956" lon="0.00204">
        <ele>140</ele>
        <time>2021-02-20T08:31:34Z</time>
      </trkpt>
      <trkpt lat="43.56956" lon="0.00212">
        <ele>140</ele>
        <time>2021-02-20T08:31:39Z</time>
      </trkpt>
      <trkpt lat="43.56959" lon="0.00219">
        <ele>140</ele>
        <time>2021-02-20T08:31:44Z</time>
      </trkpt>
      <trkpt lat="43.56968" lon="0.00232">
        <ele>141</ele>
        <time>2021-02-20T08:31:51Z</time>
      </trkpt>
      <trkpt lat="43.56972" lon="0.00238">
        <ele>140</ele>
        <time>2021-02-20T08:31:56Z</time>
      </trkpt>
      <trkpt lat="43.5697" lon="0.00246">
        <ele>140</ele>
        <time>2021-02-20T08:32:01Z</time>
      </trkpt>
      <trkpt lat="43.56967" lon="0.00252">
        <ele>140</ele>
        <time>2021-02-20T08:32:06Z</time>
      </trkpt>
      <trkpt lat="43.56958" lon="0.00254">
        <ele>140</ele>
        <time>2021-02-20T08:32:21Z</time>
      </trkpt>
      <trkpt lat="43.56952" lon="0.00258">
        <ele>140</ele>
        <time>2021-02-20T08:32:33Z</time>
      </trkpt>
      <trkpt lat="43.56949" lon="0.00266">
        <ele>140</ele>
        <time>2021-02-20T08:32:39Z</time>
      </trkpt>
      <trkpt lat="43.56949" lon="0.00276">
        <ele>140</ele>
        <time>2021-02-20T08:32:50Z</time>
      </trkpt>
      <trkpt lat="43.56955" lon="0.00273">
        <ele>140</ele>
        <time>2021-02-20T08:32:55Z</time>
      </trkpt>
      <trkpt lat="43.5696" lon="0.00266">
        <ele>141</ele>
        <time>2021-02-20T08:33:02Z</time>
      </trkpt>
      <trkpt lat="43.56954" lon="0.00264">
        <ele>140</ele>
        <time>2021-02-20T08:33:52Z</time>
      </trkpt>
      <trkpt lat="43.56955" lon="0.00246">
        <ele>138</ele>
        <time>2021-02-20T08:34:52Z</time>
      </trkpt>
      <trkpt lat="43.56966" lon="0.00244">
        <ele>138</ele>
        <time>2021-02-20T08:35:06Z</time>
      </trkpt>
      <trkpt lat="43.56971" lon="0.00242">
        <ele>138</ele>
        <time>2021-02-20T08:35:10Z</time>
      </trkpt>
      <trkpt lat="43.56972" lon="0.00225">
        <ele>138</ele>
        <time>2021-02-20T08:35:22Z</time>
      </trkpt>
      <trkpt lat="43.56969" lon="0.00213">
        <ele>138</ele>
        <time>2021-02-20T08:35:30Z</time>
      </trkpt>
      <trkpt lat="43.56966" lon="0.00206">
        <ele>137</ele>
        <time>2021-02-20T08:35:38Z</time>
      </trkpt>
      <trkpt lat="43.56958" lon="0.00193">
        <ele>134</ele>
        <time>2021-02-20T08:35:56Z</time>
      </trkpt>
      <trkpt lat="43.56943" lon="0.00183">
        <ele>134</ele>
        <time>2021-02-20T08:36:13Z</time>
      </trkpt>
      <trkpt lat="43.56939" lon="0.00178">
        <ele>134</ele>
        <time>2021-02-20T08:36:16Z</time>
      </trkpt>
      <trkpt lat="43.56934" lon="0.00176">
        <ele>134</ele>
        <time>2021-02-20T08:36:19Z</time>
      </trkpt>
      <trkpt lat="43.56919" lon="0.0016">
        <ele>134</ele>
        <time>2021-02-20T08:36:53Z</time>
      </trkpt>
      <trkpt lat="43.56926" lon="0.00166">
        <ele>134</ele>
        <time>2021-02-20T08:37:22Z</time>
      </trkpt>
      <trkpt lat="43.5693" lon="0.00172">
        <ele>134</ele>
        <time>2021-02-20T08:37:37Z</time>
      </trkpt>
      <trkpt lat="43.56934" lon="0.00178">
        <ele>134</ele>
        <time>2021-02-20T08:37:40Z</time>
      </trkpt>
      <trkpt lat="43.56948" lon="0.00188">
        <ele>135</ele>
        <time>2021-02-20T08:37:53Z</time>
      </trkpt>
      <trkpt lat="43.5695" lon="0.00199">
        <ele>136</ele>
        <time>2021-02-20T08:38:06Z</time>
      </trkpt>
      <trkpt lat="43.56956" lon="0.00211">
        <ele>138</ele>
        <time>2021-02-20T08:38:18Z</time>
      </trkpt>
      <trkpt lat="43.5696" lon="0.00225">
        <ele>138</ele>
        <time>2021-02-20T08:38:29Z</time>
      </trkpt>
      <trkpt lat="43.56974" lon="0.0024">
        <ele>139</ele>
        <time>2021-02-20T08:38:38Z</time>
      </trkpt>
      <trkpt lat="43.56976" lon="0.00248">
        <ele>139</ele>
        <time>2021-02-20T08:38:41Z</time>
      </trkpt>
      <trkpt lat="43.56973" lon="0.00256">
        <ele>139</ele>
        <time>2021-02-20T08:38:45Z</time>
      </trkpt>
      <trkpt lat="43.56961" lon="0.00265">
        <ele>139</ele>
        <time>2021-02-20T08:38:59Z</time>
      </trkpt>
      <trkpt lat="43.56957" lon="0.00266">
        <ele>139</ele>
        <time>2021-02-20T08:39:03Z</time>
      </trkpt>
      <trkpt lat="43.56951" lon="0.0027">
        <ele>139</ele>
        <time>2021-02-20T08:39:10Z</time>
      </trkpt>
      <trkpt lat="43.56947" lon="0.00283">
        <ele>140</ele>
        <time>2021-02-20T08:39:24Z</time>
      </trkpt>
      <trkpt lat="43.56948" lon="0.00287">
        <ele>140</ele>
        <time>2021-02-20T08:39:28Z</time>
      </trkpt>
      <trkpt lat="43.56954" lon="0.00288">
        <ele>140</ele>
        <time>2021-02-20T08:39:39Z</time>
      </trkpt>
      <trkpt lat="43.56958" lon="0.00284">
        <ele>140</ele>
        <time>2021-02-20T08:39:45Z</time>
      </trkpt>
      <trkpt lat="43.56959" lon="0.00279">
        <ele>141</ele>
        <time>2021-02-20T08:39:48Z</time>
      </trkpt>
      <trkpt lat="43.56963" lon="0.00275">
        <ele>141</ele>
        <time>2021-02-20T08:39:51Z</time>
      </trkpt>
      <trkpt lat="43.56989" lon="0.00261">
        <ele>144</ele>
        <time>2021-02-20T08:40:21Z</time>
      </trkpt>
      <trkpt lat="43.56996" lon="0.00255">
        <ele>144</ele>
        <time>2021-02-20T08:40:35Z</time>
      </trkpt>
      <trkpt lat="43.57001" lon="0.0025">
        <ele>144</ele>
        <time>2021-02-20T08:40:38Z</time>
      </trkpt>
      <trkpt lat="43.57007" lon="0.00244">
        <ele>143</ele>
        <time>2021-02-20T08:40:48Z</time>
      </trkpt>
      <trkpt lat="43.5701" lon="0.0024">
        <ele>142</ele>
        <time>2021-02-20T08:40:52Z</time>
      </trkpt>
      <trkpt lat="43.57019" lon="0.00237">
        <ele>141</ele>
        <time>2021-02-20T08:41:00Z</time>
      </trkpt>
      <trkpt lat="43.57022" lon="0.00233">
        <ele>141</ele>
        <time>2021-02-20T08:41:02Z</time>
      </trkpt>
      <trkpt lat="43.57028" lon="0.00232">
        <ele>140</ele>
        <time>2021-02-20T08:41:07Z</time>
      </trkpt>
      <trkpt lat="43.57031" lon="0.00232">
        <ele>140</ele>
        <time>2021-02-20T08:41:15Z</time>
      </trkpt>
      <trkpt lat="43.57038" lon="0.00245">
        <ele>139</ele>
        <time>2021-02-20T08:41:24Z</time>
      </trkpt>
      <trkpt lat="43.57042" lon="0.00252">
        <ele>140</ele>
        <time>2021-02-20T08:41:51Z</time>
      </trkpt>
      <trkpt lat="43.57058" lon="0.00258">
        <ele>141</ele>
        <time>2021-02-20T08:42:08Z</time>
      </trkpt>
      <trkpt lat="43.57073" lon="0.00268">
        <ele>141</ele>
        <time>2021-02-20T08:42:21Z</time>
      </trkpt>
      <trkpt lat="43.57085" lon="0.00279">
        <ele>141</ele>
        <time>2021-02-20T08:42:30Z</time>
      </trkpt>
      <trkpt lat="43.57091" lon="0.00297">
        <ele>141</ele>
        <time>2021-02-20T08:42:41Z</time>
      </trkpt>
      <trkpt lat="43.57093" lon="0.00301">
        <ele>141</ele>
        <time>2021-02-20T08:42:44Z</time>
      </trkpt>
      <trkpt lat="43.57106" lon="0.00326">
        <ele>141</ele>
        <time>2021-02-20T08:43:04Z</time>
      </trkpt>
      <trkpt lat="43.57109" lon="0.00337">
        <ele>141</ele>
        <time>2021-02-20T08:43:11Z</time>
      </trkpt>
      <trkpt lat="43.57112" lon="0.00344">
        <ele>141</ele>
        <time>2021-02-20T08:43:35Z</time>
      </trkpt>
      <trkpt lat="43.57112" lon="0.00351">
        <ele>141</ele>
        <time>2021-02-20T08:44:20Z</time>
      </trkpt>
      <trkpt lat="43.5712" lon="0.00358">
        <ele>140</ele>
        <time>2021-02-20T08:44:46Z</time>
      </trkpt>
      <trkpt lat="43.57124" lon="0.00364">
        <ele>140</ele>
        <time>2021-02-20T08:44:58Z</time>
      </trkpt>
      <trkpt lat="43.57129" lon="0.00368">
        <ele>140</ele>
        <time>2021-02-20T08:45:02Z</time>
      </trkpt>
      <trkpt lat="43.57135" lon="0.00368">
        <ele>140</ele>
        <time>2021-02-20T08:45:06Z</time>
      </trkpt>
      <trkpt lat="43.57151" lon="0.00383">
        <ele>140</ele>
        <time>2021-02-20T08:45:46Z</time>
      </trkpt>
      <trkpt lat="43.57161" lon="0.00384">
        <ele>140</ele>
        <time>2021-02-20T08:45:57Z</time>
      </trkpt>
      <trkpt lat="43.57166" lon="0.00381">
        <ele>140</ele>
        <time>2021-02-20T08:46:02Z</time>
      </trkpt>
      <trkpt lat="43.57172" lon="0.00382">
        <ele>140</ele>
        <time>2021-02-20T08:46:07Z</time>
      </trkpt>
      <trkpt lat="43.57177" lon="0.00384">
        <ele>140</ele>
        <time>2021-02-20T08:46:12Z</time>
      </trkpt>
      <trkpt lat="43.57183" lon="0.00389">
        <ele>140</ele>
        <time>2021-02-20T08:46:16Z</time>
      </trkpt>
      <trkpt lat="43.57188" lon="0.0039">
        <ele>140</ele>
        <time>2021-02-20T08:46:22Z</time>
      </trkpt>
      <trkpt lat="43.57196" lon="0.00394">
        <ele>140</ele>
        <time>2021-02-20T08:46:26Z</time>
      </trkpt>
      <trkpt lat="43.57202" lon="0.00395">
        <ele>140</ele>
        <time>2021-02-20T08:46:31Z</time>
      </trkpt>
      <trkpt lat="43.57208" lon="0.00394">
        <ele>140</ele>
        <time>2021-02-20T08:46:36Z</time>
      </trkpt>
      <trkpt lat="43.57235" lon="0.00379">
        <ele>140</ele>
        <time>2021-02-20T08:46:57Z</time>
      </trkpt>
      <trkpt lat="43.57255" lon="0.00361">
        <ele>140</ele>
        <time>2021-02-20T08:47:13Z</time>
      </trkpt>
      <trkpt lat="43.57268" lon="0.00359">
        <ele>140</ele>
        <time>2021-02-20T08:47:22Z</time>
      </trkpt>
      <trkpt lat="43.57277" lon="0.00357">
        <ele>140</ele>
        <time>2021-02-20T08:47:35Z</time>
      </trkpt>
      <trkpt lat="43.5728" lon="0.00358">
        <ele>140</ele>
        <time>2021-02-20T08:47:39Z</time>
      </trkpt>
      <trkpt lat="43.57283" lon="0.0035">
        <ele>140</ele>
        <time>2021-02-20T08:47:44Z</time>
      </trkpt>
      <trkpt lat="43.57287" lon="0.00348">
        <ele>140</ele>
        <time>2021-02-20T08:47:47Z</time>
      </trkpt>
      <trkpt lat="43.57298" lon="0.00337">
        <ele>140</ele>
        <time>2021-02-20T08:47:55Z</time>
      </trkpt>
      <trkpt lat="43.57301" lon="0.00336">
        <ele>140</ele>
        <time>2021-02-20T08:47:59Z</time>
      </trkpt>
      <trkpt lat="43.57304" lon="0.00332">
        <ele>140</ele>
        <time>2021-02-20T08:48:02Z</time>
      </trkpt>
      <trkpt lat="43.57307" lon="0.00327">
        <ele>140</ele>
        <time>2021-02-20T08:48:05Z</time>
      </trkpt>
      <trkpt lat="43.57311" lon="0.00323">
        <ele>140</ele>
        <time>2021-02-20T08:48:08Z</time>
      </trkpt>
      <trkpt lat="43.57335" lon="0.00313">
        <ele>139</ele>
        <time>2021-02-20T08:48:33Z</time>
      </trkpt>
      <trkpt lat="43.57341" lon="0.00302">
        <ele>139</ele>
        <time>2021-02-20T08:48:39Z</time>
      </trkpt>
      <trkpt lat="43.57342" lon="0.00297">
        <ele>139</ele>
        <time>2021-02-20T08:48:43Z</time>
      </trkpt>
      <trkpt lat="43.57344" lon="0.00292">
        <ele>139</ele>
        <time>2021-02-20T08:48:46Z</time>
      </trkpt>
      <trkpt lat="43.57351" lon="0.0024">
        <ele>138</ele>
        <time>2021-02-20T08:49:16Z</time>
      </trkpt>
      <trkpt lat="43.57353" lon="0.00221">
        <ele>138</ele>
        <time>2021-02-20T08:49:24Z</time>
      </trkpt>
      <trkpt lat="43.5735" lon="0.00212">
        <ele>138</ele>
        <time>2021-02-20T08:49:32Z</time>
      </trkpt>
      <trkpt lat="43.5735" lon="0.00205">
        <ele>138</ele>
        <time>2021-02-20T08:49:35Z</time>
      </trkpt>
      <trkpt lat="43.57346" lon="0.00187">
        <ele>138</ele>
        <time>2021-02-20T08:49:47Z</time>
      </trkpt>
      <trkpt lat="43.57346" lon="0.00181">
        <ele>138</ele>
        <time>2021-02-20T08:49:50Z</time>
      </trkpt>
      <trkpt lat="43.57362" lon="0.0014">
        <ele>138</ele>
        <time>2021-02-20T08:50:18Z</time>
      </trkpt>
      <trkpt lat="43.57362" lon="0.00135">
        <ele>139</ele>
        <time>2021-02-20T08:50:21Z</time>
      </trkpt>
      <trkpt lat="43.57367" lon="0.00112">
        <ele>138</ele>
        <time>2021-02-20T08:50:36Z</time>
      </trkpt>
      <trkpt lat="43.57371" lon="0.00102">
        <ele>138</ele>
        <time>2021-02-20T08:50:42Z</time>
      </trkpt>
      <trkpt lat="43.57372" lon="0.00095">
        <ele>138</ele>
        <time>2021-02-20T08:51:07Z</time>
      </trkpt>
      <trkpt lat="43.57378" lon="0.00088">
        <ele>138</ele>
        <time>2021-02-20T08:51:44Z</time>
      </trkpt>
      <trkpt lat="43.57379" lon="0.00079">
        <ele>138</ele>
        <time>2021-02-20T08:51:50Z</time>
      </trkpt>
      <trkpt lat="43.57384" lon="0.00071">
        <ele>138</ele>
        <time>2021-02-20T08:51:57Z</time>
      </trkpt>
      <trkpt lat="43.57391" lon="0.00058">
        <ele>138</ele>
        <time>2021-02-20T08:52:06Z</time>
      </trkpt>
      <trkpt lat="43.57397" lon="0.00055">
        <ele>138</ele>
        <time>2021-02-20T08:52:15Z</time>
      </trkpt>
      <trkpt lat="43.5741" lon="0.00039">
        <ele>138</ele>
        <time>2021-02-20T08:52:34Z</time>
      </trkpt>
      <trkpt lat="43.57416" lon="0.00032">
        <ele>138</ele>
        <time>2021-02-20T08:52:43Z</time>
      </trkpt>
      <trkpt lat="43.57422" lon="0.00034">
        <ele>138</ele>
        <time>2021-02-20T08:52:47Z</time>
      </trkpt>
      <trkpt lat="43.57426" lon="0.0003">
        <ele>138</ele>
        <time>2021-02-20T08:52:53Z</time>
      </trkpt>
      <trkpt lat="43.57433" lon="0.00025">
        <ele>138</ele>
        <time>2021-02-20T08:53:01Z</time>
      </trkpt>
      <trkpt lat="43.57445" lon="0.0002">
        <ele>139</ele>
        <time>2021-02-20T08:53:10Z</time>
      </trkpt>
      <trkpt lat="43.57458" lon="0.00018">
        <ele>139</ele>
        <time>2021-02-20T08:53:21Z</time>
      </trkpt>
      <trkpt lat="43.57465" lon="0.00011">
        <ele>139</ele>
        <time>2021-02-20T08:53:43Z</time>
      </trkpt>
      <trkpt lat="43.57472" lon="8.0E-5">
        <ele>139</ele>
        <time>2021-02-20T08:53:48Z</time>
      </trkpt>
      <trkpt lat="43.57484" lon="9.0E-5">
        <ele>138</ele>
        <time>2021-02-20T08:53:56Z</time>
      </trkpt>
      <trkpt lat="43.57495" lon="0.00017">
        <ele>138</ele>
        <time>2021-02-20T08:54:03Z</time>
      </trkpt>
      <trkpt lat="43.57502" lon="0.00018">
        <ele>138</ele>
        <time>2021-02-20T08:54:07Z</time>
      </trkpt>
      <trkpt lat="43.57513" lon="0.00018">
        <ele>138</ele>
        <time>2021-02-20T08:54:14Z</time>
      </trkpt>
      <trkpt lat="43.57527" lon="0.0002">
        <ele>138</ele>
        <time>2021-02-20T08:54:25Z</time>
      </trkpt>
      <trkpt lat="43.57533" lon="0.00018">
        <ele>138</ele>
        <time>2021-02-20T08:54:30Z</time>
      </trkpt>
      <trkpt lat="43.57547" lon="0.00025">
        <ele>138</ele>
        <time>2021-02-20T08:54:43Z</time>
      </trkpt>
      <trkpt lat="43.57553" lon="0.00023">
        <ele>138</ele>
        <time>2021-02-20T08:54:48Z</time>
      </trkpt>
      <trkpt lat="43.57575" lon="0.00033">
        <ele>138</ele>
        <time>2021-02-20T08:55:04Z</time>
      </trkpt>
      <trkpt lat="43.57585" lon="0.00032">
        <ele>138</ele>
        <time>2021-02-20T08:55:11Z</time>
      </trkpt>
      <trkpt lat="43.57591" lon="0.00027">
        <ele>138</ele>
        <time>2021-02-20T08:55:18Z</time>
      </trkpt>
      <trkpt lat="43.57604" lon="0.00028">
        <ele>138</ele>
        <time>2021-02-20T08:55:29Z</time>
      </trkpt>
      <trkpt lat="43.5761" lon="0.00032">
        <ele>138</ele>
        <time>2021-02-20T08:55:34Z</time>
      </trkpt>
      <trkpt lat="43.57615" lon="0.00032">
        <ele>139</ele>
        <time>2021-02-20T08:55:40Z</time>
      </trkpt>
      <trkpt lat="43.57622" lon="0.00029">
        <ele>139</ele>
        <time>2021-02-20T08:55:44Z</time>
      </trkpt>
      <trkpt lat="43.57628" lon="0.00029">
        <ele>139</ele>
        <time>2021-02-20T08:55:49Z</time>
      </trkpt>
      <trkpt lat="43.57632" lon="0.00034">
        <ele>139</ele>
        <time>2021-02-20T08:55:52Z</time>
      </trkpt>
      <trkpt lat="43.57638" lon="0.00032">
        <ele>139</ele>
        <time>2021-02-20T08:55:58Z</time>
      </trkpt>
      <trkpt lat="43.57646" lon="0.00032">
        <ele>139</ele>
        <time>2021-02-20T08:56:05Z</time>
      </trkpt>
      <trkpt lat="43.57668" lon="0.00043">
        <ele>139</ele>
        <time>2021-02-20T08:56:25Z</time>
      </trkpt>
      <trkpt lat="43.57673" lon="0.00048">
        <ele>139</ele>
        <time>2021-02-20T08:56:29Z</time>
      </trkpt>
      <trkpt lat="43.57678" lon="0.00045">
        <ele>139</ele>
        <time>2021-02-20T08:56:34Z</time>
      </trkpt>
      <trkpt lat="43.5769" lon="0.00043">
        <ele>139</ele>
        <time>2021-02-20T08:56:42Z</time>
      </trkpt>
      <trkpt lat="43.57697" lon="0.00044">
        <ele>139</ele>
        <time>2021-02-20T08:56:47Z</time>
      </trkpt>
      <trkpt lat="43.57701" lon="0.00047">
        <ele>139</ele>
        <time>2021-02-20T08:56:51Z</time>
      </trkpt>
      <trkpt lat="43.57707" lon="0.00044">
        <ele>138</ele>
        <time>2021-02-20T08:56:55Z</time>
      </trkpt>
      <trkpt lat="43.57725" lon="0.00046">
        <ele>139</ele>
        <time>2021-02-20T08:57:05Z</time>
      </trkpt>
      <trkpt lat="43.57736" lon="0.00052">
        <ele>139</ele>
        <time>2021-02-20T08:57:12Z</time>
      </trkpt>
      <trkpt lat="43.57741" lon="0.00052">
        <ele>138</ele>
        <time>2021-02-20T08:57:16Z</time>
      </trkpt>
      <trkpt lat="43.57745" lon="0.00055">
        <ele>138</ele>
        <time>2021-02-20T08:57:19Z</time>
      </trkpt>
      <trkpt lat="43.5776" lon="0.00059">
        <ele>138</ele>
        <time>2021-02-20T08:57:29Z</time>
      </trkpt>
      <trkpt lat="43.57764" lon="0.00059">
        <ele>138</ele>
        <time>2021-02-20T08:57:31Z</time>
      </trkpt>
      <trkpt lat="43.57772" lon="0.00063">
        <ele>139</ele>
        <time>2021-02-20T08:57:37Z</time>
      </trkpt>
      <trkpt lat="43.57776" lon="0.00063">
        <ele>139</ele>
        <time>2021-02-20T08:57:41Z</time>
      </trkpt>
      <trkpt lat="43.57794" lon="0.00063">
        <ele>138</ele>
        <time>2021-02-20T08:57:54Z</time>
      </trkpt>
      <trkpt lat="43.5782" lon="0.00079">
        <ele>138</ele>
        <time>2021-02-20T08:58:17Z</time>
      </trkpt>
      <trkpt lat="43.57823" lon="0.00084">
        <ele>138</ele>
        <time>2021-02-20T08:58:20Z</time>
      </trkpt>
      <trkpt lat="43.57831" lon="0.00084">
        <ele>138</ele>
        <time>2021-02-20T08:58:29Z</time>
      </trkpt>
      <trkpt lat="43.57838" lon="0.00081">
        <ele>138</ele>
        <time>2021-02-20T08:58:35Z</time>
      </trkpt>
      <trkpt lat="43.5785" lon="0.00079">
        <ele>138</ele>
        <time>2021-02-20T08:58:45Z</time>
      </trkpt>
      <trkpt lat="43.57866" lon="0.00081">
        <ele>139</ele>
        <time>2021-02-20T08:58:59Z</time>
      </trkpt>
      <trkpt lat="43.57878" lon="0.0008">
        <ele>139</ele>
        <time>2021-02-20T08:59:13Z</time>
      </trkpt>
      <trkpt lat="43.57897" lon="0.00092">
        <ele>139</ele>
        <time>2021-02-20T08:59:30Z</time>
      </trkpt>
      <trkpt lat="43.57901" lon="0.00094">
        <ele>139</ele>
        <time>2021-02-20T08:59:33Z</time>
      </trkpt>
      <trkpt lat="43.57905" lon="0.00093">
        <ele>140</ele>
        <time>2021-02-20T08:59:37Z</time>
      </trkpt>
      <trkpt lat="43.57911" lon="0.00093">
        <ele>140</ele>
        <time>2021-02-20T08:59:44Z</time>
      </trkpt>
      <trkpt lat="43.57944" lon="0.00081">
        <ele>142</ele>
        <time>2021-02-20T09:00:11Z</time>
      </trkpt>
      <trkpt lat="43.57952" lon="0.00074">
        <ele>142</ele>
        <time>2021-02-20T09:00:18Z</time>
      </trkpt>
      <trkpt lat="43.57957" lon="0.00074">
        <ele>142</ele>
        <time>2021-02-20T09:00:21Z</time>
      </trkpt>
      <trkpt lat="43.57964" lon="0.00067">
        <ele>142</ele>
        <time>2021-02-20T09:00:28Z</time>
      </trkpt>
      <trkpt lat="43.57977" lon="0.00062">
        <ele>142</ele>
        <time>2021-02-20T09:00:38Z</time>
      </trkpt>
      <trkpt lat="43.57981" lon="0.00058">
        <ele>142</ele>
        <time>2021-02-20T09:00:42Z</time>
      </trkpt>
      <trkpt lat="43.57989" lon="0.00055">
        <ele>142</ele>
        <time>2021-02-20T09:00:50Z</time>
      </trkpt>
      <trkpt lat="43.57993" lon="0.00052">
        <ele>142</ele>
        <time>2021-02-20T09:00:54Z</time>
      </trkpt>
      <trkpt lat="43.57999" lon="0.00049">
        <ele>142</ele>
        <time>2021-02-20T09:01:00Z</time>
      </trkpt>
      <trkpt lat="43.58002" lon="0.00044">
        <ele>142</ele>
        <time>2021-02-20T09:01:03Z</time>
      </trkpt>
      <trkpt lat="43.58005" lon="0.00042">
        <ele>142</ele>
        <time>2021-02-20T09:01:06Z</time>
      </trkpt>
      <trkpt lat="43.58009" lon="0.00039">
        <ele>142</ele>
        <time>2021-02-20T09:01:10Z</time>
      </trkpt>
      <trkpt lat="43.58013" lon="0.00037">
        <ele>141</ele>
        <time>2021-02-20T09:01:14Z</time>
      </trkpt>
      <trkpt lat="43.58017" lon="0.00033">
        <ele>141</ele>
        <time>2021-02-20T09:01:18Z</time>
      </trkpt>
      <trkpt lat="43.5802" lon="0.00031">
        <ele>141</ele>
        <time>2021-02-20T09:01:22Z</time>
      </trkpt>
      <trkpt lat="43.58024" lon="0.00026">
        <ele>141</ele>
        <time>2021-02-20T09:01:25Z</time>
      </trkpt>
      <trkpt lat="43.58029" lon="0.00025">
        <ele>140</ele>
        <time>2021-02-20T09:01:30Z</time>
      </trkpt>
      <trkpt lat="43.58032" lon="0.00021">
        <ele>139</ele>
        <time>2021-02-20T09:01:34Z</time>
      </trkpt>
      <trkpt lat="43.58037" lon="0.00022">
        <ele>138</ele>
        <time>2021-02-20T09:02:47Z</time>
      </trkpt>
      <trkpt lat="43.58043" lon="0.00034">
        <ele>138</ele>
        <time>2021-02-20T09:03:08Z</time>
      </trkpt>
      <trkpt lat="43.58049" lon="0.00042">
        <ele>138</ele>
        <time>2021-02-20T09:03:26Z</time>
      </trkpt>
      <trkpt lat="43.58049" lon="0.00031">
        <ele>137</ele>
        <time>2021-02-20T09:03:45Z</time>
      </trkpt>
      <trkpt lat="43.58055" lon="0.00024">
        <ele>138</ele>
        <time>2021-02-20T09:03:57Z</time>
      </trkpt>
      <trkpt lat="43.58059" lon="0.00023">
        <ele>137</ele>
        <time>2021-02-20T09:04:01Z</time>
      </trkpt>
      <trkpt lat="43.58069" lon="0.00016">
        <ele>138</ele>
        <time>2021-02-20T09:04:07Z</time>
      </trkpt>
      <trkpt lat="43.58073" lon="0.00014">
        <ele>138</ele>
        <time>2021-02-20T09:04:11Z</time>
      </trkpt>
      <trkpt lat="43.5808" lon="6.0E-5">
        <ele>138</ele>
        <time>2021-02-20T09:04:18Z</time>
      </trkpt>
      <trkpt lat="43.58097" lon="3.0E-5">
        <ele>138</ele>
        <time>2021-02-20T09:04:32Z</time>
      </trkpt>
      <trkpt lat="43.58101" lon="4.0E-5">
        <ele>138</ele>
        <time>2021-02-20T09:04:35Z</time>
      </trkpt>
      <trkpt lat="43.58105" lon="2.0E-5">
        <ele>138</ele>
        <time>2021-02-20T09:04:39Z</time>
      </trkpt>
      <trkpt lat="43.58118" lon="-0.00022">
        <ele>138</ele>
        <time>2021-02-20T09:04:58Z</time>
      </trkpt>
      <trkpt lat="43.58124" lon="-0.0002">
        <ele>138</ele>
        <time>2021-02-20T09:05:16Z</time>
      </trkpt>
      <trkpt lat="43.58134" lon="-0.00022">
        <ele>138</ele>
        <time>2021-02-20T09:05:27Z</time>
      </trkpt>
      <trkpt lat="43.58149" lon="-0.0003">
        <ele>138</ele>
        <time>2021-02-20T09:05:37Z</time>
      </trkpt>
      <trkpt lat="43.58153" lon="-0.0003">
        <ele>138</ele>
        <time>2021-02-20T09:05:40Z</time>
      </trkpt>
      <trkpt lat="43.58157" lon="-0.00032">
        <ele>138</ele>
        <time>2021-02-20T09:05:44Z</time>
      </trkpt>
      <trkpt lat="43.58163" lon="-0.0004">
        <ele>138</ele>
        <time>2021-02-20T09:05:50Z</time>
      </trkpt>
      <trkpt lat="43.58203" lon="-0.00067">
        <ele>138</ele>
        <time>2021-02-20T09:06:25Z</time>
      </trkpt>
      <trkpt lat="43.5821" lon="-0.00067">
        <ele>138</ele>
        <time>2021-02-20T09:06:34Z</time>
      </trkpt>
      <trkpt lat="43.58217" lon="-0.00065">
        <ele>139</ele>
        <time>2021-02-20T09:06:42Z</time>
      </trkpt>
      <trkpt lat="43.58221" lon="-0.0006">
        <ele>139</ele>
        <time>2021-02-20T09:07:43Z</time>
      </trkpt>
      <trkpt lat="43.58229" lon="-0.00045">
        <ele>138</ele>
        <time>2021-02-20T09:07:58Z</time>
      </trkpt>
      <trkpt lat="43.58229" lon="-0.00036">
        <ele>138</ele>
        <time>2021-02-20T09:08:02Z</time>
      </trkpt>
      <trkpt lat="43.58228" lon="-0.00031">
        <ele>138</ele>
        <time>2021-02-20T09:08:04Z</time>
      </trkpt>
      <trkpt lat="43.58236" lon="-0.00022">
        <ele>138</ele>
        <time>2021-02-20T09:08:16Z</time>
      </trkpt>
      <trkpt lat="43.58242" lon="-0.00025">
        <ele>138</ele>
        <time>2021-02-20T09:08:23Z</time>
      </trkpt>
      <trkpt lat="43.58251" lon="-0.00025">
        <ele>138</ele>
        <time>2021-02-20T09:08:29Z</time>
      </trkpt>
      <trkpt lat="43.58261" lon="-0.00031">
        <ele>138</ele>
        <time>2021-02-20T09:08:37Z</time>
      </trkpt>
      <trkpt lat="43.58277" lon="-0.0005">
        <ele>138</ele>
        <time>2021-02-20T09:08:51Z</time>
      </trkpt>
      <trkpt lat="43.58282" lon="-0.00052">
        <ele>138</ele>
        <time>2021-02-20T09:08:55Z</time>
      </trkpt>
      <trkpt lat="43.58285" lon="-0.00055">
        <ele>138</ele>
        <time>2021-02-20T09:08:58Z</time>
      </trkpt>
      <trkpt lat="43.5829" lon="-0.00058">
        <ele>138</ele>
        <time>2021-02-20T09:09:01Z</time>
      </trkpt>
      <trkpt lat="43.58298" lon="-0.00059">
        <ele>138</ele>
        <time>2021-02-20T09:09:07Z</time>
      </trkpt>
      <trkpt lat="43.58302" lon="-0.00057">
        <ele>138</ele>
        <time>2021-02-20T09:09:10Z</time>
      </trkpt>
      <trkpt lat="43.58307" lon="-0.00058">
        <ele>138</ele>
        <time>2021-02-20T09:09:14Z</time>
      </trkpt>
      <trkpt lat="43.58311" lon="-0.0006">
        <ele>137</ele>
        <time>2021-02-20T09:09:22Z</time>
      </trkpt>
      <trkpt lat="43.58312" lon="-0.00057">
        <ele>138</ele>
        <time>2021-02-20T09:10:18Z</time>
      </trkpt>
      <trkpt lat="43.58321" lon="-0.0005">
        <ele>138</ele>
        <time>2021-02-20T09:10:44Z</time>
      </trkpt>
      <trkpt lat="43.58358" lon="-0.00033">
        <ele>138</ele>
        <time>2021-02-20T09:11:15Z</time>
      </trkpt>
      <trkpt lat="43.5837" lon="-0.00026">
        <ele>138</ele>
        <time>2021-02-20T09:11:28Z</time>
      </trkpt>
      <trkpt lat="43.58386" lon="-8.0E-5">
        <ele>138</ele>
        <time>2021-02-20T09:11:44Z</time>
      </trkpt>
      <trkpt lat="43.58391" lon="-4.0E-5">
        <ele>138</ele>
        <time>2021-02-20T09:11:49Z</time>
      </trkpt>
      <trkpt lat="43.58409" lon="7.0E-5">
        <ele>138</ele>
        <time>2021-02-20T09:12:02Z</time>
      </trkpt>
      <trkpt lat="43.58418" lon="7.0E-5">
        <ele>138</ele>
        <time>2021-02-20T09:12:07Z</time>
      </trkpt>
      <trkpt lat="43.58426" lon="0.0001">
        <ele>138</ele>
        <time>2021-02-20T09:12:12Z</time>
      </trkpt>
      <trkpt lat="43.58457" lon="0.00019">
        <ele>138</ele>
        <time>2021-02-20T09:12:31Z</time>
      </trkpt>
      <trkpt lat="43.58461" lon="0.00024">
        <ele>138</ele>
        <time>2021-02-20T09:12:34Z</time>
      </trkpt>
      <trkpt lat="43.58479" lon="0.00033">
        <ele>138</ele>
        <time>2021-02-20T09:12:46Z</time>
      </trkpt>
      <trkpt lat="43.58482" lon="0.00037">
        <ele>138</ele>
        <time>2021-02-20T09:12:48Z</time>
      </trkpt>
      <trkpt lat="43.58485" lon="0.00037">
        <ele>138</ele>
        <time>2021-02-20T09:12:51Z</time>
      </trkpt>
      <trkpt lat="43.58491" lon="0.00039">
        <ele>138</ele>
        <time>2021-02-20T09:12:57Z</time>
      </trkpt>
      <trkpt lat="43.58494" lon="0.00042">
        <ele>138</ele>
        <time>2021-02-20T09:13:00Z</time>
      </trkpt>
      <trkpt lat="43.58504" lon="0.00051">
        <ele>138</ele>
        <time>2021-02-20T09:13:09Z</time>
      </trkpt>
      <trkpt lat="43.58508" lon="0.00055">
        <ele>138</ele>
        <time>2021-02-20T09:13:12Z</time>
      </trkpt>
      <trkpt lat="43.58521" lon="0.00059">
        <ele>138</ele>
        <time>2021-02-20T09:13:21Z</time>
      </trkpt>
      <trkpt lat="43.58529" lon="0.00065">
        <ele>138</ele>
        <time>2021-02-20T09:13:29Z</time>
      </trkpt>
      <trkpt lat="43.58537" lon="0.00066">
        <ele>138</ele>
        <time>2021-02-20T09:13:35Z</time>
      </trkpt>
      <trkpt lat="43.58551" lon="0.00061">
        <ele>137</ele>
        <time>2021-02-20T09:13:46Z</time>
      </trkpt>
      <trkpt lat="43.58554" lon="0.00058">
        <ele>138</ele>
        <time>2021-02-20T09:13:50Z</time>
      </trkpt>
      <trkpt lat="43.58555" lon="0.00052">
        <ele>138</ele>
        <time>2021-02-20T09:13:55Z</time>
      </trkpt>
      <trkpt lat="43.58562" lon="0.00039">
        <ele>138</ele>
        <time>2021-02-20T09:14:06Z</time>
      </trkpt>
      <trkpt lat="43.58567" lon="0.00037">
        <ele>138</ele>
        <time>2021-02-20T09:14:09Z</time>
      </trkpt>
      <trkpt lat="43.5857" lon="0.00036">
        <ele>137</ele>
        <time>2021-02-20T09:14:11Z</time>
      </trkpt>
      <trkpt lat="43.58593" lon="0.00062">
        <ele>137</ele>
        <time>2021-02-20T09:14:39Z</time>
      </trkpt>
      <trkpt lat="43.58596" lon="0.00067">
        <ele>137</ele>
        <time>2021-02-20T09:14:42Z</time>
      </trkpt>
      <trkpt lat="43.586" lon="0.0007">
        <ele>137</ele>
        <time>2021-02-20T09:14:45Z</time>
      </trkpt>
      <trkpt lat="43.58604" lon="0.00074">
        <ele>137</ele>
        <time>2021-02-20T09:14:49Z</time>
      </trkpt>
      <trkpt lat="43.58609" lon="0.00076">
        <ele>137</ele>
        <time>2021-02-20T09:14:52Z</time>
      </trkpt>
      <trkpt lat="43.58634" lon="0.0008">
        <ele>135</ele>
        <time>2021-02-20T09:15:11Z</time>
      </trkpt>
      <trkpt lat="43.58638" lon="0.00082">
        <ele>135</ele>
        <time>2021-02-20T09:15:14Z</time>
      </trkpt>
      <trkpt lat="43.58643" lon="0.00085">
        <ele>135</ele>
        <time>2021-02-20T09:15:17Z</time>
      </trkpt>
      <trkpt lat="43.58646" lon="0.00086">
        <ele>135</ele>
        <time>2021-02-20T09:15:20Z</time>
      </trkpt>
      <trkpt lat="43.5865" lon="0.00088">
        <ele>135</ele>
        <time>2021-02-20T09:15:23Z</time>
      </trkpt>
      <trkpt lat="43.58658" lon="0.0009">
        <ele>135</ele>
        <time>2021-02-20T09:15:29Z</time>
      </trkpt>
      <trkpt lat="43.58662" lon="0.00092">
        <ele>135</ele>
        <time>2021-02-20T09:15:33Z</time>
      </trkpt>
      <trkpt lat="43.58666" lon="0.00093">
        <ele>135</ele>
        <time>2021-02-20T09:15:36Z</time>
      </trkpt>
      <trkpt lat="43.58704" lon="0.00094">
        <ele>135</ele>
        <time>2021-02-20T09:16:08Z</time>
      </trkpt>
      <trkpt lat="43.58719" lon="0.00095">
        <ele>135</ele>
        <time>2021-02-20T09:16:22Z</time>
      </trkpt>
      <trkpt lat="43.58725" lon="0.00093">
        <ele>136</ele>
        <time>2021-02-20T09:16:28Z</time>
      </trkpt>
      <trkpt lat="43.58733" lon="0.00094">
        <ele>136</ele>
        <time>2021-02-20T09:16:34Z</time>
      </trkpt>
      <trkpt lat="43.58741" lon="0.00092">
        <ele>136</ele>
        <time>2021-02-20T09:16:40Z</time>
      </trkpt>
      <trkpt lat="43.58753" lon="0.00095">
        <ele>137</ele>
        <time>2021-02-20T09:16:49Z</time>
      </trkpt>
      <trkpt lat="43.58773" lon="0.00094">
        <ele>137</ele>
        <time>2021-02-20T09:17:05Z</time>
      </trkpt>
      <trkpt lat="43.58789" lon="0.001">
        <ele>136</ele>
        <time>2021-02-20T09:17:19Z</time>
      </trkpt>
      <trkpt lat="43.58794" lon="0.00099">
        <ele>137</ele>
        <time>2021-02-20T09:17:23Z</time>
      </trkpt>
      <trkpt lat="43.58812" lon="0.00105">
        <ele>137</ele>
        <time>2021-02-20T09:17:37Z</time>
      </trkpt>
      <trkpt lat="43.58818" lon="0.00113">
        <ele>137</ele>
        <time>2021-02-20T09:17:48Z</time>
      </trkpt>
      <trkpt lat="43.58817" lon="0.00129">
        <ele>137</ele>
        <time>2021-02-20T09:17:59Z</time>
      </trkpt>
      <trkpt lat="43.58821" lon="0.00136">
        <ele>137</ele>
        <time>2021-02-20T09:18:06Z</time>
      </trkpt>
      <trkpt lat="43.58823" lon="0.00143">
        <ele>137</ele>
        <time>2021-02-20T09:18:13Z</time>
      </trkpt>
      <trkpt lat="43.58826" lon="0.00146">
        <ele>137</ele>
        <time>2021-02-20T09:18:15Z</time>
      </trkpt>
      <trkpt lat="43.58835" lon="0.0017">
        <ele>137</ele>
        <time>2021-02-20T09:18:32Z</time>
      </trkpt>
      <trkpt lat="43.58835" lon="0.00175">
        <ele>137</ele>
        <time>2021-02-20T09:18:35Z</time>
      </trkpt>
      <trkpt lat="43.58837" lon="0.0018">
        <ele>137</ele>
        <time>2021-02-20T09:18:38Z</time>
      </trkpt>
      <trkpt lat="43.5884" lon="0.00186">
        <ele>137</ele>
        <time>2021-02-20T09:18:41Z</time>
      </trkpt>
      <trkpt lat="43.58842" lon="0.00197">
        <ele>137</ele>
        <time>2021-02-20T09:18:49Z</time>
      </trkpt>
      <trkpt lat="43.58845" lon="0.00202">
        <ele>137</ele>
        <time>2021-02-20T09:18:53Z</time>
      </trkpt>
      <trkpt lat="43.58847" lon="0.00221">
        <ele>137</ele>
        <time>2021-02-20T09:19:03Z</time>
      </trkpt>
      <trkpt lat="43.58852" lon="0.00221">
        <ele>136</ele>
        <time>2021-02-20T09:19:07Z</time>
      </trkpt>
      <trkpt lat="43.58855" lon="0.00225">
        <ele>136</ele>
        <time>2021-02-20T09:19:10Z</time>
      </trkpt>
      <trkpt lat="43.58865" lon="0.00219">
        <ele>136</ele>
        <time>2021-02-20T09:19:19Z</time>
      </trkpt>
      <trkpt lat="43.58878" lon="0.00203">
        <ele>136</ele>
        <time>2021-02-20T09:19:34Z</time>
      </trkpt>
      <trkpt lat="43.58882" lon="0.00202">
        <ele>136</ele>
        <time>2021-02-20T09:19:37Z</time>
      </trkpt>
      <trkpt lat="43.58893" lon="0.00192">
        <ele>136</ele>
        <time>2021-02-20T09:19:48Z</time>
      </trkpt>
      <trkpt lat="43.58903" lon="0.0018">
        <ele>136</ele>
        <time>2021-02-20T09:19:56Z</time>
      </trkpt>
      <trkpt lat="43.5891" lon="0.00175">
        <ele>136</ele>
        <time>2021-02-20T09:20:02Z</time>
      </trkpt>
      <trkpt lat="43.58917" lon="0.00168">
        <ele>136</ele>
        <time>2021-02-20T09:20:08Z</time>
      </trkpt>
      <trkpt lat="43.58921" lon="0.00166">
        <ele>136</ele>
        <time>2021-02-20T09:20:11Z</time>
      </trkpt>
      <trkpt lat="43.58933" lon="0.00154">
        <ele>136</ele>
        <time>2021-02-20T09:20:22Z</time>
      </trkpt>
      <trkpt lat="43.58937" lon="0.00151">
        <ele>137</ele>
        <time>2021-02-20T09:20:26Z</time>
      </trkpt>
      <trkpt lat="43.58947" lon="0.00138">
        <ele>136</ele>
        <time>2021-02-20T09:20:35Z</time>
      </trkpt>
      <trkpt lat="43.58951" lon="0.00136">
        <ele>136</ele>
        <time>2021-02-20T09:20:38Z</time>
      </trkpt>
      <trkpt lat="43.58958" lon="0.00128">
        <ele>137</ele>
        <time>2021-02-20T09:20:45Z</time>
      </trkpt>
      <trkpt lat="43.5896" lon="0.00122">
        <ele>137</ele>
        <time>2021-02-20T09:20:49Z</time>
      </trkpt>
      <trkpt lat="43.58966" lon="0.00119">
        <ele>136</ele>
        <time>2021-02-20T09:20:57Z</time>
      </trkpt>
      <trkpt lat="43.58973" lon="0.00112">
        <ele>137</ele>
        <time>2021-02-20T09:21:04Z</time>
      </trkpt>
      <trkpt lat="43.58978" lon="0.00108">
        <ele>137</ele>
        <time>2021-02-20T09:21:08Z</time>
      </trkpt>
      <trkpt lat="43.58984" lon="0.001">
        <ele>137</ele>
        <time>2021-02-20T09:21:15Z</time>
      </trkpt>
      <trkpt lat="43.58989" lon="0.00098">
        <ele>137</ele>
        <time>2021-02-20T09:21:18Z</time>
      </trkpt>
      <trkpt lat="43.58993" lon="0.00093">
        <ele>137</ele>
        <time>2021-02-20T09:21:23Z</time>
      </trkpt>
      <trkpt lat="43.58997" lon="0.00089">
        <ele>137</ele>
        <time>2021-02-20T09:21:27Z</time>
      </trkpt>
      <trkpt lat="43.59" lon="0.00085">
        <ele>137</ele>
        <time>2021-02-20T09:21:30Z</time>
      </trkpt>
      <trkpt lat="43.5901" lon="0.00072">
        <ele>137</ele>
        <time>2021-02-20T09:21:41Z</time>
      </trkpt>
      <trkpt lat="43.59013" lon="0.00066">
        <ele>137</ele>
        <time>2021-02-20T09:21:44Z</time>
      </trkpt>
      <trkpt lat="43.59016" lon="0.00066">
        <ele>137</ele>
        <time>2021-02-20T09:21:48Z</time>
      </trkpt>
      <trkpt lat="43.5902" lon="0.00062">
        <ele>137</ele>
        <time>2021-02-20T09:21:53Z</time>
      </trkpt>
      <trkpt lat="43.59021" lon="0.0005">
        <ele>137</ele>
        <time>2021-02-20T09:22:26Z</time>
      </trkpt>
      <trkpt lat="43.59022" lon="0.00043">
        <ele>137</ele>
        <time>2021-02-20T09:22:29Z</time>
      </trkpt>
      <trkpt lat="43.5902" lon="0.00032">
        <ele>136</ele>
        <time>2021-02-20T09:22:37Z</time>
      </trkpt>
      <trkpt lat="43.5902" lon="0.00026">
        <ele>136</ele>
        <time>2021-02-20T09:22:40Z</time>
      </trkpt>
      <trkpt lat="43.59019" lon="0.00019">
        <ele>136</ele>
        <time>2021-02-20T09:22:45Z</time>
      </trkpt>
      <trkpt lat="43.59019" lon="0.00013">
        <ele>136</ele>
        <time>2021-02-20T09:22:48Z</time>
      </trkpt>
      <trkpt lat="43.59017" lon="4.0E-5">
        <ele>137</ele>
        <time>2021-02-20T09:22:56Z</time>
      </trkpt>
      <trkpt lat="43.59019" lon="-1.0E-5">
        <ele>136</ele>
        <time>2021-02-20T09:22:59Z</time>
      </trkpt>
      <trkpt lat="43.59022" lon="-5.0E-5">
        <ele>136</ele>
        <time>2021-02-20T09:23:02Z</time>
      </trkpt>
      <trkpt lat="43.59024" lon="-0.00024">
        <ele>137</ele>
        <time>2021-02-20T09:23:11Z</time>
      </trkpt>
      <trkpt lat="43.5903" lon="-0.00034">
        <ele>137</ele>
        <time>2021-02-20T09:23:18Z</time>
      </trkpt>
      <trkpt lat="43.59029" lon="-0.00046">
        <ele>137</ele>
        <time>2021-02-20T09:23:27Z</time>
      </trkpt>
      <trkpt lat="43.59035" lon="-0.00067">
        <ele>137</ele>
        <time>2021-02-20T09:23:40Z</time>
      </trkpt>
      <trkpt lat="43.59048" lon="-0.0009">
        <ele>137</ele>
        <time>2021-02-20T09:23:59Z</time>
      </trkpt>
      <trkpt lat="43.59051" lon="-0.00102">
        <ele>137</ele>
        <time>2021-02-20T09:24:03Z</time>
      </trkpt>
      <trkpt lat="43.59056" lon="-0.00109">
        <ele>137</ele>
        <time>2021-02-20T09:24:07Z</time>
      </trkpt>
      <trkpt lat="43.59066" lon="-0.00113">
        <ele>137</ele>
        <time>2021-02-20T09:24:15Z</time>
      </trkpt>
      <trkpt lat="43.5907" lon="-0.00117">
        <ele>137</ele>
        <time>2021-02-20T09:24:19Z</time>
      </trkpt>
      <trkpt lat="43.59088" lon="-0.00131">
        <ele>136</ele>
        <time>2021-02-20T09:24:31Z</time>
      </trkpt>
      <trkpt lat="43.59092" lon="-0.0013">
        <ele>136</ele>
        <time>2021-02-20T09:24:35Z</time>
      </trkpt>
      <trkpt lat="43.59095" lon="-0.00126">
        <ele>136</ele>
        <time>2021-02-20T09:24:38Z</time>
      </trkpt>
      <trkpt lat="43.59108" lon="-0.00139">
        <ele>136</ele>
        <time>2021-02-20T09:24:53Z</time>
      </trkpt>
      <trkpt lat="43.59112" lon="-0.00148">
        <ele>135</ele>
        <time>2021-02-20T09:24:59Z</time>
      </trkpt>
      <trkpt lat="43.59116" lon="-0.0016">
        <ele>135</ele>
        <time>2021-02-20T09:25:04Z</time>
      </trkpt>
      <trkpt lat="43.59116" lon="-0.00166">
        <ele>135</ele>
        <time>2021-02-20T09:25:07Z</time>
      </trkpt>
      <trkpt lat="43.59117" lon="-0.00171">
        <ele>135</ele>
        <time>2021-02-20T09:25:09Z</time>
      </trkpt>
      <trkpt lat="43.59116" lon="-0.0018">
        <ele>135</ele>
        <time>2021-02-20T09:25:16Z</time>
      </trkpt>
      <trkpt lat="43.59113" lon="-0.00204">
        <ele>136</ele>
        <time>2021-02-20T09:25:30Z</time>
      </trkpt>
      <trkpt lat="43.59111" lon="-0.00209">
        <ele>136</ele>
        <time>2021-02-20T09:25:32Z</time>
      </trkpt>
      <trkpt lat="43.59109" lon="-0.00213">
        <ele>136</ele>
        <time>2021-02-20T09:25:35Z</time>
      </trkpt>
      <trkpt lat="43.59106" lon="-0.00217">
        <ele>136</ele>
        <time>2021-02-20T09:25:44Z</time>
      </trkpt>
      <trkpt lat="43.59115" lon="-0.0026">
        <ele>136</ele>
        <time>2021-02-20T09:26:24Z</time>
      </trkpt>
      <trkpt lat="43.59119" lon="-0.00277">
        <ele>136</ele>
        <time>2021-02-20T09:26:32Z</time>
      </trkpt>
      <trkpt lat="43.59121" lon="-0.00281">
        <ele>136</ele>
        <time>2021-02-20T09:26:35Z</time>
      </trkpt>
      <trkpt lat="43.59123" lon="-0.0029">
        <ele>136</ele>
        <time>2021-02-20T09:26:42Z</time>
      </trkpt>
      <trkpt lat="43.59127" lon="-0.00298">
        <ele>136</ele>
        <time>2021-02-20T09:26:45Z</time>
      </trkpt>
      <trkpt lat="43.59127" lon="-0.00306">
        <ele>136</ele>
        <time>2021-02-20T09:26:50Z</time>
      </trkpt>
      <trkpt lat="43.59128" lon="-0.00313">
        <ele>136</ele>
        <time>2021-02-20T09:26:56Z</time>
      </trkpt>
      <trkpt lat="43.59136" lon="-0.00324">
        <ele>135</ele>
        <time>2021-02-20T09:27:09Z</time>
      </trkpt>
      <trkpt lat="43.59145" lon="-0.00337">
        <ele>135</ele>
        <time>2021-02-20T09:27:16Z</time>
      </trkpt>
      <trkpt lat="43.59149" lon="-0.00345">
        <ele>135</ele>
        <time>2021-02-20T09:27:21Z</time>
      </trkpt>
      <trkpt lat="43.59153" lon="-0.0036">
        <ele>135</ele>
        <time>2021-02-20T09:27:31Z</time>
      </trkpt>
      <trkpt lat="43.59157" lon="-0.00367">
        <ele>135</ele>
        <time>2021-02-20T09:27:33Z</time>
      </trkpt>
      <trkpt lat="43.59159" lon="-0.00377">
        <ele>135</ele>
        <time>2021-02-20T09:27:41Z</time>
      </trkpt>
      <trkpt lat="43.59161" lon="-0.00383">
        <ele>135</ele>
        <time>2021-02-20T09:27:46Z</time>
      </trkpt>
      <trkpt lat="43.59167" lon="-0.00386">
        <ele>135</ele>
        <time>2021-02-20T09:27:51Z</time>
      </trkpt>
      <trkpt lat="43.59168" lon="-0.0039">
        <ele>135</ele>
        <time>2021-02-20T09:27:58Z</time>
      </trkpt>
      <trkpt lat="43.59167" lon="-0.00398">
        <ele>135</ele>
        <time>2021-02-20T09:28:23Z</time>
      </trkpt>
      <trkpt lat="43.59164" lon="-0.00406">
        <ele>135</ele>
        <time>2021-02-20T09:28:39Z</time>
      </trkpt>
      <trkpt lat="43.5916" lon="-0.00418">
        <ele>135</ele>
        <time>2021-02-20T09:28:48Z</time>
      </trkpt>
      <trkpt lat="43.59161" lon="-0.00423">
        <ele>135</ele>
        <time>2021-02-20T09:28:51Z</time>
      </trkpt>
      <trkpt lat="43.59161" lon="-0.00437">
        <ele>135</ele>
        <time>2021-02-20T09:28:59Z</time>
      </trkpt>
      <trkpt lat="43.59163" lon="-0.00443">
        <ele>135</ele>
        <time>2021-02-20T09:29:02Z</time>
      </trkpt>
      <trkpt lat="43.59163" lon="-0.00448">
        <ele>135</ele>
        <time>2021-02-20T09:29:04Z</time>
      </trkpt>
      <trkpt lat="43.59166" lon="-0.00452">
        <ele>135</ele>
        <time>2021-02-20T09:29:08Z</time>
      </trkpt>
      <trkpt lat="43.59172" lon="-0.00462">
        <ele>135</ele>
        <time>2021-02-20T09:29:17Z</time>
      </trkpt>
      <trkpt lat="43.59181" lon="-0.00484">
        <ele>135</ele>
        <time>2021-02-20T09:29:25Z</time>
      </trkpt>
      <trkpt lat="43.59184" lon="-0.00487">
        <ele>135</ele>
        <time>2021-02-20T09:29:27Z</time>
      </trkpt>
      <trkpt lat="43.59189" lon="-0.0049">
        <ele>135</ele>
        <time>2021-02-20T09:29:30Z</time>
      </trkpt>
      <trkpt lat="43.59198" lon="-0.00491">
        <ele>135</ele>
        <time>2021-02-20T09:29:37Z</time>
      </trkpt>
      <trkpt lat="43.59202" lon="-0.00489">
        <ele>135</ele>
        <time>2021-02-20T09:29:39Z</time>
      </trkpt>
      <trkpt lat="43.59208" lon="-0.00495">
        <ele>135</ele>
        <time>2021-02-20T09:29:45Z</time>
      </trkpt>
      <trkpt lat="43.59212" lon="-0.00501">
        <ele>135</ele>
        <time>2021-02-20T09:29:48Z</time>
      </trkpt>
      <trkpt lat="43.59214" lon="-0.00505">
        <ele>135</ele>
        <time>2021-02-20T09:29:52Z</time>
      </trkpt>
      <trkpt lat="43.59218" lon="-0.00508">
        <ele>135</ele>
        <time>2021-02-20T09:29:55Z</time>
      </trkpt>
      <trkpt lat="43.59227" lon="-0.00511">
        <ele>135</ele>
        <time>2021-02-20T09:30:01Z</time>
      </trkpt>
      <trkpt lat="43.5923" lon="-0.00514">
        <ele>135</ele>
        <time>2021-02-20T09:30:04Z</time>
      </trkpt>
      <trkpt lat="43.59232" lon="-0.00519">
        <ele>135</ele>
        <time>2021-02-20T09:30:08Z</time>
      </trkpt>
      <trkpt lat="43.59237" lon="-0.00522">
        <ele>135</ele>
        <time>2021-02-20T09:30:14Z</time>
      </trkpt>
      <trkpt lat="43.59249" lon="-0.00529">
        <ele>134</ele>
        <time>2021-02-20T09:30:23Z</time>
      </trkpt>
      <trkpt lat="43.5926" lon="-0.00537">
        <ele>135</ele>
        <time>2021-02-20T09:30:36Z</time>
      </trkpt>
      <trkpt lat="43.59264" lon="-0.00539">
        <ele>135</ele>
        <time>2021-02-20T09:30:41Z</time>
      </trkpt>
      <trkpt lat="43.59277" lon="-0.00543">
        <ele>134</ele>
        <time>2021-02-20T09:30:50Z</time>
      </trkpt>
      <trkpt lat="43.5928" lon="-0.00543">
        <ele>134</ele>
        <time>2021-02-20T09:30:52Z</time>
      </trkpt>
      <trkpt lat="43.59293" lon="-0.00548">
        <ele>134</ele>
        <time>2021-02-20T09:31:02Z</time>
      </trkpt>
      <trkpt lat="43.59297" lon="-0.00552">
        <ele>134</ele>
        <time>2021-02-20T09:31:06Z</time>
      </trkpt>
      <trkpt lat="43.59298" lon="-0.00558">
        <ele>134</ele>
        <time>2021-02-20T09:31:09Z</time>
      </trkpt>
      <trkpt lat="43.59303" lon="-0.00563">
        <ele>134</ele>
        <time>2021-02-20T09:31:15Z</time>
      </trkpt>
      <trkpt lat="43.59309" lon="-0.00564">
        <ele>134</ele>
        <time>2021-02-20T09:31:20Z</time>
      </trkpt>
      <trkpt lat="43.59314" lon="-0.00559">
        <ele>134</ele>
        <time>2021-02-20T09:31:25Z</time>
      </trkpt>
      <trkpt lat="43.59318" lon="-0.00563">
        <ele>134</ele>
        <time>2021-02-20T09:31:28Z</time>
      </trkpt>
      <trkpt lat="43.59326" lon="-0.00572">
        <ele>134</ele>
        <time>2021-02-20T09:31:35Z</time>
      </trkpt>
      <trkpt lat="43.5933" lon="-0.00574">
        <ele>134</ele>
        <time>2021-02-20T09:31:38Z</time>
      </trkpt>
      <trkpt lat="43.59333" lon="-0.00577">
        <ele>134</ele>
        <time>2021-02-20T09:31:41Z</time>
      </trkpt>
      <trkpt lat="43.59342" lon="-0.00579">
        <ele>134</ele>
        <time>2021-02-20T09:31:47Z</time>
      </trkpt>
      <trkpt lat="43.59348" lon="-0.00576">
        <ele>134</ele>
        <time>2021-02-20T09:31:53Z</time>
      </trkpt>
      <trkpt lat="43.59355" lon="-0.00579">
        <ele>134</ele>
        <time>2021-02-20T09:32:00Z</time>
      </trkpt>
      <trkpt lat="43.59358" lon="-0.00581">
        <ele>133</ele>
        <time>2021-02-20T09:32:03Z</time>
      </trkpt>
      <trkpt lat="43.59374" lon="-0.00584">
        <ele>134</ele>
        <time>2021-02-20T09:32:14Z</time>
      </trkpt>
      <trkpt lat="43.5938" lon="-0.0058">
        <ele>134</ele>
        <time>2021-02-20T09:32:19Z</time>
      </trkpt>
      <trkpt lat="43.59384" lon="-0.00579">
        <ele>134</ele>
        <time>2021-02-20T09:32:25Z</time>
      </trkpt>
      <trkpt lat="43.59388" lon="-0.00576">
        <ele>134</ele>
        <time>2021-02-20T09:32:28Z</time>
      </trkpt>
      <trkpt lat="43.59394" lon="-0.00574">
        <ele>134</ele>
        <time>2021-02-20T09:32:34Z</time>
      </trkpt>
      <trkpt lat="43.59398" lon="-0.00568">
        <ele>133</ele>
        <time>2021-02-20T09:32:37Z</time>
      </trkpt>
      <trkpt lat="43.59402" lon="-0.00563">
        <ele>133</ele>
        <time>2021-02-20T09:32:39Z</time>
      </trkpt>
      <trkpt lat="43.59404" lon="-0.0056">
        <ele>133</ele>
        <time>2021-02-20T09:32:42Z</time>
      </trkpt>
      <trkpt lat="43.59406" lon="-0.00554">
        <ele>134</ele>
        <time>2021-02-20T09:32:46Z</time>
      </trkpt>
      <trkpt lat="43.59408" lon="-0.0055">
        <ele>135</ele>
        <time>2021-02-20T09:32:54Z</time>
      </trkpt>
      <trkpt lat="43.59412" lon="-0.00548">
        <ele>135</ele>
        <time>2021-02-20T09:32:58Z</time>
      </trkpt>
      <trkpt lat="43.59424" lon="-0.00541">
        <ele>134</ele>
        <time>2021-02-20T09:33:07Z</time>
      </trkpt>
      <trkpt lat="43.59427" lon="-0.00539">
        <ele>134</ele>
        <time>2021-02-20T09:33:10Z</time>
      </trkpt>
      <trkpt lat="43.59433" lon="-0.00537">
        <ele>134</ele>
        <time>2021-02-20T09:33:16Z</time>
      </trkpt>
      <trkpt lat="43.59437" lon="-0.00534">
        <ele>134</ele>
        <time>2021-02-20T09:33:19Z</time>
      </trkpt>
      <trkpt lat="43.59443" lon="-0.00525">
        <ele>134</ele>
        <time>2021-02-20T09:33:30Z</time>
      </trkpt>
      <trkpt lat="43.59445" lon="-0.00519">
        <ele>134</ele>
        <time>2021-02-20T09:33:34Z</time>
      </trkpt>
      <trkpt lat="43.59447" lon="-0.00516">
        <ele>134</ele>
        <time>2021-02-20T09:33:37Z</time>
      </trkpt>
      <trkpt lat="43.59452" lon="-0.00506">
        <ele>134</ele>
        <time>2021-02-20T09:33:43Z</time>
      </trkpt>
      <trkpt lat="43.59458" lon="-0.00497">
        <ele>134</ele>
        <time>2021-02-20T09:33:51Z</time>
      </trkpt>
      <trkpt lat="43.59464" lon="-0.00481">
        <ele>134</ele>
        <time>2021-02-20T09:34:03Z</time>
      </trkpt>
      <trkpt lat="43.59471" lon="-0.00472">
        <ele>134</ele>
        <time>2021-02-20T09:34:09Z</time>
      </trkpt>
      <trkpt lat="43.59476" lon="-0.00455">
        <ele>134</ele>
        <time>2021-02-20T09:34:18Z</time>
      </trkpt>
      <trkpt lat="43.59478" lon="-0.00445">
        <ele>134</ele>
        <time>2021-02-20T09:34:24Z</time>
      </trkpt>
      <trkpt lat="43.5948" lon="-0.00437">
        <ele>134</ele>
        <time>2021-02-20T09:34:30Z</time>
      </trkpt>
      <trkpt lat="43.59488" lon="-0.00424">
        <ele>134</ele>
        <time>2021-02-20T09:34:40Z</time>
      </trkpt>
      <trkpt lat="43.59492" lon="-0.00412">
        <ele>134</ele>
        <time>2021-02-20T09:34:46Z</time>
      </trkpt>
      <trkpt lat="43.59495" lon="-0.00408">
        <ele>133</ele>
        <time>2021-02-20T09:34:49Z</time>
      </trkpt>
      <trkpt lat="43.59497" lon="-0.00404">
        <ele>134</ele>
        <time>2021-02-20T09:34:52Z</time>
      </trkpt>
      <trkpt lat="43.59499" lon="-0.00399">
        <ele>134</ele>
        <time>2021-02-20T09:34:55Z</time>
      </trkpt>
      <trkpt lat="43.59501" lon="-0.00395">
        <ele>134</ele>
        <time>2021-02-20T09:34:58Z</time>
      </trkpt>
      <trkpt lat="43.59502" lon="-0.0039">
        <ele>134</ele>
        <time>2021-02-20T09:35:01Z</time>
      </trkpt>
      <trkpt lat="43.59505" lon="-0.00384">
        <ele>134</ele>
        <time>2021-02-20T09:35:08Z</time>
      </trkpt>
      <trkpt lat="43.59513" lon="-0.00382">
        <ele>134</ele>
        <time>2021-02-20T09:35:15Z</time>
      </trkpt>
      <trkpt lat="43.59518" lon="-0.0038">
        <ele>134</ele>
        <time>2021-02-20T09:35:47Z</time>
      </trkpt>
      <trkpt lat="43.59523" lon="-0.00387">
        <ele>134</ele>
        <time>2021-02-20T09:35:56Z</time>
      </trkpt>
      <trkpt lat="43.59528" lon="-0.00394">
        <ele>134</ele>
        <time>2021-02-20T09:36:02Z</time>
      </trkpt>
      <trkpt lat="43.59535" lon="-0.00399">
        <ele>134</ele>
        <time>2021-02-20T09:36:10Z</time>
      </trkpt>
      <trkpt lat="43.59543" lon="-0.00401">
        <ele>134</ele>
        <time>2021-02-20T09:36:18Z</time>
      </trkpt>
      <trkpt lat="43.59557" lon="-0.00411">
        <ele>134</ele>
        <time>2021-02-20T09:36:26Z</time>
      </trkpt>
      <trkpt lat="43.59566" lon="-0.00408">
        <ele>134</ele>
        <time>2021-02-20T09:36:33Z</time>
      </trkpt>
      <trkpt lat="43.59575" lon="-0.00396">
        <ele>134</ele>
        <time>2021-02-20T09:36:41Z</time>
      </trkpt>
      <trkpt lat="43.59579" lon="-0.00395">
        <ele>134</ele>
        <time>2021-02-20T09:36:43Z</time>
      </trkpt>
      <trkpt lat="43.59582" lon="-0.0039">
        <ele>134</ele>
        <time>2021-02-20T09:36:45Z</time>
      </trkpt>
      <trkpt lat="43.59583" lon="-0.00385">
        <ele>134</ele>
        <time>2021-02-20T09:36:48Z</time>
      </trkpt>
      <trkpt lat="43.59589" lon="-0.00385">
        <ele>134</ele>
        <time>2021-02-20T09:36:54Z</time>
      </trkpt>
      <trkpt lat="43.59621" lon="-0.00407">
        <ele>134</ele>
        <time>2021-02-20T09:37:21Z</time>
      </trkpt>
      <trkpt lat="43.59627" lon="-0.00407">
        <ele>134</ele>
        <time>2021-02-20T09:37:26Z</time>
      </trkpt>
      <trkpt lat="43.59636" lon="-0.00409">
        <ele>134</ele>
        <time>2021-02-20T09:37:32Z</time>
      </trkpt>
      <trkpt lat="43.59652" lon="-0.00418">
        <ele>134</ele>
        <time>2021-02-20T09:37:41Z</time>
      </trkpt>
      <trkpt lat="43.59656" lon="-0.00418">
        <ele>134</ele>
        <time>2021-02-20T09:37:45Z</time>
      </trkpt>
      <trkpt lat="43.5966" lon="-0.0042">
        <ele>134</ele>
        <time>2021-02-20T09:37:49Z</time>
      </trkpt>
      <trkpt lat="43.59664" lon="-0.00425">
        <ele>134</ele>
        <time>2021-02-20T09:37:53Z</time>
      </trkpt>
      <trkpt lat="43.59677" lon="-0.00432">
        <ele>134</ele>
        <time>2021-02-20T09:38:05Z</time>
      </trkpt>
      <trkpt lat="43.5968" lon="-0.00432">
        <ele>134</ele>
        <time>2021-02-20T09:38:08Z</time>
      </trkpt>
      <trkpt lat="43.59694" lon="-0.00429">
        <ele>134</ele>
        <time>2021-02-20T09:38:17Z</time>
      </trkpt>
      <trkpt lat="43.59697" lon="-0.00429">
        <ele>134</ele>
        <time>2021-02-20T09:38:21Z</time>
      </trkpt>
      <trkpt lat="43.59702" lon="-0.00429">
        <ele>134</ele>
        <time>2021-02-20T09:38:25Z</time>
      </trkpt>
      <trkpt lat="43.59709" lon="-0.00433">
        <ele>134</ele>
        <time>2021-02-20T09:38:31Z</time>
      </trkpt>
      <trkpt lat="43.59713" lon="-0.00434">
        <ele>134</ele>
        <time>2021-02-20T09:38:33Z</time>
      </trkpt>
      <trkpt lat="43.59717" lon="-0.00434">
        <ele>134</ele>
        <time>2021-02-20T09:38:35Z</time>
      </trkpt>
      <trkpt lat="43.59726" lon="-0.00436">
        <ele>134</ele>
        <time>2021-02-20T09:38:41Z</time>
      </trkpt>
      <trkpt lat="43.59735" lon="-0.00435">
        <ele>134</ele>
        <time>2021-02-20T09:38:47Z</time>
      </trkpt>
      <trkpt lat="43.59759" lon="-0.00441">
        <ele>134</ele>
        <time>2021-02-20T09:39:05Z</time>
      </trkpt>
      <trkpt lat="43.59763" lon="-0.0044">
        <ele>134</ele>
        <time>2021-02-20T09:39:08Z</time>
      </trkpt>
      <trkpt lat="43.59776" lon="-0.00442">
        <ele>134</ele>
        <time>2021-02-20T09:39:18Z</time>
      </trkpt>
      <trkpt lat="43.59779" lon="-0.00441">
        <ele>134</ele>
        <time>2021-02-20T09:39:21Z</time>
      </trkpt>
      <trkpt lat="43.59796" lon="-0.00441">
        <ele>133</ele>
        <time>2021-02-20T09:39:34Z</time>
      </trkpt>
      <trkpt lat="43.59801" lon="-0.00443">
        <ele>133</ele>
        <time>2021-02-20T09:39:37Z</time>
      </trkpt>
      <trkpt lat="43.59805" lon="-0.00442">
        <ele>134</ele>
        <time>2021-02-20T09:39:40Z</time>
      </trkpt>
      <trkpt lat="43.59827" lon="-0.00444">
        <ele>134</ele>
        <time>2021-02-20T09:39:57Z</time>
      </trkpt>
      <trkpt lat="43.59834" lon="-0.00443">
        <ele>134</ele>
        <time>2021-02-20T09:40:04Z</time>
      </trkpt>
      <trkpt lat="43.59838" lon="-0.00444">
        <ele>134</ele>
        <time>2021-02-20T09:40:07Z</time>
      </trkpt>
      <trkpt lat="43.59842" lon="-0.00443">
        <ele>134</ele>
        <time>2021-02-20T09:40:10Z</time>
      </trkpt>
      <trkpt lat="43.59868" lon="-0.00447">
        <ele>134</ele>
        <time>2021-02-20T09:40:30Z</time>
      </trkpt>
      <trkpt lat="43.59883" lon="-0.00455">
        <ele>134</ele>
        <time>2021-02-20T09:40:45Z</time>
      </trkpt>
      <trkpt lat="43.59887" lon="-0.00456">
        <ele>134</ele>
        <time>2021-02-20T09:40:48Z</time>
      </trkpt>
      <trkpt lat="43.59899" lon="-0.0046">
        <ele>134</ele>
        <time>2021-02-20T09:40:58Z</time>
      </trkpt>
      <trkpt lat="43.59903" lon="-0.0046">
        <ele>134</ele>
        <time>2021-02-20T09:41:01Z</time>
      </trkpt>
      <trkpt lat="43.59921" lon="-0.0046">
        <ele>134</ele>
        <time>2021-02-20T09:41:15Z</time>
      </trkpt>
      <trkpt lat="43.59925" lon="-0.00459">
        <ele>134</ele>
        <time>2021-02-20T09:41:18Z</time>
      </trkpt>
      <trkpt lat="43.59929" lon="-0.0046">
        <ele>134</ele>
        <time>2021-02-20T09:41:22Z</time>
      </trkpt>
      <trkpt lat="43.59938" lon="-0.00458">
        <ele>134</ele>
        <time>2021-02-20T09:41:28Z</time>
      </trkpt>
      <trkpt lat="43.59958" lon="-0.00461">
        <ele>134</ele>
        <time>2021-02-20T09:41:44Z</time>
      </trkpt>
      <trkpt lat="43.59978" lon="-0.00454">
        <ele>134</ele>
        <time>2021-02-20T09:42:02Z</time>
      </trkpt>
      <trkpt lat="43.59985" lon="-0.0045">
        <ele>134</ele>
        <time>2021-02-20T09:42:09Z</time>
      </trkpt>
      <trkpt lat="43.59993" lon="-0.00442">
        <ele>133</ele>
        <time>2021-02-20T09:42:18Z</time>
      </trkpt>
      <trkpt lat="43.6" lon="-0.00438">
        <ele>133</ele>
        <time>2021-02-20T09:42:25Z</time>
      </trkpt>
      <trkpt lat="43.60007" lon="-0.00431">
        <ele>133</ele>
        <time>2021-02-20T09:42:30Z</time>
      </trkpt>
      <trkpt lat="43.60011" lon="-0.00431">
        <ele>133</ele>
        <time>2021-02-20T09:42:33Z</time>
      </trkpt>
      <trkpt lat="43.60015" lon="-0.00429">
        <ele>133</ele>
        <time>2021-02-20T09:42:37Z</time>
      </trkpt>
      <trkpt lat="43.60019" lon="-0.00427">
        <ele>133</ele>
        <time>2021-02-20T09:42:40Z</time>
      </trkpt>
      <trkpt lat="43.60027" lon="-0.00425">
        <ele>133</ele>
        <time>2021-02-20T09:42:46Z</time>
      </trkpt>
      <trkpt lat="43.60032" lon="-0.00426">
        <ele>133</ele>
        <time>2021-02-20T09:42:50Z</time>
      </trkpt>
      <trkpt lat="43.60051" lon="-0.00423">
        <ele>133</ele>
        <time>2021-02-20T09:43:06Z</time>
      </trkpt>
      <trkpt lat="43.6006" lon="-0.00424">
        <ele>133</ele>
        <time>2021-02-20T09:43:13Z</time>
      </trkpt>
      <trkpt lat="43.60065" lon="-0.00427">
        <ele>133</ele>
        <time>2021-02-20T09:43:20Z</time>
      </trkpt>
      <trkpt lat="43.6007" lon="-0.00424">
        <ele>133</ele>
        <time>2021-02-20T09:43:24Z</time>
      </trkpt>
      <trkpt lat="43.60082" lon="-0.00428">
        <ele>133</ele>
        <time>2021-02-20T09:43:34Z</time>
      </trkpt>
      <trkpt lat="43.60085" lon="-0.0043">
        <ele>133</ele>
        <time>2021-02-20T09:43:38Z</time>
      </trkpt>
      <trkpt lat="43.60089" lon="-0.00431">
        <ele>133</ele>
        <time>2021-02-20T09:43:41Z</time>
      </trkpt>
      <trkpt lat="43.60101" lon="-0.00435">
        <ele>133</ele>
        <time>2021-02-20T09:43:51Z</time>
      </trkpt>
      <trkpt lat="43.60109" lon="-0.00438">
        <ele>133</ele>
        <time>2021-02-20T09:43:58Z</time>
      </trkpt>
      <trkpt lat="43.60113" lon="-0.00439">
        <ele>133</ele>
        <time>2021-02-20T09:44:00Z</time>
      </trkpt>
      <trkpt lat="43.60121" lon="-0.00439">
        <ele>133</ele>
        <time>2021-02-20T09:44:07Z</time>
      </trkpt>
      <trkpt lat="43.60126" lon="-0.0044">
        <ele>133</ele>
        <time>2021-02-20T09:44:11Z</time>
      </trkpt>
      <trkpt lat="43.60143" lon="-0.00441">
        <ele>133</ele>
        <time>2021-02-20T09:44:24Z</time>
      </trkpt>
      <trkpt lat="43.60149" lon="-0.00448">
        <ele>133</ele>
        <time>2021-02-20T09:44:30Z</time>
      </trkpt>
      <trkpt lat="43.60161" lon="-0.00456">
        <ele>133</ele>
        <time>2021-02-20T09:44:41Z</time>
      </trkpt>
      <trkpt lat="43.60157" lon="-0.00487">
        <ele>133</ele>
        <time>2021-02-20T09:45:00Z</time>
      </trkpt>
      <trkpt lat="43.60155" lon="-0.00494">
        <ele>133</ele>
        <time>2021-02-20T09:45:05Z</time>
      </trkpt>
      <trkpt lat="43.60155" lon="-0.00499">
        <ele>133</ele>
        <time>2021-02-20T09:45:08Z</time>
      </trkpt>
      <trkpt lat="43.60152" lon="-0.00506">
        <ele>133</ele>
        <time>2021-02-20T09:45:12Z</time>
      </trkpt>
      <trkpt lat="43.60153" lon="-0.00513">
        <ele>133</ele>
        <time>2021-02-20T09:45:16Z</time>
      </trkpt>
      <trkpt lat="43.60153" lon="-0.00518">
        <ele>133</ele>
        <time>2021-02-20T09:45:19Z</time>
      </trkpt>
      <trkpt lat="43.60151" lon="-0.00524">
        <ele>133</ele>
        <time>2021-02-20T09:45:22Z</time>
      </trkpt>
      <trkpt lat="43.60141" lon="-0.00575">
        <ele>133</ele>
        <time>2021-02-20T09:45:53Z</time>
      </trkpt>
      <trkpt lat="43.60138" lon="-0.00582">
        <ele>133</ele>
        <time>2021-02-20T09:45:58Z</time>
      </trkpt>
      <trkpt lat="43.60138" lon="-0.00587">
        <ele>133</ele>
        <time>2021-02-20T09:46:02Z</time>
      </trkpt>
      <trkpt lat="43.60135" lon="-0.00595">
        <ele>133</ele>
        <time>2021-02-20T09:46:08Z</time>
      </trkpt>
      <trkpt lat="43.60127" lon="-0.00622">
        <ele>133</ele>
        <time>2021-02-20T09:46:26Z</time>
      </trkpt>
      <trkpt lat="43.60124" lon="-0.00626">
        <ele>133</ele>
        <time>2021-02-20T09:46:28Z</time>
      </trkpt>
      <trkpt lat="43.60123" lon="-0.00632">
        <ele>132</ele>
        <time>2021-02-20T09:46:32Z</time>
      </trkpt>
      <trkpt lat="43.60118" lon="-0.00635">
        <ele>132</ele>
        <time>2021-02-20T09:46:38Z</time>
      </trkpt>
      <trkpt lat="43.60114" lon="-0.00642">
        <ele>133</ele>
        <time>2021-02-20T09:47:08Z</time>
      </trkpt>
      <trkpt lat="43.6011" lon="-0.00648">
        <ele>133</ele>
        <time>2021-02-20T09:47:13Z</time>
      </trkpt>
      <trkpt lat="43.60105" lon="-0.00653">
        <ele>133</ele>
        <time>2021-02-20T09:47:16Z</time>
      </trkpt>
      <trkpt lat="43.60105" lon="-0.00661">
        <ele>133</ele>
        <time>2021-02-20T09:47:21Z</time>
      </trkpt>
      <trkpt lat="43.6011" lon="-0.00668">
        <ele>132</ele>
        <time>2021-02-20T09:47:33Z</time>
      </trkpt>
      <trkpt lat="43.60148" lon="-0.00678">
        <ele>132</ele>
        <time>2021-02-20T09:47:55Z</time>
      </trkpt>
      <trkpt lat="43.60154" lon="-0.00674">
        <ele>132</ele>
        <time>2021-02-20T09:47:57Z</time>
      </trkpt>
      <trkpt lat="43.60162" lon="-0.0068">
        <ele>133</ele>
        <time>2021-02-20T09:48:05Z</time>
      </trkpt>
      <trkpt lat="43.6017" lon="-0.00682">
        <ele>133</ele>
        <time>2021-02-20T09:48:12Z</time>
      </trkpt>
      <trkpt lat="43.6018" lon="-0.00681">
        <ele>132</ele>
        <time>2021-02-20T09:48:35Z</time>
      </trkpt>
      <trkpt lat="43.60184" lon="-0.00682">
        <ele>132</ele>
        <time>2021-02-20T09:48:39Z</time>
      </trkpt>
      <trkpt lat="43.60196" lon="-0.00688">
        <ele>132</ele>
        <time>2021-02-20T09:48:48Z</time>
      </trkpt>
      <trkpt lat="43.602" lon="-0.00691">
        <ele>132</ele>
        <time>2021-02-20T09:48:51Z</time>
      </trkpt>
      <trkpt lat="43.60204" lon="-0.00691">
        <ele>132</ele>
        <time>2021-02-20T09:48:54Z</time>
      </trkpt>
      <trkpt lat="43.60209" lon="-0.00695">
        <ele>132</ele>
        <time>2021-02-20T09:48:59Z</time>
      </trkpt>
      <trkpt lat="43.60213" lon="-0.00696">
        <ele>132</ele>
        <time>2021-02-20T09:49:02Z</time>
      </trkpt>
      <trkpt lat="43.60217" lon="-0.00697">
        <ele>132</ele>
        <time>2021-02-20T09:49:04Z</time>
      </trkpt>
      <trkpt lat="43.60221" lon="-0.00696">
        <ele>132</ele>
        <time>2021-02-20T09:49:07Z</time>
      </trkpt>
      <trkpt lat="43.60226" lon="-0.00696">
        <ele>132</ele>
        <time>2021-02-20T09:49:11Z</time>
      </trkpt>
      <trkpt lat="43.6026" lon="-0.00706">
        <ele>132</ele>
        <time>2021-02-20T09:49:35Z</time>
      </trkpt>
      <trkpt lat="43.60273" lon="-0.00703">
        <ele>132</ele>
        <time>2021-02-20T09:49:44Z</time>
      </trkpt>
      <trkpt lat="43.60281" lon="-0.00709">
        <ele>132</ele>
        <time>2021-02-20T09:49:52Z</time>
      </trkpt>
      <trkpt lat="43.60288" lon="-0.00707">
        <ele>132</ele>
        <time>2021-02-20T09:49:58Z</time>
      </trkpt>
      <trkpt lat="43.60295" lon="-0.00711">
        <ele>132</ele>
        <time>2021-02-20T09:50:03Z</time>
      </trkpt>
      <trkpt lat="43.60299" lon="-0.00711">
        <ele>132</ele>
        <time>2021-02-20T09:50:05Z</time>
      </trkpt>
      <trkpt lat="43.60323" lon="-0.00705">
        <ele>132</ele>
        <time>2021-02-20T09:50:26Z</time>
      </trkpt>
      <trkpt lat="43.60318" lon="-0.00703">
        <ele>132</ele>
        <time>2021-02-20T09:50:39Z</time>
      </trkpt>
      <trkpt lat="43.60318" lon="-0.00699">
        <ele>132</ele>
        <time>2021-02-20T09:50:46Z</time>
      </trkpt>
      <trkpt lat="43.60321" lon="-0.00696">
        <ele>131</ele>
        <time>2021-02-20T09:51:16Z</time>
      </trkpt>
      <trkpt lat="43.60318" lon="-0.00691">
        <ele>130</ele>
        <time>2021-02-20T09:53:15Z</time>
      </trkpt>
      <trkpt lat="43.60307" lon="-0.00679">
        <ele>127</ele>
        <time>2021-02-20T09:58:26Z</time>
      </trkpt>
      <trkpt lat="43.60305" lon="-0.00679">
        <ele>127</ele>
        <time>2021-02-20T09:59:11Z</time>
      </trkpt>
      <trkpt lat="43.60308" lon="-0.00682">
        <ele>127</ele>
        <time>2021-02-20T10:00:08Z</time>
      </trkpt>
      <trkpt lat="43.60313" lon="-0.00678">
        <ele>127</ele>
        <time>2021-02-20T10:00:12Z</time>
      </trkpt>
      <trkpt lat="43.60337" lon="-0.00673">
        <ele>127</ele>
        <time>2021-02-20T10:00:33Z</time>
      </trkpt>
      <trkpt lat="43.60343" lon="-0.00674">
        <ele>127</ele>
        <time>2021-02-20T10:00:39Z</time>
      </trkpt>
      <trkpt lat="43.60349" lon="-0.00676">
        <ele>127</ele>
        <time>2021-02-20T10:00:44Z</time>
      </trkpt>
      <trkpt lat="43.60355" lon="-0.00676">
        <ele>127</ele>
        <time>2021-02-20T10:00:49Z</time>
      </trkpt>
      <trkpt lat="43.60361" lon="-0.00669">
        <ele>127</ele>
        <time>2021-02-20T10:00:58Z</time>
      </trkpt>
      <trkpt lat="43.60374" lon="-0.00661">
        <ele>127</ele>
        <time>2021-02-20T10:01:06Z</time>
      </trkpt>
      <trkpt lat="43.60379" lon="-0.00659">
        <ele>127</ele>
        <time>2021-02-20T10:01:12Z</time>
      </trkpt>
      <trkpt lat="43.60395" lon="-0.00647">
        <ele>127</ele>
        <time>2021-02-20T10:01:29Z</time>
      </trkpt>
      <trkpt lat="43.60403" lon="-0.00644">
        <ele>127</ele>
        <time>2021-02-20T10:01:37Z</time>
      </trkpt>
      <trkpt lat="43.60425" lon="-0.00617">
        <ele>128</ele>
        <time>2021-02-20T10:01:56Z</time>
      </trkpt>
      <trkpt lat="43.60427" lon="-0.00613">
        <ele>128</ele>
        <time>2021-02-20T10:01:58Z</time>
      </trkpt>
      <trkpt lat="43.60431" lon="-0.00609">
        <ele>128</ele>
        <time>2021-02-20T10:02:00Z</time>
      </trkpt>
      <trkpt lat="43.60431" lon="-0.00603">
        <ele>128</ele>
        <time>2021-02-20T10:02:03Z</time>
      </trkpt>
      <trkpt lat="43.60434" lon="-0.00592">
        <ele>128</ele>
        <time>2021-02-20T10:02:09Z</time>
      </trkpt>
      <trkpt lat="43.60437" lon="-0.00589">
        <ele>128</ele>
        <time>2021-02-20T10:02:12Z</time>
      </trkpt>
      <trkpt lat="43.60442" lon="-0.00589">
        <ele>128</ele>
        <time>2021-02-20T10:02:20Z</time>
      </trkpt>
      <trkpt lat="43.60442" lon="-0.00562">
        <ele>129</ele>
        <time>2021-02-20T10:02:36Z</time>
      </trkpt>
      <trkpt lat="43.6044" lon="-0.0055">
        <ele>129</ele>
        <time>2021-02-20T10:02:42Z</time>
      </trkpt>
      <trkpt lat="43.60441" lon="-0.00538">
        <ele>129</ele>
        <time>2021-02-20T10:02:49Z</time>
      </trkpt>
      <trkpt lat="43.60443" lon="-0.00528">
        <ele>129</ele>
        <time>2021-02-20T10:02:55Z</time>
      </trkpt>
      <trkpt lat="43.60447" lon="-0.00494">
        <ele>129</ele>
        <time>2021-02-20T10:03:14Z</time>
      </trkpt>
      <trkpt lat="43.60446" lon="-0.0048">
        <ele>130</ele>
        <time>2021-02-20T10:03:26Z</time>
      </trkpt>
      <trkpt lat="43.60447" lon="-0.00474">
        <ele>130</ele>
        <time>2021-02-20T10:03:30Z</time>
      </trkpt>
      <trkpt lat="43.6045" lon="-0.0047">
        <ele>130</ele>
        <time>2021-02-20T10:03:32Z</time>
      </trkpt>
      <trkpt lat="43.60454" lon="-0.00469">
        <ele>130</ele>
        <time>2021-02-20T10:03:35Z</time>
      </trkpt>
      <trkpt lat="43.60456" lon="-0.00466">
        <ele>130</ele>
        <time>2021-02-20T10:03:38Z</time>
      </trkpt>
      <trkpt lat="43.60469" lon="-0.00456">
        <ele>130</ele>
        <time>2021-02-20T10:03:52Z</time>
      </trkpt>
      <trkpt lat="43.60471" lon="-0.00453">
        <ele>130</ele>
        <time>2021-02-20T10:03:54Z</time>
      </trkpt>
      <trkpt lat="43.60475" lon="-0.00453">
        <ele>130</ele>
        <time>2021-02-20T10:03:57Z</time>
      </trkpt>
      <trkpt lat="43.60482" lon="-0.00455">
        <ele>130</ele>
        <time>2021-02-20T10:04:04Z</time>
      </trkpt>
      <trkpt lat="43.60485" lon="-0.00452">
        <ele>130</ele>
        <time>2021-02-20T10:04:08Z</time>
      </trkpt>
      <trkpt lat="43.60494" lon="-0.00457">
        <ele>131</ele>
        <time>2021-02-20T10:04:54Z</time>
      </trkpt>
      <trkpt lat="43.605" lon="-0.0046">
        <ele>131</ele>
        <time>2021-02-20T10:04:59Z</time>
      </trkpt>
      <trkpt lat="43.60506" lon="-0.00458">
        <ele>131</ele>
        <time>2021-02-20T10:05:05Z</time>
      </trkpt>
      <trkpt lat="43.60513" lon="-0.00455">
        <ele>131</ele>
        <time>2021-02-20T10:05:10Z</time>
      </trkpt>
      <trkpt lat="43.6052" lon="-0.00454">
        <ele>131</ele>
        <time>2021-02-20T10:05:14Z</time>
      </trkpt>
      <trkpt lat="43.60529" lon="-0.00454">
        <ele>131</ele>
        <time>2021-02-20T10:05:19Z</time>
      </trkpt>
      <trkpt lat="43.60522" lon="-0.00465">
        <ele>131</ele>
        <time>2021-02-20T10:05:48Z</time>
      </trkpt>
      <trkpt lat="43.6052" lon="-0.00464">
        <ele>131</ele>
        <time>2021-02-20T10:06:12Z</time>
      </trkpt>
      <trkpt lat="43.60521" lon="-0.00459">
        <ele>131</ele>
        <time>2021-02-20T10:06:15Z</time>
      </trkpt>
      <trkpt lat="43.60516" lon="-0.00447">
        <ele>131</ele>
        <time>2021-02-20T10:06:59Z</time>
      </trkpt>
      <trkpt lat="43.60508" lon="-0.00438">
        <ele>131</ele>
        <time>2021-02-20T10:07:07Z</time>
      </trkpt>
      <trkpt lat="43.605" lon="-0.0044">
        <ele>132</ele>
        <time>2021-02-20T10:07:16Z</time>
      </trkpt>
      <trkpt lat="43.60473" lon="-0.00454">
        <ele>131</ele>
        <time>2021-02-20T10:07:44Z</time>
      </trkpt>
      <trkpt lat="43.6046" lon="-0.0047">
        <ele>131</ele>
        <time>2021-02-20T10:07:54Z</time>
      </trkpt>
      <trkpt lat="43.60458" lon="-0.00475">
        <ele>131</ele>
        <time>2021-02-20T10:07:56Z</time>
      </trkpt>
      <trkpt lat="43.60454" lon="-0.00478">
        <ele>131</ele>
        <time>2021-02-20T10:07:58Z</time>
      </trkpt>
      <trkpt lat="43.60452" lon="-0.00482">
        <ele>131</ele>
        <time>2021-02-20T10:08:00Z</time>
      </trkpt>
      <trkpt lat="43.60447" lon="-0.00493">
        <ele>131</ele>
        <time>2021-02-20T10:08:07Z</time>
      </trkpt>
      <trkpt lat="43.60446" lon="-0.00505">
        <ele>131</ele>
        <time>2021-02-20T10:08:14Z</time>
      </trkpt>
      <trkpt lat="43.60446" lon="-0.0051">
        <ele>131</ele>
        <time>2021-02-20T10:08:18Z</time>
      </trkpt>
      <trkpt lat="43.60443" lon="-0.00533">
        <ele>131</ele>
        <time>2021-02-20T10:08:39Z</time>
      </trkpt>
      <trkpt lat="43.60449" lon="-0.00511">
        <ele>131</ele>
        <time>2021-02-20T10:09:03Z</time>
      </trkpt>
      <trkpt lat="43.60448" lon="-0.00504">
        <ele>131</ele>
        <time>2021-02-20T10:09:07Z</time>
      </trkpt>
      <trkpt lat="43.6045" lon="-0.005">
        <ele>131</ele>
        <time>2021-02-20T10:09:10Z</time>
      </trkpt>
      <trkpt lat="43.60449" lon="-0.00492">
        <ele>131</ele>
        <time>2021-02-20T10:09:15Z</time>
      </trkpt>
      <trkpt lat="43.60449" lon="-0.00485">
        <ele>131</ele>
        <time>2021-02-20T10:09:19Z</time>
      </trkpt>
      <trkpt lat="43.6045" lon="-0.00478">
        <ele>131</ele>
        <time>2021-02-20T10:09:23Z</time>
      </trkpt>
      <trkpt lat="43.60454" lon="-0.00471">
        <ele>131</ele>
        <time>2021-02-20T10:09:28Z</time>
      </trkpt>
      <trkpt lat="43.60455" lon="-0.00466">
        <ele>132</ele>
        <time>2021-02-20T10:09:30Z</time>
      </trkpt>
      <trkpt lat="43.60456" lon="-0.00455">
        <ele>132</ele>
        <time>2021-02-20T10:09:36Z</time>
      </trkpt>
      <trkpt lat="43.60452" lon="-0.00442">
        <ele>132</ele>
        <time>2021-02-20T10:09:45Z</time>
      </trkpt>
      <trkpt lat="43.6045" lon="-0.00439">
        <ele>132</ele>
        <time>2021-02-20T10:09:49Z</time>
      </trkpt>
      <trkpt lat="43.60445" lon="-0.00429">
        <ele>131</ele>
        <time>2021-02-20T10:09:54Z</time>
      </trkpt>
      <trkpt lat="43.60443" lon="-0.00417">
        <ele>131</ele>
        <time>2021-02-20T10:10:01Z</time>
      </trkpt>
      <trkpt lat="43.60433" lon="-0.00392">
        <ele>132</ele>
        <time>2021-02-20T10:10:18Z</time>
      </trkpt>
      <trkpt lat="43.60433" lon="-0.00387">
        <ele>132</ele>
        <time>2021-02-20T10:10:21Z</time>
      </trkpt>
      <trkpt lat="43.6043" lon="-0.00381">
        <ele>132</ele>
        <time>2021-02-20T10:10:24Z</time>
      </trkpt>
      <trkpt lat="43.60428" lon="-0.00377">
        <ele>132</ele>
        <time>2021-02-20T10:10:27Z</time>
      </trkpt>
      <trkpt lat="43.60418" lon="-0.00344">
        <ele>132</ele>
        <time>2021-02-20T10:10:48Z</time>
      </trkpt>
      <trkpt lat="43.60413" lon="-0.00335">
        <ele>132</ele>
        <time>2021-02-20T10:10:55Z</time>
      </trkpt>
      <trkpt lat="43.60409" lon="-0.00331">
        <ele>132</ele>
        <time>2021-02-20T10:10:58Z</time>
      </trkpt>
      <trkpt lat="43.60407" lon="-0.00323">
        <ele>132</ele>
        <time>2021-02-20T10:11:05Z</time>
      </trkpt>
      <trkpt lat="43.60403" lon="-0.0032">
        <ele>132</ele>
        <time>2021-02-20T10:11:09Z</time>
      </trkpt>
      <trkpt lat="43.60395" lon="-0.00315">
        <ele>132</ele>
        <time>2021-02-20T10:11:16Z</time>
      </trkpt>
      <trkpt lat="43.60379" lon="-0.0031">
        <ele>132</ele>
        <time>2021-02-20T10:11:31Z</time>
      </trkpt>
      <trkpt lat="43.60375" lon="-0.00306">
        <ele>132</ele>
        <time>2021-02-20T10:11:34Z</time>
      </trkpt>
      <trkpt lat="43.60347" lon="-0.00291">
        <ele>132</ele>
        <time>2021-02-20T10:11:56Z</time>
      </trkpt>
      <trkpt lat="43.6034" lon="-0.00286">
        <ele>132</ele>
        <time>2021-02-20T10:12:04Z</time>
      </trkpt>
      <trkpt lat="43.60336" lon="-0.00285">
        <ele>132</ele>
        <time>2021-02-20T10:12:08Z</time>
      </trkpt>
      <trkpt lat="43.60314" lon="-0.00277">
        <ele>132</ele>
        <time>2021-02-20T10:12:23Z</time>
      </trkpt>
      <trkpt lat="43.60309" lon="-0.00278">
        <ele>132</ele>
        <time>2021-02-20T10:12:29Z</time>
      </trkpt>
      <trkpt lat="43.60305" lon="-0.00274">
        <ele>132</ele>
        <time>2021-02-20T10:12:32Z</time>
      </trkpt>
      <trkpt lat="43.60292" lon="-0.00274">
        <ele>132</ele>
        <time>2021-02-20T10:12:43Z</time>
      </trkpt>
      <trkpt lat="43.60275" lon="-0.00266">
        <ele>132</ele>
        <time>2021-02-20T10:12:55Z</time>
      </trkpt>
      <trkpt lat="43.60267" lon="-0.00268">
        <ele>132</ele>
        <time>2021-02-20T10:13:02Z</time>
      </trkpt>
      <trkpt lat="43.60262" lon="-0.00266">
        <ele>132</ele>
        <time>2021-02-20T10:13:05Z</time>
      </trkpt>
      <trkpt lat="43.60249" lon="-0.00265">
        <ele>132</ele>
        <time>2021-02-20T10:13:14Z</time>
      </trkpt>
      <trkpt lat="43.60225" lon="-0.00258">
        <ele>132</ele>
        <time>2021-02-20T10:13:34Z</time>
      </trkpt>
      <trkpt lat="43.60217" lon="-0.00259">
        <ele>132</ele>
        <time>2021-02-20T10:13:41Z</time>
      </trkpt>
      <trkpt lat="43.60203" lon="-0.0025">
        <ele>133</ele>
        <time>2021-02-20T10:13:53Z</time>
      </trkpt>
      <trkpt lat="43.60188" lon="-0.00252">
        <ele>133</ele>
        <time>2021-02-20T10:14:08Z</time>
      </trkpt>
      <trkpt lat="43.60178" lon="-0.00256">
        <ele>133</ele>
        <time>2021-02-20T10:14:17Z</time>
      </trkpt>
      <trkpt lat="43.60177" lon="-0.00263">
        <ele>133</ele>
        <time>2021-02-20T10:14:21Z</time>
      </trkpt>
      <trkpt lat="43.60179" lon="-0.00274">
        <ele>133</ele>
        <time>2021-02-20T10:14:27Z</time>
      </trkpt>
      <trkpt lat="43.60178" lon="-0.00284">
        <ele>133</ele>
        <time>2021-02-20T10:14:33Z</time>
      </trkpt>
      <trkpt lat="43.60179" lon="-0.0029">
        <ele>133</ele>
        <time>2021-02-20T10:14:36Z</time>
      </trkpt>
      <trkpt lat="43.60178" lon="-0.00295">
        <ele>133</ele>
        <time>2021-02-20T10:14:40Z</time>
      </trkpt>
      <trkpt lat="43.60181" lon="-0.00312">
        <ele>133</ele>
        <time>2021-02-20T10:14:50Z</time>
      </trkpt>
      <trkpt lat="43.6018" lon="-0.00317">
        <ele>133</ele>
        <time>2021-02-20T10:14:53Z</time>
      </trkpt>
      <trkpt lat="43.60181" lon="-0.00323">
        <ele>133</ele>
        <time>2021-02-20T10:14:57Z</time>
      </trkpt>
      <trkpt lat="43.60181" lon="-0.00329">
        <ele>133</ele>
        <time>2021-02-20T10:15:00Z</time>
      </trkpt>
      <trkpt lat="43.6018" lon="-0.00338">
        <ele>133</ele>
        <time>2021-02-20T10:15:07Z</time>
      </trkpt>
      <trkpt lat="43.6018" lon="-0.00351">
        <ele>133</ele>
        <time>2021-02-20T10:15:13Z</time>
      </trkpt>
      <trkpt lat="43.60178" lon="-0.00356">
        <ele>133</ele>
        <time>2021-02-20T10:15:17Z</time>
      </trkpt>
      <trkpt lat="43.60174" lon="-0.00359">
        <ele>133</ele>
        <time>2021-02-20T10:15:21Z</time>
      </trkpt>
      <trkpt lat="43.6017" lon="-0.00373">
        <ele>133</ele>
        <time>2021-02-20T10:15:32Z</time>
      </trkpt>
      <trkpt lat="43.60171" lon="-0.00377">
        <ele>133</ele>
        <time>2021-02-20T10:15:35Z</time>
      </trkpt>
      <trkpt lat="43.6017" lon="-0.00389">
        <ele>133</ele>
        <time>2021-02-20T10:15:41Z</time>
      </trkpt>
      <trkpt lat="43.6017" lon="-0.00395">
        <ele>134</ele>
        <time>2021-02-20T10:15:44Z</time>
      </trkpt>
      <trkpt lat="43.60167" lon="-0.00414">
        <ele>133</ele>
        <time>2021-02-20T10:15:55Z</time>
      </trkpt>
      <trkpt lat="43.60167" lon="-0.00419">
        <ele>133</ele>
        <time>2021-02-20T10:15:58Z</time>
      </trkpt>
      <trkpt lat="43.60166" lon="-0.00424">
        <ele>133</ele>
        <time>2021-02-20T10:16:02Z</time>
      </trkpt>
      <trkpt lat="43.60164" lon="-0.00429">
        <ele>133</ele>
        <time>2021-02-20T10:16:06Z</time>
      </trkpt>
      <trkpt lat="43.60162" lon="-0.00439">
        <ele>133</ele>
        <time>2021-02-20T10:16:12Z</time>
      </trkpt>
      <trkpt lat="43.60163" lon="-0.00446">
        <ele>133</ele>
        <time>2021-02-20T10:16:14Z</time>
      </trkpt>
      <trkpt lat="43.60161" lon="-0.0045">
        <ele>133</ele>
        <time>2021-02-20T10:16:18Z</time>
      </trkpt>
      <trkpt lat="43.60148" lon="-0.00449">
        <ele>133</ele>
        <time>2021-02-20T10:16:28Z</time>
      </trkpt>
      <trkpt lat="43.60144" lon="-0.00447">
        <ele>133</ele>
        <time>2021-02-20T10:16:31Z</time>
      </trkpt>
      <trkpt lat="43.60137" lon="-0.00441">
        <ele>133</ele>
        <time>2021-02-20T10:16:37Z</time>
      </trkpt>
      <trkpt lat="43.60113" lon="-0.00437">
        <ele>133</ele>
        <time>2021-02-20T10:16:55Z</time>
      </trkpt>
      <trkpt lat="43.60106" lon="-0.00433">
        <ele>133</ele>
        <time>2021-02-20T10:17:03Z</time>
      </trkpt>
      <trkpt lat="43.60098" lon="-0.00434">
        <ele>133</ele>
        <time>2021-02-20T10:17:09Z</time>
      </trkpt>
      <trkpt lat="43.60095" lon="-0.00431">
        <ele>133</ele>
        <time>2021-02-20T10:17:11Z</time>
      </trkpt>
      <trkpt lat="43.60085" lon="-0.00427">
        <ele>133</ele>
        <time>2021-02-20T10:17:18Z</time>
      </trkpt>
      <trkpt lat="43.60048" lon="-0.00424">
        <ele>133</ele>
        <time>2021-02-20T10:17:50Z</time>
      </trkpt>
      <trkpt lat="43.6001" lon="-0.00434">
        <ele>133</ele>
        <time>2021-02-20T10:18:21Z</time>
      </trkpt>
      <trkpt lat="43.60001" lon="-0.0044">
        <ele>133</ele>
        <time>2021-02-20T10:18:28Z</time>
      </trkpt>
      <trkpt lat="43.59998" lon="-0.00443">
        <ele>133</ele>
        <time>2021-02-20T10:18:32Z</time>
      </trkpt>
      <trkpt lat="43.59995" lon="-0.00447">
        <ele>133</ele>
        <time>2021-02-20T10:18:36Z</time>
      </trkpt>
      <trkpt lat="43.59991" lon="-0.00449">
        <ele>133</ele>
        <time>2021-02-20T10:18:40Z</time>
      </trkpt>
      <trkpt lat="43.59987" lon="-0.0045">
        <ele>133</ele>
        <time>2021-02-20T10:18:43Z</time>
      </trkpt>
      <trkpt lat="43.59983" lon="-0.00453">
        <ele>133</ele>
        <time>2021-02-20T10:18:46Z</time>
      </trkpt>
      <trkpt lat="43.59954" lon="-0.00462">
        <ele>133</ele>
        <time>2021-02-20T10:19:10Z</time>
      </trkpt>
      <trkpt lat="43.59949" lon="-0.0046">
        <ele>133</ele>
        <time>2021-02-20T10:19:13Z</time>
      </trkpt>
      <trkpt lat="43.59945" lon="-0.00461">
        <ele>133</ele>
        <time>2021-02-20T10:19:17Z</time>
      </trkpt>
      <trkpt lat="43.59931" lon="-0.00455">
        <ele>134</ele>
        <time>2021-02-20T10:19:30Z</time>
      </trkpt>
      <trkpt lat="43.59923" lon="-0.00458">
        <ele>134</ele>
        <time>2021-02-20T10:19:37Z</time>
      </trkpt>
      <trkpt lat="43.59915" lon="-0.00456">
        <ele>134</ele>
        <time>2021-02-20T10:19:43Z</time>
      </trkpt>
      <trkpt lat="43.59911" lon="-0.00457">
        <ele>134</ele>
        <time>2021-02-20T10:19:47Z</time>
      </trkpt>
      <trkpt lat="43.59881" lon="-0.00452">
        <ele>134</ele>
        <time>2021-02-20T10:20:11Z</time>
      </trkpt>
      <trkpt lat="43.59876" lon="-0.00447">
        <ele>134</ele>
        <time>2021-02-20T10:20:17Z</time>
      </trkpt>
      <trkpt lat="43.59854" lon="-0.00445">
        <ele>134</ele>
        <time>2021-02-20T10:20:34Z</time>
      </trkpt>
      <trkpt lat="43.5985" lon="-0.00445">
        <ele>134</ele>
        <time>2021-02-20T10:20:37Z</time>
      </trkpt>
      <trkpt lat="43.59829" lon="-0.00444">
        <ele>134</ele>
        <time>2021-02-20T10:20:52Z</time>
      </trkpt>
      <trkpt lat="43.59821" lon="-0.00444">
        <ele>134</ele>
        <time>2021-02-20T10:20:58Z</time>
      </trkpt>
      <trkpt lat="43.59817" lon="-0.00442">
        <ele>134</ele>
        <time>2021-02-20T10:21:02Z</time>
      </trkpt>
      <trkpt lat="43.59808" lon="-0.00441">
        <ele>134</ele>
        <time>2021-02-20T10:21:09Z</time>
      </trkpt>
      <trkpt lat="43.59804" lon="-0.0044">
        <ele>134</ele>
        <time>2021-02-20T10:21:12Z</time>
      </trkpt>
      <trkpt lat="43.59796" lon="-0.00439">
        <ele>134</ele>
        <time>2021-02-20T10:21:18Z</time>
      </trkpt>
      <trkpt lat="43.59792" lon="-0.0044">
        <ele>134</ele>
        <time>2021-02-20T10:21:22Z</time>
      </trkpt>
      <trkpt lat="43.59756" lon="-0.0044">
        <ele>134</ele>
        <time>2021-02-20T10:21:49Z</time>
      </trkpt>
      <trkpt lat="43.59752" lon="-0.00439">
        <ele>134</ele>
        <time>2021-02-20T10:21:52Z</time>
      </trkpt>
      <trkpt lat="43.59743" lon="-0.00439">
        <ele>134</ele>
        <time>2021-02-20T10:21:59Z</time>
      </trkpt>
      <trkpt lat="43.59738" lon="-0.00437">
        <ele>134</ele>
        <time>2021-02-20T10:22:03Z</time>
      </trkpt>
      <trkpt lat="43.5972" lon="-0.00436">
        <ele>134</ele>
        <time>2021-02-20T10:22:16Z</time>
      </trkpt>
      <trkpt lat="43.59713" lon="-0.00433">
        <ele>134</ele>
        <time>2021-02-20T10:22:22Z</time>
      </trkpt>
      <trkpt lat="43.59704" lon="-0.00432">
        <ele>134</ele>
        <time>2021-02-20T10:22:31Z</time>
      </trkpt>
      <trkpt lat="43.59697" lon="-0.0043">
        <ele>134</ele>
        <time>2021-02-20T10:22:38Z</time>
      </trkpt>
      <trkpt lat="43.59692" lon="-0.00428">
        <ele>134</ele>
        <time>2021-02-20T10:22:43Z</time>
      </trkpt>
      <trkpt lat="43.59684" lon="-0.0043">
        <ele>134</ele>
        <time>2021-02-20T10:22:50Z</time>
      </trkpt>
      <trkpt lat="43.5968" lon="-0.00427">
        <ele>134</ele>
        <time>2021-02-20T10:22:53Z</time>
      </trkpt>
      <trkpt lat="43.59672" lon="-0.00425">
        <ele>134</ele>
        <time>2021-02-20T10:23:00Z</time>
      </trkpt>
      <trkpt lat="43.59666" lon="-0.00419">
        <ele>134</ele>
        <time>2021-02-20T10:23:07Z</time>
      </trkpt>
      <trkpt lat="43.59659" lon="-0.00415">
        <ele>134</ele>
        <time>2021-02-20T10:23:14Z</time>
      </trkpt>
      <trkpt lat="43.59655" lon="-0.00412">
        <ele>134</ele>
        <time>2021-02-20T10:23:17Z</time>
      </trkpt>
      <trkpt lat="43.59638" lon="-0.00407">
        <ele>134</ele>
        <time>2021-02-20T10:23:30Z</time>
      </trkpt>
      <trkpt lat="43.59617" lon="-0.00395">
        <ele>134</ele>
        <time>2021-02-20T10:23:49Z</time>
      </trkpt>
      <trkpt lat="43.59601" lon="-0.00389">
        <ele>134</ele>
        <time>2021-02-20T10:24:02Z</time>
      </trkpt>
      <trkpt lat="43.59597" lon="-0.00386">
        <ele>134</ele>
        <time>2021-02-20T10:24:05Z</time>
      </trkpt>
      <trkpt lat="43.5959" lon="-0.00385">
        <ele>134</ele>
        <time>2021-02-20T10:24:12Z</time>
      </trkpt>
      <trkpt lat="43.59583" lon="-0.00393">
        <ele>134</ele>
        <time>2021-02-20T10:24:21Z</time>
      </trkpt>
      <trkpt lat="43.5958" lon="-0.00398">
        <ele>134</ele>
        <time>2021-02-20T10:24:24Z</time>
      </trkpt>
      <trkpt lat="43.59579" lon="-0.00404">
        <ele>134</ele>
        <time>2021-02-20T10:24:27Z</time>
      </trkpt>
      <trkpt lat="43.59577" lon="-0.00408">
        <ele>134</ele>
        <time>2021-02-20T10:24:31Z</time>
      </trkpt>
      <trkpt lat="43.59573" lon="-0.00409">
        <ele>134</ele>
        <time>2021-02-20T10:24:35Z</time>
      </trkpt>
      <trkpt lat="43.59568" lon="-0.00407">
        <ele>134</ele>
        <time>2021-02-20T10:24:39Z</time>
      </trkpt>
      <trkpt lat="43.5956" lon="-0.00404">
        <ele>134</ele>
        <time>2021-02-20T10:24:46Z</time>
      </trkpt>
      <trkpt lat="43.59547" lon="-0.004">
        <ele>134</ele>
        <time>2021-02-20T10:24:56Z</time>
      </trkpt>
      <trkpt lat="43.59538" lon="-0.00395">
        <ele>134</ele>
        <time>2021-02-20T10:25:02Z</time>
      </trkpt>
      <trkpt lat="43.59535" lon="-0.00393">
        <ele>134</ele>
        <time>2021-02-20T10:25:05Z</time>
      </trkpt>
      <trkpt lat="43.59532" lon="-0.0039">
        <ele>134</ele>
        <time>2021-02-20T10:25:08Z</time>
      </trkpt>
      <trkpt lat="43.59525" lon="-0.00383">
        <ele>134</ele>
        <time>2021-02-20T10:25:15Z</time>
      </trkpt>
      <trkpt lat="43.59518" lon="-0.00381">
        <ele>134</ele>
        <time>2021-02-20T10:25:21Z</time>
      </trkpt>
      <trkpt lat="43.59514" lon="-0.00382">
        <ele>134</ele>
        <time>2021-02-20T10:25:25Z</time>
      </trkpt>
      <trkpt lat="43.59509" lon="-0.00389">
        <ele>134</ele>
        <time>2021-02-20T10:25:34Z</time>
      </trkpt>
      <trkpt lat="43.59505" lon="-0.00393">
        <ele>134</ele>
        <time>2021-02-20T10:25:38Z</time>
      </trkpt>
      <trkpt lat="43.59502" lon="-0.00408">
        <ele>134</ele>
        <time>2021-02-20T10:25:47Z</time>
      </trkpt>
      <trkpt lat="43.59483" lon="-0.00441">
        <ele>134</ele>
        <time>2021-02-20T10:26:14Z</time>
      </trkpt>
      <trkpt lat="43.59478" lon="-0.00454">
        <ele>134</ele>
        <time>2021-02-20T10:26:24Z</time>
      </trkpt>
      <trkpt lat="43.59473" lon="-0.00462">
        <ele>134</ele>
        <time>2021-02-20T10:26:31Z</time>
      </trkpt>
      <trkpt lat="43.5947" lon="-0.00469">
        <ele>134</ele>
        <time>2021-02-20T10:26:34Z</time>
      </trkpt>
      <trkpt lat="43.5947" lon="-0.00475">
        <ele>134</ele>
        <time>2021-02-20T10:26:38Z</time>
      </trkpt>
      <trkpt lat="43.59469" lon="-0.0048">
        <ele>134</ele>
        <time>2021-02-20T10:26:42Z</time>
      </trkpt>
      <trkpt lat="43.59466" lon="-0.00485">
        <ele>134</ele>
        <time>2021-02-20T10:26:46Z</time>
      </trkpt>
      <trkpt lat="43.59462" lon="-0.0049">
        <ele>134</ele>
        <time>2021-02-20T10:26:50Z</time>
      </trkpt>
      <trkpt lat="43.59448" lon="-0.00525">
        <ele>134</ele>
        <time>2021-02-20T10:27:14Z</time>
      </trkpt>
      <trkpt lat="43.59447" lon="-0.00532">
        <ele>134</ele>
        <time>2021-02-20T10:27:17Z</time>
      </trkpt>
      <trkpt lat="43.5944" lon="-0.00537">
        <ele>134</ele>
        <time>2021-02-20T10:27:24Z</time>
      </trkpt>
      <trkpt lat="43.59436" lon="-0.00535">
        <ele>134</ele>
        <time>2021-02-20T10:27:28Z</time>
      </trkpt>
      <trkpt lat="43.59432" lon="-0.00538">
        <ele>134</ele>
        <time>2021-02-20T10:27:31Z</time>
      </trkpt>
      <trkpt lat="43.59424" lon="-0.00541">
        <ele>134</ele>
        <time>2021-02-20T10:27:37Z</time>
      </trkpt>
      <trkpt lat="43.59419" lon="-0.0054">
        <ele>134</ele>
        <time>2021-02-20T10:27:43Z</time>
      </trkpt>
      <trkpt lat="43.59414" lon="-0.00545">
        <ele>134</ele>
        <time>2021-02-20T10:27:49Z</time>
      </trkpt>
      <trkpt lat="43.59411" lon="-0.00553">
        <ele>133</ele>
        <time>2021-02-20T10:27:56Z</time>
      </trkpt>
      <trkpt lat="43.59409" lon="-0.00558">
        <ele>133</ele>
        <time>2021-02-20T10:27:59Z</time>
      </trkpt>
      <trkpt lat="43.59404" lon="-0.0057">
        <ele>134</ele>
        <time>2021-02-20T10:28:07Z</time>
      </trkpt>
      <trkpt lat="43.59394" lon="-0.00581">
        <ele>134</ele>
        <time>2021-02-20T10:28:18Z</time>
      </trkpt>
      <trkpt lat="43.59388" lon="-0.00585">
        <ele>134</ele>
        <time>2021-02-20T10:28:24Z</time>
      </trkpt>
      <trkpt lat="43.59382" lon="-0.00589">
        <ele>134</ele>
        <time>2021-02-20T10:28:30Z</time>
      </trkpt>
      <trkpt lat="43.59377" lon="-0.00581">
        <ele>133</ele>
        <time>2021-02-20T10:28:35Z</time>
      </trkpt>
      <trkpt lat="43.59373" lon="-0.00579">
        <ele>133</ele>
        <time>2021-02-20T10:28:37Z</time>
      </trkpt>
      <trkpt lat="43.59365" lon="-0.00579">
        <ele>134</ele>
        <time>2021-02-20T10:28:44Z</time>
      </trkpt>
      <trkpt lat="43.59361" lon="-0.00576">
        <ele>134</ele>
        <time>2021-02-20T10:28:47Z</time>
      </trkpt>
      <trkpt lat="43.59355" lon="-0.00577">
        <ele>134</ele>
        <time>2021-02-20T10:28:52Z</time>
      </trkpt>
      <trkpt lat="43.5935" lon="-0.00575">
        <ele>134</ele>
        <time>2021-02-20T10:28:57Z</time>
      </trkpt>
      <trkpt lat="43.59329" lon="-0.00564">
        <ele>134</ele>
        <time>2021-02-20T10:29:17Z</time>
      </trkpt>
      <trkpt lat="43.59321" lon="-0.00562">
        <ele>134</ele>
        <time>2021-02-20T10:29:24Z</time>
      </trkpt>
      <trkpt lat="43.59318" lon="-0.00559">
        <ele>134</ele>
        <time>2021-02-20T10:29:27Z</time>
      </trkpt>
      <trkpt lat="43.59312" lon="-0.00559">
        <ele>134</ele>
        <time>2021-02-20T10:29:34Z</time>
      </trkpt>
      <trkpt lat="43.59308" lon="-0.00556">
        <ele>134</ele>
        <time>2021-02-20T10:29:36Z</time>
      </trkpt>
      <trkpt lat="43.59305" lon="-0.00552">
        <ele>134</ele>
        <time>2021-02-20T10:29:40Z</time>
      </trkpt>
      <trkpt lat="43.59278" lon="-0.00535">
        <ele>134</ele>
        <time>2021-02-20T10:30:03Z</time>
      </trkpt>
      <trkpt lat="43.5927" lon="-0.00534">
        <ele>134</ele>
        <time>2021-02-20T10:30:10Z</time>
      </trkpt>
      <trkpt lat="43.59243" lon="-0.00524">
        <ele>134</ele>
        <time>2021-02-20T10:30:32Z</time>
      </trkpt>
      <trkpt lat="43.5924" lon="-0.00521">
        <ele>134</ele>
        <time>2021-02-20T10:30:35Z</time>
      </trkpt>
      <trkpt lat="43.59232" lon="-0.00517">
        <ele>135</ele>
        <time>2021-02-20T10:30:42Z</time>
      </trkpt>
      <trkpt lat="43.59226" lon="-0.0051">
        <ele>135</ele>
        <time>2021-02-20T10:30:48Z</time>
      </trkpt>
      <trkpt lat="43.59218" lon="-0.00507">
        <ele>135</ele>
        <time>2021-02-20T10:30:57Z</time>
      </trkpt>
      <trkpt lat="43.59213" lon="-0.00503">
        <ele>135</ele>
        <time>2021-02-20T10:31:02Z</time>
      </trkpt>
      <trkpt lat="43.59204" lon="-0.00493">
        <ele>135</ele>
        <time>2021-02-20T10:31:12Z</time>
      </trkpt>
      <trkpt lat="43.592" lon="-0.00492">
        <ele>135</ele>
        <time>2021-02-20T10:31:15Z</time>
      </trkpt>
      <trkpt lat="43.59194" lon="-0.00491">
        <ele>135</ele>
        <time>2021-02-20T10:31:21Z</time>
      </trkpt>
      <trkpt lat="43.59191" lon="-0.00479">
        <ele>135</ele>
        <time>2021-02-20T10:31:33Z</time>
      </trkpt>
      <trkpt lat="43.59192" lon="-0.00471">
        <ele>135</ele>
        <time>2021-02-20T10:31:37Z</time>
      </trkpt>
      <trkpt lat="43.59194" lon="-0.00466">
        <ele>135</ele>
        <time>2021-02-20T10:31:39Z</time>
      </trkpt>
      <trkpt lat="43.59195" lon="-0.00453">
        <ele>135</ele>
        <time>2021-02-20T10:31:46Z</time>
      </trkpt>
      <trkpt lat="43.59193" lon="-0.00427">
        <ele>135</ele>
        <time>2021-02-20T10:32:03Z</time>
      </trkpt>
      <trkpt lat="43.59192" lon="-0.00414">
        <ele>135</ele>
        <time>2021-02-20T10:32:13Z</time>
      </trkpt>
      <trkpt lat="43.59186" lon="-0.00393">
        <ele>135</ele>
        <time>2021-02-20T10:32:26Z</time>
      </trkpt>
      <trkpt lat="43.59185" lon="-0.0038">
        <ele>135</ele>
        <time>2021-02-20T10:32:31Z</time>
      </trkpt>
      <trkpt lat="43.59183" lon="-0.00377">
        <ele>135</ele>
        <time>2021-02-20T10:32:35Z</time>
      </trkpt>
      <trkpt lat="43.59182" lon="-0.0037">
        <ele>135</ele>
        <time>2021-02-20T10:32:39Z</time>
      </trkpt>
      <trkpt lat="43.59175" lon="-0.00357">
        <ele>135</ele>
        <time>2021-02-20T10:32:49Z</time>
      </trkpt>
      <trkpt lat="43.59171" lon="-0.00352">
        <ele>135</ele>
        <time>2021-02-20T10:32:53Z</time>
      </trkpt>
      <trkpt lat="43.59169" lon="-0.00347">
        <ele>134</ele>
        <time>2021-02-20T10:32:57Z</time>
      </trkpt>
      <trkpt lat="43.59168" lon="-0.0034">
        <ele>134</ele>
        <time>2021-02-20T10:33:01Z</time>
      </trkpt>
      <trkpt lat="43.59166" lon="-0.00335">
        <ele>134</ele>
        <time>2021-02-20T10:33:04Z</time>
      </trkpt>
      <trkpt lat="43.59163" lon="-0.00331">
        <ele>135</ele>
        <time>2021-02-20T10:33:08Z</time>
      </trkpt>
      <trkpt lat="43.59159" lon="-0.00329">
        <ele>135</ele>
        <time>2021-02-20T10:33:13Z</time>
      </trkpt>
      <trkpt lat="43.59156" lon="-0.00325">
        <ele>135</ele>
        <time>2021-02-20T10:33:17Z</time>
      </trkpt>
      <trkpt lat="43.59151" lon="-0.00322">
        <ele>136</ele>
        <time>2021-02-20T10:33:26Z</time>
      </trkpt>
      <trkpt lat="43.59152" lon="-0.00311">
        <ele>136</ele>
        <time>2021-02-20T10:33:35Z</time>
      </trkpt>
      <trkpt lat="43.59153" lon="-0.00301">
        <ele>136</ele>
        <time>2021-02-20T10:33:39Z</time>
      </trkpt>
      <trkpt lat="43.5915" lon="-0.00295">
        <ele>135</ele>
        <time>2021-02-20T10:33:44Z</time>
      </trkpt>
      <trkpt lat="43.59145" lon="-0.00282">
        <ele>135</ele>
        <time>2021-02-20T10:33:55Z</time>
      </trkpt>
      <trkpt lat="43.5915" lon="-0.00275">
        <ele>135</ele>
        <time>2021-02-20T10:34:12Z</time>
      </trkpt>
      <trkpt lat="43.59146" lon="-0.00276">
        <ele>135</ele>
        <time>2021-02-20T10:34:27Z</time>
      </trkpt>
      <trkpt lat="43.59135" lon="-0.00267">
        <ele>135</ele>
        <time>2021-02-20T10:34:40Z</time>
      </trkpt>
      <trkpt lat="43.59128" lon="-0.00252">
        <ele>135</ele>
        <time>2021-02-20T10:34:49Z</time>
      </trkpt>
      <trkpt lat="43.59127" lon="-0.00247">
        <ele>135</ele>
        <time>2021-02-20T10:34:52Z</time>
      </trkpt>
      <trkpt lat="43.59108" lon="-0.00224">
        <ele>135</ele>
        <time>2021-02-20T10:35:12Z</time>
      </trkpt>
      <trkpt lat="43.59108" lon="-0.00215">
        <ele>135</ele>
        <time>2021-02-20T10:35:23Z</time>
      </trkpt>
      <trkpt lat="43.59115" lon="-0.00202">
        <ele>134</ele>
        <time>2021-02-20T10:35:37Z</time>
      </trkpt>
      <trkpt lat="43.59125" lon="-0.00177">
        <ele>135</ele>
        <time>2021-02-20T10:35:47Z</time>
      </trkpt>
      <trkpt lat="43.59126" lon="-0.0017">
        <ele>135</ele>
        <time>2021-02-20T10:35:50Z</time>
      </trkpt>
      <trkpt lat="43.59125" lon="-0.00156">
        <ele>135</ele>
        <time>2021-02-20T10:35:55Z</time>
      </trkpt>
      <trkpt lat="43.59116" lon="-0.00143">
        <ele>136</ele>
        <time>2021-02-20T10:36:02Z</time>
      </trkpt>
      <trkpt lat="43.59112" lon="-0.00139">
        <ele>136</ele>
        <time>2021-02-20T10:36:05Z</time>
      </trkpt>
      <trkpt lat="43.59109" lon="-0.00133">
        <ele>136</ele>
        <time>2021-02-20T10:36:11Z</time>
      </trkpt>
      <trkpt lat="43.59101" lon="-0.00127">
        <ele>136</ele>
        <time>2021-02-20T10:36:19Z</time>
      </trkpt>
      <trkpt lat="43.59093" lon="-0.00126">
        <ele>136</ele>
        <time>2021-02-20T10:36:25Z</time>
      </trkpt>
      <trkpt lat="43.59084" lon="-0.00121">
        <ele>136</ele>
        <time>2021-02-20T10:36:31Z</time>
      </trkpt>
      <trkpt lat="43.5908" lon="-0.0012">
        <ele>137</ele>
        <time>2021-02-20T10:36:34Z</time>
      </trkpt>
      <trkpt lat="43.59076" lon="-0.00116">
        <ele>137</ele>
        <time>2021-02-20T10:36:38Z</time>
      </trkpt>
      <trkpt lat="43.59072" lon="-0.00115">
        <ele>137</ele>
        <time>2021-02-20T10:36:41Z</time>
      </trkpt>
      <trkpt lat="43.59069" lon="-0.00111">
        <ele>137</ele>
        <time>2021-02-20T10:36:44Z</time>
      </trkpt>
      <trkpt lat="43.59065" lon="-0.00109">
        <ele>137</ele>
        <time>2021-02-20T10:36:47Z</time>
      </trkpt>
      <trkpt lat="43.59063" lon="-0.00105">
        <ele>137</ele>
        <time>2021-02-20T10:36:50Z</time>
      </trkpt>
      <trkpt lat="43.59059" lon="-0.00102">
        <ele>137</ele>
        <time>2021-02-20T10:36:54Z</time>
      </trkpt>
      <trkpt lat="43.59054" lon="-0.00095">
        <ele>137</ele>
        <time>2021-02-20T10:37:01Z</time>
      </trkpt>
      <trkpt lat="43.5905" lon="-0.00091">
        <ele>137</ele>
        <time>2021-02-20T10:37:05Z</time>
      </trkpt>
      <trkpt lat="43.59047" lon="-0.00087">
        <ele>137</ele>
        <time>2021-02-20T10:37:09Z</time>
      </trkpt>
      <trkpt lat="43.59045" lon="-0.00083">
        <ele>137</ele>
        <time>2021-02-20T10:37:12Z</time>
      </trkpt>
      <trkpt lat="43.59045" lon="-0.00076">
        <ele>137</ele>
        <time>2021-02-20T10:37:16Z</time>
      </trkpt>
      <trkpt lat="43.59039" lon="-0.00062">
        <ele>137</ele>
        <time>2021-02-20T10:37:26Z</time>
      </trkpt>
      <trkpt lat="43.59039" lon="-0.00056">
        <ele>137</ele>
        <time>2021-02-20T10:37:30Z</time>
      </trkpt>
      <trkpt lat="43.5904" lon="-0.00051">
        <ele>137</ele>
        <time>2021-02-20T10:37:34Z</time>
      </trkpt>
      <trkpt lat="43.59037" lon="-0.00043">
        <ele>137</ele>
        <time>2021-02-20T10:37:40Z</time>
      </trkpt>
      <trkpt lat="43.59035" lon="-0.00035">
        <ele>137</ele>
        <time>2021-02-20T10:37:46Z</time>
      </trkpt>
      <trkpt lat="43.59034" lon="-0.0002">
        <ele>136</ele>
        <time>2021-02-20T10:37:55Z</time>
      </trkpt>
      <trkpt lat="43.59026" lon="5.0E-5">
        <ele>136</ele>
        <time>2021-02-20T10:38:11Z</time>
      </trkpt>
      <trkpt lat="43.59023" lon="0.00022">
        <ele>137</ele>
        <time>2021-02-20T10:38:20Z</time>
      </trkpt>
      <trkpt lat="43.59025" lon="0.0003">
        <ele>137</ele>
        <time>2021-02-20T10:38:25Z</time>
      </trkpt>
      <trkpt lat="43.59031" lon="0.00039">
        <ele>137</ele>
        <time>2021-02-20T10:38:27Z</time>
      </trkpt>
      <trkpt lat="43.59033" lon="0.00044">
        <ele>137</ele>
        <time>2021-02-20T10:38:30Z</time>
      </trkpt>
      <trkpt lat="43.59031" lon="0.00059">
        <ele>137</ele>
        <time>2021-02-20T10:38:37Z</time>
      </trkpt>
      <trkpt lat="43.59026" lon="0.00064">
        <ele>137</ele>
        <time>2021-02-20T10:38:43Z</time>
      </trkpt>
      <trkpt lat="43.5902" lon="0.00069">
        <ele>137</ele>
        <time>2021-02-20T10:38:49Z</time>
      </trkpt>
      <trkpt lat="43.59018" lon="0.00075">
        <ele>137</ele>
        <time>2021-02-20T10:38:52Z</time>
      </trkpt>
      <trkpt lat="43.59014" lon="0.00077">
        <ele>136</ele>
        <time>2021-02-20T10:38:55Z</time>
      </trkpt>
      <trkpt lat="43.59011" lon="0.00082">
        <ele>136</ele>
        <time>2021-02-20T10:38:58Z</time>
      </trkpt>
      <trkpt lat="43.59007" lon="0.00084">
        <ele>136</ele>
        <time>2021-02-20T10:39:01Z</time>
      </trkpt>
      <trkpt lat="43.59004" lon="0.00087">
        <ele>137</ele>
        <time>2021-02-20T10:39:04Z</time>
      </trkpt>
      <trkpt lat="43.59" lon="0.00086">
        <ele>137</ele>
        <time>2021-02-20T10:39:06Z</time>
      </trkpt>
      <trkpt lat="43.58996" lon="0.00089">
        <ele>137</ele>
        <time>2021-02-20T10:39:08Z</time>
      </trkpt>
      <trkpt lat="43.58987" lon="0.00101">
        <ele>137</ele>
        <time>2021-02-20T10:39:16Z</time>
      </trkpt>
      <trkpt lat="43.58983" lon="0.00102">
        <ele>137</ele>
        <time>2021-02-20T10:39:19Z</time>
      </trkpt>
      <trkpt lat="43.5898" lon="0.00106">
        <ele>137</ele>
        <time>2021-02-20T10:39:22Z</time>
      </trkpt>
      <trkpt lat="43.58976" lon="0.00108">
        <ele>137</ele>
        <time>2021-02-20T10:39:25Z</time>
      </trkpt>
      <trkpt lat="43.58971" lon="0.00114">
        <ele>137</ele>
        <time>2021-02-20T10:39:31Z</time>
      </trkpt>
      <trkpt lat="43.5897" lon="0.00118">
        <ele>136</ele>
        <time>2021-02-20T10:39:34Z</time>
      </trkpt>
      <trkpt lat="43.58964" lon="0.00125">
        <ele>137</ele>
        <time>2021-02-20T10:39:40Z</time>
      </trkpt>
      <trkpt lat="43.5896" lon="0.00125">
        <ele>137</ele>
        <time>2021-02-20T10:39:43Z</time>
      </trkpt>
      <trkpt lat="43.58956" lon="0.00128">
        <ele>137</ele>
        <time>2021-02-20T10:39:50Z</time>
      </trkpt>
      <trkpt lat="43.58952" lon="0.00133">
        <ele>137</ele>
        <time>2021-02-20T10:39:53Z</time>
      </trkpt>
      <trkpt lat="43.58951" lon="0.00138">
        <ele>137</ele>
        <time>2021-02-20T10:39:56Z</time>
      </trkpt>
      <trkpt lat="43.58932" lon="0.00161">
        <ele>137</ele>
        <time>2021-02-20T10:40:16Z</time>
      </trkpt>
      <trkpt lat="43.58924" lon="0.00166">
        <ele>137</ele>
        <time>2021-02-20T10:40:23Z</time>
      </trkpt>
      <trkpt lat="43.58921" lon="0.00169">
        <ele>137</ele>
        <time>2021-02-20T10:40:26Z</time>
      </trkpt>
      <trkpt lat="43.58919" lon="0.00175">
        <ele>137</ele>
        <time>2021-02-20T10:40:29Z</time>
      </trkpt>
      <trkpt lat="43.58912" lon="0.00183">
        <ele>137</ele>
        <time>2021-02-20T10:40:36Z</time>
      </trkpt>
      <trkpt lat="43.58905" lon="0.00186">
        <ele>137</ele>
        <time>2021-02-20T10:40:40Z</time>
      </trkpt>
      <trkpt lat="43.58899" lon="0.00195">
        <ele>137</ele>
        <time>2021-02-20T10:40:49Z</time>
      </trkpt>
      <trkpt lat="43.58887" lon="0.00203">
        <ele>137</ele>
        <time>2021-02-20T10:40:59Z</time>
      </trkpt>
      <trkpt lat="43.58878" lon="0.00212">
        <ele>137</ele>
        <time>2021-02-20T10:41:07Z</time>
      </trkpt>
      <trkpt lat="43.58876" lon="0.00218">
        <ele>137</ele>
        <time>2021-02-20T10:41:12Z</time>
      </trkpt>
      <trkpt lat="43.58872" lon="0.00221">
        <ele>137</ele>
        <time>2021-02-20T10:41:16Z</time>
      </trkpt>
      <trkpt lat="43.58867" lon="0.00222">
        <ele>137</ele>
        <time>2021-02-20T10:41:19Z</time>
      </trkpt>
      <trkpt lat="43.58863" lon="0.00225">
        <ele>137</ele>
        <time>2021-02-20T10:41:22Z</time>
      </trkpt>
      <trkpt lat="43.58859" lon="0.00225">
        <ele>138</ele>
        <time>2021-02-20T10:41:26Z</time>
      </trkpt>
      <trkpt lat="43.58856" lon="0.00232">
        <ele>138</ele>
        <time>2021-02-20T10:41:32Z</time>
      </trkpt>
      <trkpt lat="43.58853" lon="0.00225">
        <ele>138</ele>
        <time>2021-02-20T10:41:38Z</time>
      </trkpt>
      <trkpt lat="43.5885" lon="0.00219">
        <ele>138</ele>
        <time>2021-02-20T10:41:45Z</time>
      </trkpt>
      <trkpt lat="43.58839" lon="0.00176">
        <ele>138</ele>
        <time>2021-02-20T10:42:11Z</time>
      </trkpt>
      <trkpt lat="43.58837" lon="0.00172">
        <ele>138</ele>
        <time>2021-02-20T10:42:14Z</time>
      </trkpt>
      <trkpt lat="43.58834" lon="0.0016">
        <ele>138</ele>
        <time>2021-02-20T10:42:21Z</time>
      </trkpt>
      <trkpt lat="43.58828" lon="0.00147">
        <ele>137</ele>
        <time>2021-02-20T10:42:31Z</time>
      </trkpt>
      <trkpt lat="43.58827" lon="0.00142">
        <ele>137</ele>
        <time>2021-02-20T10:42:34Z</time>
      </trkpt>
      <trkpt lat="43.58823" lon="0.00131">
        <ele>137</ele>
        <time>2021-02-20T10:42:42Z</time>
      </trkpt>
      <trkpt lat="43.58822" lon="0.00127">
        <ele>137</ele>
        <time>2021-02-20T10:42:45Z</time>
      </trkpt>
      <trkpt lat="43.58819" lon="0.00118">
        <ele>137</ele>
        <time>2021-02-20T10:42:52Z</time>
      </trkpt>
      <trkpt lat="43.58816" lon="0.00107">
        <ele>137</ele>
        <time>2021-02-20T10:42:56Z</time>
      </trkpt>
      <trkpt lat="43.5881" lon="0.00102">
        <ele>136</ele>
        <time>2021-02-20T10:43:02Z</time>
      </trkpt>
      <trkpt lat="43.58801" lon="0.00099">
        <ele>136</ele>
        <time>2021-02-20T10:43:08Z</time>
      </trkpt>
      <trkpt lat="43.58798" lon="0.001">
        <ele>136</ele>
        <time>2021-02-20T10:43:10Z</time>
      </trkpt>
      <trkpt lat="43.58773" lon="0.00091">
        <ele>136</ele>
        <time>2021-02-20T10:43:29Z</time>
      </trkpt>
      <trkpt lat="43.58763" lon="0.00092">
        <ele>137</ele>
        <time>2021-02-20T10:43:35Z</time>
      </trkpt>
      <trkpt lat="43.58759" lon="0.00091">
        <ele>137</ele>
        <time>2021-02-20T10:43:38Z</time>
      </trkpt>
      <trkpt lat="43.5872" lon="0.00095">
        <ele>135</ele>
        <time>2021-02-20T10:44:08Z</time>
      </trkpt>
      <trkpt lat="43.58708" lon="0.00095">
        <ele>135</ele>
        <time>2021-02-20T10:44:16Z</time>
      </trkpt>
      <trkpt lat="43.58695" lon="0.00092">
        <ele>135</ele>
        <time>2021-02-20T10:44:26Z</time>
      </trkpt>
      <trkpt lat="43.58675" lon="0.00096">
        <ele>135</ele>
        <time>2021-02-20T10:44:44Z</time>
      </trkpt>
      <trkpt lat="43.58671" lon="0.00094">
        <ele>135</ele>
        <time>2021-02-20T10:44:48Z</time>
      </trkpt>
      <trkpt lat="43.58662" lon="0.00094">
        <ele>136</ele>
        <time>2021-02-20T10:44:55Z</time>
      </trkpt>
      <trkpt lat="43.58631" lon="0.00081">
        <ele>135</ele>
        <time>2021-02-20T10:45:20Z</time>
      </trkpt>
      <trkpt lat="43.58627" lon="0.00081">
        <ele>135</ele>
        <time>2021-02-20T10:45:22Z</time>
      </trkpt>
      <trkpt lat="43.58623" lon="0.00078">
        <ele>136</ele>
        <time>2021-02-20T10:45:26Z</time>
      </trkpt>
      <trkpt lat="43.58618" lon="0.00078">
        <ele>136</ele>
        <time>2021-02-20T10:45:30Z</time>
      </trkpt>
      <trkpt lat="43.58615" lon="0.00075">
        <ele>137</ele>
        <time>2021-02-20T10:45:34Z</time>
      </trkpt>
      <trkpt lat="43.58605" lon="0.00072">
        <ele>137</ele>
        <time>2021-02-20T10:45:44Z</time>
      </trkpt>
      <trkpt lat="43.586" lon="0.00071">
        <ele>137</ele>
        <time>2021-02-20T10:45:50Z</time>
      </trkpt>
      <trkpt lat="43.58592" lon="0.00061">
        <ele>137</ele>
        <time>2021-02-20T10:45:58Z</time>
      </trkpt>
      <trkpt lat="43.58587" lon="0.00053">
        <ele>137</ele>
        <time>2021-02-20T10:46:05Z</time>
      </trkpt>
      <trkpt lat="43.58584" lon="0.0005">
        <ele>137</ele>
        <time>2021-02-20T10:46:08Z</time>
      </trkpt>
      <trkpt lat="43.58578" lon="0.00039">
        <ele>137</ele>
        <time>2021-02-20T10:46:17Z</time>
      </trkpt>
      <trkpt lat="43.58574" lon="0.00035">
        <ele>137</ele>
        <time>2021-02-20T10:46:21Z</time>
      </trkpt>
      <trkpt lat="43.58567" lon="0.00035">
        <ele>137</ele>
        <time>2021-02-20T10:46:30Z</time>
      </trkpt>
      <trkpt lat="43.58562" lon="0.00039">
        <ele>137</ele>
        <time>2021-02-20T10:46:35Z</time>
      </trkpt>
      <trkpt lat="43.58559" lon="0.00046">
        <ele>137</ele>
        <time>2021-02-20T10:46:40Z</time>
      </trkpt>
      <trkpt lat="43.58557" lon="0.00052">
        <ele>137</ele>
        <time>2021-02-20T10:46:43Z</time>
      </trkpt>
      <trkpt lat="43.58553" lon="0.00057">
        <ele>137</ele>
        <time>2021-02-20T10:46:46Z</time>
      </trkpt>
      <trkpt lat="43.58552" lon="0.00062">
        <ele>137</ele>
        <time>2021-02-20T10:46:49Z</time>
      </trkpt>
      <trkpt lat="43.58549" lon="0.00065">
        <ele>137</ele>
        <time>2021-02-20T10:46:52Z</time>
      </trkpt>
      <trkpt lat="43.5854" lon="0.00065">
        <ele>137</ele>
        <time>2021-02-20T10:46:58Z</time>
      </trkpt>
      <trkpt lat="43.58512" lon="0.00057">
        <ele>137</ele>
        <time>2021-02-20T10:47:21Z</time>
      </trkpt>
      <trkpt lat="43.5851" lon="0.00054">
        <ele>137</ele>
        <time>2021-02-20T10:47:24Z</time>
      </trkpt>
      <trkpt lat="43.58502" lon="0.0005">
        <ele>138</ele>
        <time>2021-02-20T10:47:31Z</time>
      </trkpt>
      <trkpt lat="43.5848" lon="0.00032">
        <ele>138</ele>
        <time>2021-02-20T10:47:50Z</time>
      </trkpt>
      <trkpt lat="43.58477" lon="0.00028">
        <ele>138</ele>
        <time>2021-02-20T10:47:53Z</time>
      </trkpt>
      <trkpt lat="43.58473" lon="0.00027">
        <ele>138</ele>
        <time>2021-02-20T10:47:57Z</time>
      </trkpt>
      <trkpt lat="43.58468" lon="0.00026">
        <ele>138</ele>
        <time>2021-02-20T10:48:01Z</time>
      </trkpt>
      <trkpt lat="43.58465" lon="0.00023">
        <ele>138</ele>
        <time>2021-02-20T10:48:04Z</time>
      </trkpt>
      <trkpt lat="43.58445" lon="0.00012">
        <ele>138</ele>
        <time>2021-02-20T10:48:19Z</time>
      </trkpt>
      <trkpt lat="43.58441" lon="0.00013">
        <ele>138</ele>
        <time>2021-02-20T10:48:22Z</time>
      </trkpt>
      <trkpt lat="43.58437" lon="0.0001">
        <ele>138</ele>
        <time>2021-02-20T10:48:25Z</time>
      </trkpt>
      <trkpt lat="43.58433" lon="9.0E-5">
        <ele>138</ele>
        <time>2021-02-20T10:48:28Z</time>
      </trkpt>
      <trkpt lat="43.58429" lon="7.0E-5">
        <ele>138</ele>
        <time>2021-02-20T10:48:31Z</time>
      </trkpt>
      <trkpt lat="43.58423" lon="6.0E-5">
        <ele>138</ele>
        <time>2021-02-20T10:48:36Z</time>
      </trkpt>
      <trkpt lat="43.5841" lon="-1.0E-5">
        <ele>138</ele>
        <time>2021-02-20T10:48:47Z</time>
      </trkpt>
      <trkpt lat="43.58393" lon="-0.00018">
        <ele>138</ele>
        <time>2021-02-20T10:49:05Z</time>
      </trkpt>
      <trkpt lat="43.58388" lon="-0.00023">
        <ele>138</ele>
        <time>2021-02-20T10:49:12Z</time>
      </trkpt>
      <trkpt lat="43.58376" lon="-0.00029">
        <ele>137</ele>
        <time>2021-02-20T10:49:20Z</time>
      </trkpt>
      <trkpt lat="43.58364" lon="-0.00032">
        <ele>137</ele>
        <time>2021-02-20T10:49:30Z</time>
      </trkpt>
      <trkpt lat="43.58361" lon="-0.00035">
        <ele>137</ele>
        <time>2021-02-20T10:49:34Z</time>
      </trkpt>
      <trkpt lat="43.58352" lon="-0.00036">
        <ele>137</ele>
        <time>2021-02-20T10:49:40Z</time>
      </trkpt>
      <trkpt lat="43.58344" lon="-0.00042">
        <ele>137</ele>
        <time>2021-02-20T10:49:46Z</time>
      </trkpt>
      <trkpt lat="43.58339" lon="-0.00042">
        <ele>137</ele>
        <time>2021-02-20T10:49:49Z</time>
      </trkpt>
      <trkpt lat="43.58336" lon="-0.0004">
        <ele>138</ele>
        <time>2021-02-20T10:49:53Z</time>
      </trkpt>
      <trkpt lat="43.58331" lon="-0.00044">
        <ele>138</ele>
        <time>2021-02-20T10:49:59Z</time>
      </trkpt>
      <trkpt lat="43.58326" lon="-0.00045">
        <ele>138</ele>
        <time>2021-02-20T10:50:02Z</time>
      </trkpt>
      <trkpt lat="43.5832" lon="-0.00052">
        <ele>138</ele>
        <time>2021-02-20T10:50:08Z</time>
      </trkpt>
      <trkpt lat="43.58308" lon="-0.00056">
        <ele>138</ele>
        <time>2021-02-20T10:50:17Z</time>
      </trkpt>
      <trkpt lat="43.58274" lon="-0.00055">
        <ele>138</ele>
        <time>2021-02-20T10:50:44Z</time>
      </trkpt>
      <trkpt lat="43.58272" lon="-0.00051">
        <ele>138</ele>
        <time>2021-02-20T10:50:47Z</time>
      </trkpt>
      <trkpt lat="43.58265" lon="-0.00046">
        <ele>138</ele>
        <time>2021-02-20T10:51:22Z</time>
      </trkpt>
      <trkpt lat="43.58258" lon="-0.00039">
        <ele>138</ele>
        <time>2021-02-20T10:51:30Z</time>
      </trkpt>
      <trkpt lat="43.58257" lon="-0.00034">
        <ele>138</ele>
        <time>2021-02-20T10:51:34Z</time>
      </trkpt>
      <trkpt lat="43.58251" lon="-0.0003">
        <ele>138</ele>
        <time>2021-02-20T10:51:40Z</time>
      </trkpt>
      <trkpt lat="43.58247" lon="-0.00025">
        <ele>139</ele>
        <time>2021-02-20T10:51:48Z</time>
      </trkpt>
      <trkpt lat="43.58239" lon="-0.00026">
        <ele>139</ele>
        <time>2021-02-20T10:53:53Z</time>
      </trkpt>
      <trkpt lat="43.58235" lon="-0.00036">
        <ele>139</ele>
        <time>2021-02-20T10:53:58Z</time>
      </trkpt>
      <trkpt lat="43.5823" lon="-0.00042">
        <ele>139</ele>
        <time>2021-02-20T10:54:01Z</time>
      </trkpt>
      <trkpt lat="43.58212" lon="-0.00075">
        <ele>140</ele>
        <time>2021-02-20T10:54:35Z</time>
      </trkpt>
      <trkpt lat="43.58205" lon="-0.00092">
        <ele>140</ele>
        <time>2021-02-20T10:55:01Z</time>
      </trkpt>
      <trkpt lat="43.58205" lon="-0.00097">
        <ele>140</ele>
        <time>2021-02-20T10:55:05Z</time>
      </trkpt>
      <trkpt lat="43.58202" lon="-0.00104">
        <ele>140</ele>
        <time>2021-02-20T10:55:11Z</time>
      </trkpt>
      <trkpt lat="43.58199" lon="-0.00116">
        <ele>139</ele>
        <time>2021-02-20T10:55:18Z</time>
      </trkpt>
      <trkpt lat="43.58195" lon="-0.00123">
        <ele>139</ele>
        <time>2021-02-20T10:55:24Z</time>
      </trkpt>
      <trkpt lat="43.58192" lon="-0.00127">
        <ele>139</ele>
        <time>2021-02-20T10:55:27Z</time>
      </trkpt>
      <trkpt lat="43.58174" lon="-0.0017">
        <ele>139</ele>
        <time>2021-02-20T10:55:58Z</time>
      </trkpt>
      <trkpt lat="43.58172" lon="-0.00178">
        <ele>139</ele>
        <time>2021-02-20T10:56:03Z</time>
      </trkpt>
      <trkpt lat="43.58156" lon="-0.00192">
        <ele>138</ele>
        <time>2021-02-20T10:56:19Z</time>
      </trkpt>
      <trkpt lat="43.58133" lon="-0.00199">
        <ele>138</ele>
        <time>2021-02-20T10:56:37Z</time>
      </trkpt>
      <trkpt lat="43.58129" lon="-0.00203">
        <ele>138</ele>
        <time>2021-02-20T10:56:39Z</time>
      </trkpt>
      <trkpt lat="43.58117" lon="-0.00207">
        <ele>138</ele>
        <time>2021-02-20T10:56:49Z</time>
      </trkpt>
      <trkpt lat="43.58111" lon="-0.0021">
        <ele>138</ele>
        <time>2021-02-20T10:56:53Z</time>
      </trkpt>
      <trkpt lat="43.58108" lon="-0.00213">
        <ele>138</ele>
        <time>2021-02-20T10:56:56Z</time>
      </trkpt>
      <trkpt lat="43.58101" lon="-0.00213">
        <ele>138</ele>
        <time>2021-02-20T10:57:00Z</time>
      </trkpt>
      <trkpt lat="43.58095" lon="-0.00217">
        <ele>138</ele>
        <time>2021-02-20T10:57:05Z</time>
      </trkpt>
      <trkpt lat="43.58091" lon="-0.00216">
        <ele>138</ele>
        <time>2021-02-20T10:57:08Z</time>
      </trkpt>
      <trkpt lat="43.58084" lon="-0.00223">
        <ele>138</ele>
        <time>2021-02-20T10:57:14Z</time>
      </trkpt>
      <trkpt lat="43.58079" lon="-0.00223">
        <ele>138</ele>
        <time>2021-02-20T10:57:21Z</time>
      </trkpt>
      <trkpt lat="43.58065" lon="-0.00216">
        <ele>138</ele>
        <time>2021-02-20T10:57:31Z</time>
      </trkpt>
      <trkpt lat="43.58055" lon="-0.00207">
        <ele>138</ele>
        <time>2021-02-20T10:57:40Z</time>
      </trkpt>
      <trkpt lat="43.58048" lon="-0.00201">
        <ele>138</ele>
        <time>2021-02-20T10:57:45Z</time>
      </trkpt>
      <trkpt lat="43.58045" lon="-0.00198">
        <ele>138</ele>
        <time>2021-02-20T10:57:48Z</time>
      </trkpt>
      <trkpt lat="43.58032" lon="-0.00191">
        <ele>138</ele>
        <time>2021-02-20T10:57:58Z</time>
      </trkpt>
      <trkpt lat="43.58024" lon="-0.00183">
        <ele>138</ele>
        <time>2021-02-20T10:58:05Z</time>
      </trkpt>
      <trkpt lat="43.58021" lon="-0.00182">
        <ele>138</ele>
        <time>2021-02-20T10:58:08Z</time>
      </trkpt>
      <trkpt lat="43.58017" lon="-0.00179">
        <ele>138</ele>
        <time>2021-02-20T10:58:11Z</time>
      </trkpt>
      <trkpt lat="43.58009" lon="-0.00177">
        <ele>137</ele>
        <time>2021-02-20T10:58:17Z</time>
      </trkpt>
      <trkpt lat="43.58006" lon="-0.00174">
        <ele>137</ele>
        <time>2021-02-20T10:58:20Z</time>
      </trkpt>
      <trkpt lat="43.58001" lon="-0.00174">
        <ele>137</ele>
        <time>2021-02-20T10:58:24Z</time>
      </trkpt>
      <trkpt lat="43.57997" lon="-0.00172">
        <ele>137</ele>
        <time>2021-02-20T10:58:28Z</time>
      </trkpt>
      <trkpt lat="43.57993" lon="-0.00171">
        <ele>137</ele>
        <time>2021-02-20T10:58:32Z</time>
      </trkpt>
      <trkpt lat="43.57978" lon="-0.00172">
        <ele>137</ele>
        <time>2021-02-20T10:58:44Z</time>
      </trkpt>
      <trkpt lat="43.57973" lon="-0.00174">
        <ele>137</ele>
        <time>2021-02-20T10:58:47Z</time>
      </trkpt>
      <trkpt lat="43.57966" lon="-0.00172">
        <ele>137</ele>
        <time>2021-02-20T10:58:52Z</time>
      </trkpt>
      <trkpt lat="43.57958" lon="-0.00174">
        <ele>138</ele>
        <time>2021-02-20T10:58:59Z</time>
      </trkpt>
      <trkpt lat="43.57949" lon="-0.00172">
        <ele>138</ele>
        <time>2021-02-20T10:59:08Z</time>
      </trkpt>
      <trkpt lat="43.5794" lon="-0.00166">
        <ele>138</ele>
        <time>2021-02-20T10:59:19Z</time>
      </trkpt>
      <trkpt lat="43.57938" lon="-0.00162">
        <ele>138</ele>
        <time>2021-02-20T10:59:23Z</time>
      </trkpt>
      <trkpt lat="43.57934" lon="-0.00155">
        <ele>138</ele>
        <time>2021-02-20T10:59:29Z</time>
      </trkpt>
      <trkpt lat="43.57931" lon="-0.0015">
        <ele>138</ele>
        <time>2021-02-20T10:59:35Z</time>
      </trkpt>
      <trkpt lat="43.57927" lon="-0.00139">
        <ele>138</ele>
        <time>2021-02-20T10:59:42Z</time>
      </trkpt>
      <trkpt lat="43.57925" lon="-0.00134">
        <ele>138</ele>
        <time>2021-02-20T10:59:44Z</time>
      </trkpt>
      <trkpt lat="43.57925" lon="-0.00122">
        <ele>138</ele>
        <time>2021-02-20T10:59:51Z</time>
      </trkpt>
      <trkpt lat="43.57922" lon="-0.00118">
        <ele>138</ele>
        <time>2021-02-20T10:59:54Z</time>
      </trkpt>
      <trkpt lat="43.57918" lon="-0.00115">
        <ele>138</ele>
        <time>2021-02-20T10:59:58Z</time>
      </trkpt>
      <trkpt lat="43.57915" lon="-0.00111">
        <ele>138</ele>
        <time>2021-02-20T11:00:01Z</time>
      </trkpt>
      <trkpt lat="43.57912" lon="-0.00105">
        <ele>138</ele>
        <time>2021-02-20T11:00:07Z</time>
      </trkpt>
      <trkpt lat="43.57909" lon="-0.00094">
        <ele>138</ele>
        <time>2021-02-20T11:00:17Z</time>
      </trkpt>
      <trkpt lat="43.57903" lon="-0.00086">
        <ele>138</ele>
        <time>2021-02-20T11:00:23Z</time>
      </trkpt>
      <trkpt lat="43.57902" lon="-0.0008">
        <ele>138</ele>
        <time>2021-02-20T11:00:25Z</time>
      </trkpt>
      <trkpt lat="43.57902" lon="-0.00074">
        <ele>138</ele>
        <time>2021-02-20T11:00:27Z</time>
      </trkpt>
      <trkpt lat="43.579" lon="-0.0007">
        <ele>138</ele>
        <time>2021-02-20T11:00:30Z</time>
      </trkpt>
      <trkpt lat="43.579" lon="-0.00064">
        <ele>138</ele>
        <time>2021-02-20T11:00:33Z</time>
      </trkpt>
      <trkpt lat="43.57892" lon="-0.00057">
        <ele>138</ele>
        <time>2021-02-20T11:00:41Z</time>
      </trkpt>
      <trkpt lat="43.57888" lon="-0.00055">
        <ele>138</ele>
        <time>2021-02-20T11:00:44Z</time>
      </trkpt>
      <trkpt lat="43.57884" lon="-0.00055">
        <ele>138</ele>
        <time>2021-02-20T11:00:47Z</time>
      </trkpt>
      <trkpt lat="43.57872" lon="-0.00048">
        <ele>138</ele>
        <time>2021-02-20T11:00:55Z</time>
      </trkpt>
      <trkpt lat="43.57868" lon="-0.00047">
        <ele>138</ele>
        <time>2021-02-20T11:00:57Z</time>
      </trkpt>
      <trkpt lat="43.57855" lon="-0.00048">
        <ele>138</ele>
        <time>2021-02-20T11:01:07Z</time>
      </trkpt>
      <trkpt lat="43.57851" lon="-0.0005">
        <ele>138</ele>
        <time>2021-02-20T11:01:11Z</time>
      </trkpt>
      <trkpt lat="43.57845" lon="-0.00057">
        <ele>139</ele>
        <time>2021-02-20T11:01:19Z</time>
      </trkpt>
      <trkpt lat="43.57847" lon="-0.0008">
        <ele>138</ele>
        <time>2021-02-20T11:01:37Z</time>
      </trkpt>
      <trkpt lat="43.57851" lon="-0.00096">
        <ele>138</ele>
        <time>2021-02-20T11:01:43Z</time>
      </trkpt>
      <trkpt lat="43.57851" lon="-0.00105">
        <ele>138</ele>
        <time>2021-02-20T11:01:48Z</time>
      </trkpt>
      <trkpt lat="43.57849" lon="-0.00116">
        <ele>138</ele>
        <time>2021-02-20T11:01:53Z</time>
      </trkpt>
      <trkpt lat="43.57847" lon="-0.00122">
        <ele>138</ele>
        <time>2021-02-20T11:01:57Z</time>
      </trkpt>
      <trkpt lat="43.57846" lon="-0.00127">
        <ele>138</ele>
        <time>2021-02-20T11:01:59Z</time>
      </trkpt>
      <trkpt lat="43.57839" lon="-0.00136">
        <ele>138</ele>
        <time>2021-02-20T11:02:06Z</time>
      </trkpt>
      <trkpt lat="43.57836" lon="-0.00147">
        <ele>139</ele>
        <time>2021-02-20T11:02:12Z</time>
      </trkpt>
      <trkpt lat="43.57832" lon="-0.00148">
        <ele>139</ele>
        <time>2021-02-20T11:02:15Z</time>
      </trkpt>
      <trkpt lat="43.57829" lon="-0.00152">
        <ele>138</ele>
        <time>2021-02-20T11:02:18Z</time>
      </trkpt>
      <trkpt lat="43.57826" lon="-0.00155">
        <ele>138</ele>
        <time>2021-02-20T11:02:21Z</time>
      </trkpt>
      <trkpt lat="43.57822" lon="-0.00163">
        <ele>139</ele>
        <time>2021-02-20T11:02:28Z</time>
      </trkpt>
      <trkpt lat="43.57818" lon="-0.00167">
        <ele>139</ele>
        <time>2021-02-20T11:02:31Z</time>
      </trkpt>
      <trkpt lat="43.57806" lon="-0.00166">
        <ele>139</ele>
        <time>2021-02-20T11:02:45Z</time>
      </trkpt>
      <trkpt lat="43.57802" lon="-0.00163">
        <ele>139</ele>
        <time>2021-02-20T11:02:47Z</time>
      </trkpt>
      <trkpt lat="43.57795" lon="-0.0016">
        <ele>139</ele>
        <time>2021-02-20T11:02:52Z</time>
      </trkpt>
      <trkpt lat="43.57794" lon="-0.00155">
        <ele>140</ele>
        <time>2021-02-20T11:02:55Z</time>
      </trkpt>
      <trkpt lat="43.57791" lon="-0.00153">
        <ele>140</ele>
        <time>2021-02-20T11:02:59Z</time>
      </trkpt>
      <trkpt lat="43.57782" lon="-0.00142">
        <ele>140</ele>
        <time>2021-02-20T11:03:08Z</time>
      </trkpt>
      <trkpt lat="43.57775" lon="-0.00141">
        <ele>140</ele>
        <time>2021-02-20T11:03:13Z</time>
      </trkpt>
      <trkpt lat="43.57771" lon="-0.00143">
        <ele>139</ele>
        <time>2021-02-20T11:03:17Z</time>
      </trkpt>
      <trkpt lat="43.57766" lon="-0.00142">
        <ele>139</ele>
        <time>2021-02-20T11:03:20Z</time>
      </trkpt>
      <trkpt lat="43.57762" lon="-0.00143">
        <ele>140</ele>
        <time>2021-02-20T11:03:24Z</time>
      </trkpt>
      <trkpt lat="43.57758" lon="-0.00147">
        <ele>140</ele>
        <time>2021-02-20T11:03:28Z</time>
      </trkpt>
      <trkpt lat="43.57754" lon="-0.00144">
        <ele>139</ele>
        <time>2021-02-20T11:03:35Z</time>
      </trkpt>
      <trkpt lat="43.57751" lon="-0.0014">
        <ele>139</ele>
        <time>2021-02-20T11:03:40Z</time>
      </trkpt>
      <trkpt lat="43.57749" lon="-0.0013">
        <ele>137</ele>
        <time>2021-02-20T11:03:48Z</time>
      </trkpt>
      <trkpt lat="43.57747" lon="-0.00118">
        <ele>137</ele>
        <time>2021-02-20T11:03:53Z</time>
      </trkpt>
      <trkpt lat="43.57743" lon="-0.00114">
        <ele>137</ele>
        <time>2021-02-20T11:03:56Z</time>
      </trkpt>
      <trkpt lat="43.57739" lon="-0.00112">
        <ele>137</ele>
        <time>2021-02-20T11:04:14Z</time>
      </trkpt>
      <trkpt lat="43.57734" lon="-0.00109">
        <ele>136</ele>
        <time>2021-02-20T11:04:29Z</time>
      </trkpt>
      <trkpt lat="43.57728" lon="-0.00115">
        <ele>138</ele>
        <time>2021-02-20T11:04:49Z</time>
      </trkpt>
      <trkpt lat="43.57715" lon="-0.00126">
        <ele>138</ele>
        <time>2021-02-20T11:05:30Z</time>
      </trkpt>
      <trkpt lat="43.57709" lon="-0.00136">
        <ele>138</ele>
        <time>2021-02-20T11:05:46Z</time>
      </trkpt>
      <trkpt lat="43.57703" lon="-0.00142">
        <ele>138</ele>
        <time>2021-02-20T11:05:53Z</time>
      </trkpt>
      <trkpt lat="43.57691" lon="-0.00171">
        <ele>138</ele>
        <time>2021-02-20T11:06:13Z</time>
      </trkpt>
      <trkpt lat="43.57691" lon="-0.0019">
        <ele>137</ele>
        <time>2021-02-20T11:06:20Z</time>
      </trkpt>
      <trkpt lat="43.57687" lon="-0.00197">
        <ele>137</ele>
        <time>2021-02-20T11:06:27Z</time>
      </trkpt>
      <trkpt lat="43.57686" lon="-0.00207">
        <ele>137</ele>
        <time>2021-02-20T11:06:31Z</time>
      </trkpt>
      <trkpt lat="43.57686" lon="-0.00222">
        <ele>137</ele>
        <time>2021-02-20T11:06:38Z</time>
      </trkpt>
      <trkpt lat="43.57684" lon="-0.0023">
        <ele>138</ele>
        <time>2021-02-20T11:06:43Z</time>
      </trkpt>
      <trkpt lat="43.57683" lon="-0.0024">
        <ele>137</ele>
        <time>2021-02-20T11:06:48Z</time>
      </trkpt>
      <trkpt lat="43.57679" lon="-0.00246">
        <ele>137</ele>
        <time>2021-02-20T11:06:53Z</time>
      </trkpt>
      <trkpt lat="43.57674" lon="-0.00251">
        <ele>137</ele>
        <time>2021-02-20T11:06:58Z</time>
      </trkpt>
      <trkpt lat="43.57672" lon="-0.00258">
        <ele>138</ele>
        <time>2021-02-20T11:07:02Z</time>
      </trkpt>
      <trkpt lat="43.57662" lon="-0.0027">
        <ele>138</ele>
        <time>2021-02-20T11:07:10Z</time>
      </trkpt>
      <trkpt lat="43.5766" lon="-0.00278">
        <ele>138</ele>
        <time>2021-02-20T11:07:12Z</time>
      </trkpt>
      <trkpt lat="43.57645" lon="-0.00284">
        <ele>138</ele>
        <time>2021-02-20T11:07:25Z</time>
      </trkpt>
      <trkpt lat="43.57642" lon="-0.00289">
        <ele>138</ele>
        <time>2021-02-20T11:07:28Z</time>
      </trkpt>
      <trkpt lat="43.57641" lon="-0.00294">
        <ele>138</ele>
        <time>2021-02-20T11:07:30Z</time>
      </trkpt>
      <trkpt lat="43.57638" lon="-0.00297">
        <ele>138</ele>
        <time>2021-02-20T11:07:33Z</time>
      </trkpt>
      <trkpt lat="43.57635" lon="-0.00298">
        <ele>138</ele>
        <time>2021-02-20T11:07:36Z</time>
      </trkpt>
      <trkpt lat="43.57632" lon="-0.00305">
        <ele>138</ele>
        <time>2021-02-20T11:07:41Z</time>
      </trkpt>
      <trkpt lat="43.57628" lon="-0.00306">
        <ele>138</ele>
        <time>2021-02-20T11:07:44Z</time>
      </trkpt>
      <trkpt lat="43.57625" lon="-0.00308">
        <ele>138</ele>
        <time>2021-02-20T11:07:47Z</time>
      </trkpt>
      <trkpt lat="43.57623" lon="-0.00312">
        <ele>138</ele>
        <time>2021-02-20T11:07:50Z</time>
      </trkpt>
      <trkpt lat="43.57618" lon="-0.00312">
        <ele>138</ele>
        <time>2021-02-20T11:07:54Z</time>
      </trkpt>
      <trkpt lat="43.57615" lon="-0.00317">
        <ele>137</ele>
        <time>2021-02-20T11:07:58Z</time>
      </trkpt>
      <trkpt lat="43.57606" lon="-0.00324">
        <ele>137</ele>
        <time>2021-02-20T11:08:06Z</time>
      </trkpt>
      <trkpt lat="43.57597" lon="-0.0033">
        <ele>138</ele>
        <time>2021-02-20T11:08:17Z</time>
      </trkpt>
      <trkpt lat="43.57595" lon="-0.00335">
        <ele>138</ele>
        <time>2021-02-20T11:08:21Z</time>
      </trkpt>
      <trkpt lat="43.57589" lon="-0.00345">
        <ele>138</ele>
        <time>2021-02-20T11:08:35Z</time>
      </trkpt>
      <trkpt lat="43.57593" lon="-0.00369">
        <ele>138</ele>
        <time>2021-02-20T11:08:52Z</time>
      </trkpt>
      <trkpt lat="43.57594" lon="-0.00402">
        <ele>140</ele>
        <time>2021-02-20T11:09:11Z</time>
      </trkpt>
      <trkpt lat="43.57592" lon="-0.00406">
        <ele>140</ele>
        <time>2021-02-20T11:09:14Z</time>
      </trkpt>
      <trkpt lat="43.57586" lon="-0.0041">
        <ele>141</ele>
        <time>2021-02-20T11:09:20Z</time>
      </trkpt>
      <trkpt lat="43.57583" lon="-0.00407">
        <ele>141</ele>
        <time>2021-02-20T11:09:23Z</time>
      </trkpt>
      <trkpt lat="43.57579" lon="-0.00406">
        <ele>141</ele>
        <time>2021-02-20T11:09:26Z</time>
      </trkpt>
      <trkpt lat="43.5757" lon="-0.00402">
        <ele>140</ele>
        <time>2021-02-20T11:09:35Z</time>
      </trkpt>
      <trkpt lat="43.57566" lon="-0.00402">
        <ele>140</ele>
        <time>2021-02-20T11:09:38Z</time>
      </trkpt>
      <trkpt lat="43.57562" lon="-0.00403">
        <ele>140</ele>
        <time>2021-02-20T11:09:42Z</time>
      </trkpt>
      <trkpt lat="43.57548" lon="-0.00412">
        <ele>140</ele>
        <time>2021-02-20T11:09:55Z</time>
      </trkpt>
      <trkpt lat="43.57534" lon="-0.00415">
        <ele>141</ele>
        <time>2021-02-20T11:10:05Z</time>
      </trkpt>
      <trkpt lat="43.57531" lon="-0.00418">
        <ele>140</ele>
        <time>2021-02-20T11:10:09Z</time>
      </trkpt>
      <trkpt lat="43.57524" lon="-0.00416">
        <ele>140</ele>
        <time>2021-02-20T11:10:48Z</time>
      </trkpt>
      <trkpt lat="43.57519" lon="-0.00418">
        <ele>140</ele>
        <time>2021-02-20T11:10:53Z</time>
      </trkpt>
      <trkpt lat="43.57513" lon="-0.00416">
        <ele>140</ele>
        <time>2021-02-20T11:10:57Z</time>
      </trkpt>
      <trkpt lat="43.57493" lon="-0.00395">
        <ele>140</ele>
        <time>2021-02-20T11:11:18Z</time>
      </trkpt>
      <trkpt lat="43.57485" lon="-0.00392">
        <ele>140</ele>
        <time>2021-02-20T11:11:26Z</time>
      </trkpt>
      <trkpt lat="43.5748" lon="-0.00388">
        <ele>140</ele>
        <time>2021-02-20T11:11:29Z</time>
      </trkpt>
      <trkpt lat="43.57467" lon="-0.00388">
        <ele>140</ele>
        <time>2021-02-20T11:11:37Z</time>
      </trkpt>
      <trkpt lat="43.57454" lon="-0.00384">
        <ele>140</ele>
        <time>2021-02-20T11:11:45Z</time>
      </trkpt>
      <trkpt lat="43.5745" lon="-0.00384">
        <ele>140</ele>
        <time>2021-02-20T11:11:49Z</time>
      </trkpt>
      <trkpt lat="43.57446" lon="-0.0038">
        <ele>140</ele>
        <time>2021-02-20T11:11:53Z</time>
      </trkpt>
      <trkpt lat="43.57443" lon="-0.0038">
        <ele>140</ele>
        <time>2021-02-20T11:11:57Z</time>
      </trkpt>
      <trkpt lat="43.57436" lon="-0.00373">
        <ele>140</ele>
        <time>2021-02-20T11:12:04Z</time>
      </trkpt>
      <trkpt lat="43.57421" lon="-0.00366">
        <ele>140</ele>
        <time>2021-02-20T11:12:17Z</time>
      </trkpt>
      <trkpt lat="43.57409" lon="-0.00357">
        <ele>140</ele>
        <time>2021-02-20T11:12:28Z</time>
      </trkpt>
      <trkpt lat="43.57405" lon="-0.00355">
        <ele>140</ele>
        <time>2021-02-20T11:12:31Z</time>
      </trkpt>
      <trkpt lat="43.57403" lon="-0.00351">
        <ele>140</ele>
        <time>2021-02-20T11:12:33Z</time>
      </trkpt>
      <trkpt lat="43.574" lon="-0.00345">
        <ele>140</ele>
        <time>2021-02-20T11:12:43Z</time>
      </trkpt>
      <trkpt lat="43.574" lon="-0.00337">
        <ele>140</ele>
        <time>2021-02-20T11:12:49Z</time>
      </trkpt>
      <trkpt lat="43.57398" lon="-0.00332">
        <ele>140</ele>
        <time>2021-02-20T11:12:52Z</time>
      </trkpt>
      <trkpt lat="43.57396" lon="-0.00316">
        <ele>140</ele>
        <time>2021-02-20T11:13:01Z</time>
      </trkpt>
      <trkpt lat="43.57396" lon="-0.0031">
        <ele>140</ele>
        <time>2021-02-20T11:13:04Z</time>
      </trkpt>
      <trkpt lat="43.57396" lon="-0.00305">
        <ele>139</ele>
        <time>2021-02-20T11:13:08Z</time>
      </trkpt>
      <trkpt lat="43.57393" lon="-0.00297">
        <ele>138</ele>
        <time>2021-02-20T11:13:15Z</time>
      </trkpt>
      <trkpt lat="43.5739" lon="-0.00287">
        <ele>138</ele>
        <time>2021-02-20T11:13:21Z</time>
      </trkpt>
      <trkpt lat="43.57387" lon="-0.00283">
        <ele>138</ele>
        <time>2021-02-20T11:13:25Z</time>
      </trkpt>
      <trkpt lat="43.57384" lon="-0.00279">
        <ele>138</ele>
        <time>2021-02-20T11:13:29Z</time>
      </trkpt>
      <trkpt lat="43.57378" lon="-0.00272">
        <ele>138</ele>
        <time>2021-02-20T11:13:38Z</time>
      </trkpt>
      <trkpt lat="43.57374" lon="-0.00269">
        <ele>138</ele>
        <time>2021-02-20T11:13:42Z</time>
      </trkpt>
      <trkpt lat="43.57358" lon="-0.00254">
        <ele>139</ele>
        <time>2021-02-20T11:13:54Z</time>
      </trkpt>
      <trkpt lat="43.57355" lon="-0.0025">
        <ele>139</ele>
        <time>2021-02-20T11:13:57Z</time>
      </trkpt>
      <trkpt lat="43.57349" lon="-0.00239">
        <ele>140</ele>
        <time>2021-02-20T11:14:04Z</time>
      </trkpt>
      <trkpt lat="43.57342" lon="-0.00235">
        <ele>140</ele>
        <time>2021-02-20T11:14:09Z</time>
      </trkpt>
      <trkpt lat="43.57339" lon="-0.00231">
        <ele>140</ele>
        <time>2021-02-20T11:14:12Z</time>
      </trkpt>
      <trkpt lat="43.57335" lon="-0.00227">
        <ele>140</ele>
        <time>2021-02-20T11:14:16Z</time>
      </trkpt>
      <trkpt lat="43.57332" lon="-0.00224">
        <ele>140</ele>
        <time>2021-02-20T11:14:20Z</time>
      </trkpt>
      <trkpt lat="43.57327" lon="-0.00215">
        <ele>140</ele>
        <time>2021-02-20T11:14:27Z</time>
      </trkpt>
      <trkpt lat="43.57326" lon="-0.0021">
        <ele>139</ele>
        <time>2021-02-20T11:14:31Z</time>
      </trkpt>
      <trkpt lat="43.57321" lon="-0.00208">
        <ele>139</ele>
        <time>2021-02-20T11:14:38Z</time>
      </trkpt>
      <trkpt lat="43.57301" lon="-0.00218">
        <ele>140</ele>
        <time>2021-02-20T11:14:55Z</time>
      </trkpt>
      <trkpt lat="43.573" lon="-0.00223">
        <ele>140</ele>
        <time>2021-02-20T11:14:58Z</time>
      </trkpt>
      <trkpt lat="43.57298" lon="-0.00228">
        <ele>140</ele>
        <time>2021-02-20T11:15:02Z</time>
      </trkpt>
      <trkpt lat="43.5729" lon="-0.0023">
        <ele>140</ele>
        <time>2021-02-20T11:15:08Z</time>
      </trkpt>
      <trkpt lat="43.57285" lon="-0.00228">
        <ele>140</ele>
        <time>2021-02-20T11:15:10Z</time>
      </trkpt>
      <trkpt lat="43.57282" lon="-0.00229">
        <ele>140</ele>
        <time>2021-02-20T11:15:12Z</time>
      </trkpt>
      <trkpt lat="43.57279" lon="-0.00227">
        <ele>140</ele>
        <time>2021-02-20T11:15:15Z</time>
      </trkpt>
      <trkpt lat="43.57275" lon="-0.00226">
        <ele>140</ele>
        <time>2021-02-20T11:15:17Z</time>
      </trkpt>
      <trkpt lat="43.5727" lon="-0.00228">
        <ele>140</ele>
        <time>2021-02-20T11:15:23Z</time>
      </trkpt>
      <trkpt lat="43.57266" lon="-0.0023">
        <ele>140</ele>
        <time>2021-02-20T11:15:26Z</time>
      </trkpt>
      <trkpt lat="43.57262" lon="-0.00232">
        <ele>140</ele>
        <time>2021-02-20T11:15:29Z</time>
      </trkpt>
      <trkpt lat="43.57254" lon="-0.00234">
        <ele>141</ele>
        <time>2021-02-20T11:15:36Z</time>
      </trkpt>
      <trkpt lat="43.57248" lon="-0.00232">
        <ele>140</ele>
        <time>2021-02-20T11:15:42Z</time>
      </trkpt>
      <trkpt lat="43.57245" lon="-0.00229">
        <ele>140</ele>
        <time>2021-02-20T11:15:45Z</time>
      </trkpt>
      <trkpt lat="43.57244" lon="-0.00215">
        <ele>141</ele>
        <time>2021-02-20T11:15:57Z</time>
      </trkpt>
      <trkpt lat="43.57246" lon="-0.00209">
        <ele>140</ele>
        <time>2021-02-20T11:16:03Z</time>
      </trkpt>
      <trkpt lat="43.57248" lon="-0.00192">
        <ele>140</ele>
        <time>2021-02-20T11:16:14Z</time>
      </trkpt>
      <trkpt lat="43.5725" lon="-0.00184">
        <ele>138</ele>
        <time>2021-02-20T11:16:23Z</time>
      </trkpt>
      <trkpt lat="43.5725" lon="-0.00179">
        <ele>138</ele>
        <time>2021-02-20T11:16:26Z</time>
      </trkpt>
      <trkpt lat="43.57249" lon="-0.00172">
        <ele>138</ele>
        <time>2021-02-20T11:16:30Z</time>
      </trkpt>
      <trkpt lat="43.57245" lon="-0.00169">
        <ele>137</ele>
        <time>2021-02-20T11:16:32Z</time>
      </trkpt>
      <trkpt lat="43.57242" lon="-0.00167">
        <ele>137</ele>
        <time>2021-02-20T11:16:35Z</time>
      </trkpt>
      <trkpt lat="43.57238" lon="-0.00168">
        <ele>138</ele>
        <time>2021-02-20T11:16:39Z</time>
      </trkpt>
      <trkpt lat="43.57232" lon="-0.00165">
        <ele>137</ele>
        <time>2021-02-20T11:16:44Z</time>
      </trkpt>
      <trkpt lat="43.57225" lon="-0.00165">
        <ele>136</ele>
        <time>2021-02-20T11:16:49Z</time>
      </trkpt>
      <trkpt lat="43.57219" lon="-0.00164">
        <ele>136</ele>
        <time>2021-02-20T11:16:53Z</time>
      </trkpt>
      <trkpt lat="43.57214" lon="-0.00168">
        <ele>136</ele>
        <time>2021-02-20T11:17:00Z</time>
      </trkpt>
      <trkpt lat="43.57209" lon="-0.00168">
        <ele>137</ele>
        <time>2021-02-20T11:17:05Z</time>
      </trkpt>
      <trkpt lat="43.572" lon="-0.0018">
        <ele>137</ele>
        <time>2021-02-20T11:17:16Z</time>
      </trkpt>
      <trkpt lat="43.57197" lon="-0.00186">
        <ele>137</ele>
        <time>2021-02-20T11:17:19Z</time>
      </trkpt>
      <trkpt lat="43.57182" lon="-0.00201">
        <ele>137</ele>
        <time>2021-02-20T11:17:34Z</time>
      </trkpt>
      <trkpt lat="43.57179" lon="-0.00206">
        <ele>137</ele>
        <time>2021-02-20T11:17:37Z</time>
      </trkpt>
      <trkpt lat="43.57173" lon="-0.00209">
        <ele>137</ele>
        <time>2021-02-20T11:17:43Z</time>
      </trkpt>
      <trkpt lat="43.57169" lon="-0.00214">
        <ele>137</ele>
        <time>2021-02-20T11:17:48Z</time>
      </trkpt>
      <trkpt lat="43.5716" lon="-0.00218">
        <ele>137</ele>
        <time>2021-02-20T11:17:58Z</time>
      </trkpt>
      <trkpt lat="43.57154" lon="-0.00223">
        <ele>137</ele>
        <time>2021-02-20T11:18:11Z</time>
      </trkpt>
      <trkpt lat="43.57143" lon="-0.0023">
        <ele>137</ele>
        <time>2021-02-20T11:18:21Z</time>
      </trkpt>
      <trkpt lat="43.5714" lon="-0.00237">
        <ele>137</ele>
        <time>2021-02-20T11:18:25Z</time>
      </trkpt>
      <trkpt lat="43.57134" lon="-0.00242">
        <ele>137</ele>
        <time>2021-02-20T11:18:30Z</time>
      </trkpt>
      <trkpt lat="43.57127" lon="-0.00252">
        <ele>138</ele>
        <time>2021-02-20T11:18:42Z</time>
      </trkpt>
      <trkpt lat="43.57129" lon="-0.00261">
        <ele>138</ele>
        <time>2021-02-20T11:18:48Z</time>
      </trkpt>
      <trkpt lat="43.57122" lon="-0.00265">
        <ele>138</ele>
        <time>2021-02-20T11:18:54Z</time>
      </trkpt>
      <trkpt lat="43.57111" lon="-0.00284">
        <ele>138</ele>
        <time>2021-02-20T11:19:04Z</time>
      </trkpt>
      <trkpt lat="43.57103" lon="-0.00295">
        <ele>139</ele>
        <time>2021-02-20T11:19:12Z</time>
      </trkpt>
      <trkpt lat="43.57101" lon="-0.00303">
        <ele>140</ele>
        <time>2021-02-20T11:19:20Z</time>
      </trkpt>
      <trkpt lat="43.571" lon="-0.00315">
        <ele>140</ele>
        <time>2021-02-20T11:19:27Z</time>
      </trkpt>
      <trkpt lat="43.57097" lon="-0.00319">
        <ele>140</ele>
        <time>2021-02-20T11:19:31Z</time>
      </trkpt>
      <trkpt lat="43.57086" lon="-0.00329">
        <ele>140</ele>
        <time>2021-02-20T11:19:45Z</time>
      </trkpt>
      <trkpt lat="43.57074" lon="-0.00335">
        <ele>140</ele>
        <time>2021-02-20T11:19:53Z</time>
      </trkpt>
      <trkpt lat="43.57066" lon="-0.00342">
        <ele>140</ele>
        <time>2021-02-20T11:20:00Z</time>
      </trkpt>
      <trkpt lat="43.57063" lon="-0.00343">
        <ele>140</ele>
        <time>2021-02-20T11:20:02Z</time>
      </trkpt>
      <trkpt lat="43.57058" lon="-0.00338">
        <ele>140</ele>
        <time>2021-02-20T11:20:06Z</time>
      </trkpt>
      <trkpt lat="43.57054" lon="-0.00338">
        <ele>140</ele>
        <time>2021-02-20T11:20:10Z</time>
      </trkpt>
      <trkpt lat="43.57049" lon="-0.00339">
        <ele>141</ele>
        <time>2021-02-20T11:20:13Z</time>
      </trkpt>
      <trkpt lat="43.57045" lon="-0.00338">
        <ele>141</ele>
        <time>2021-02-20T11:20:17Z</time>
      </trkpt>
      <trkpt lat="43.5704" lon="-0.00335">
        <ele>141</ele>
        <time>2021-02-20T11:20:23Z</time>
      </trkpt>
      <trkpt lat="43.57027" lon="-0.00331">
        <ele>141</ele>
        <time>2021-02-20T11:20:33Z</time>
      </trkpt>
      <trkpt lat="43.57014" lon="-0.00331">
        <ele>141</ele>
        <time>2021-02-20T11:20:42Z</time>
      </trkpt>
      <trkpt lat="43.57012" lon="-0.00326">
        <ele>141</ele>
        <time>2021-02-20T11:20:46Z</time>
      </trkpt>
      <trkpt lat="43.57008" lon="-0.00321">
        <ele>140</ele>
        <time>2021-02-20T11:20:52Z</time>
      </trkpt>
      <trkpt lat="43.57" lon="-0.00309">
        <ele>140</ele>
        <time>2021-02-20T11:21:03Z</time>
      </trkpt>
      <trkpt lat="43.56998" lon="-0.00304">
        <ele>140</ele>
        <time>2021-02-20T11:21:05Z</time>
      </trkpt>
      <trkpt lat="43.56988" lon="-0.00298">
        <ele>140</ele>
        <time>2021-02-20T11:21:16Z</time>
      </trkpt>
      <trkpt lat="43.56984" lon="-0.00294">
        <ele>140</ele>
        <time>2021-02-20T11:21:19Z</time>
      </trkpt>
      <trkpt lat="43.56977" lon="-0.00304">
        <ele>142</ele>
        <time>2021-02-20T11:21:44Z</time>
      </trkpt>
      <trkpt lat="43.56974" lon="-0.00312">
        <ele>142</ele>
        <time>2021-02-20T11:21:48Z</time>
      </trkpt>
      <trkpt lat="43.56957" lon="-0.00338">
        <ele>142</ele>
        <time>2021-02-20T11:22:05Z</time>
      </trkpt>
      <trkpt lat="43.56953" lon="-0.00341">
        <ele>142</ele>
        <time>2021-02-20T11:22:08Z</time>
      </trkpt>
      <trkpt lat="43.56948" lon="-0.00342">
        <ele>142</ele>
        <time>2021-02-20T11:22:15Z</time>
      </trkpt>
      <trkpt lat="43.56943" lon="-0.00334">
        <ele>143</ele>
        <time>2021-02-20T11:22:22Z</time>
      </trkpt>
      <trkpt lat="43.56932" lon="-0.00327">
        <ele>143</ele>
        <time>2021-02-20T11:22:32Z</time>
      </trkpt>
      <trkpt lat="43.56928" lon="-0.00322">
        <ele>143</ele>
        <time>2021-02-20T11:22:35Z</time>
      </trkpt>
      <trkpt lat="43.56922" lon="-0.00318">
        <ele>143</ele>
        <time>2021-02-20T11:22:43Z</time>
      </trkpt>
      <trkpt lat="43.56919" lon="-0.00314">
        <ele>143</ele>
        <time>2021-02-20T11:22:47Z</time>
      </trkpt>
      <trkpt lat="43.56915" lon="-0.00313">
        <ele>143</ele>
        <time>2021-02-20T11:22:50Z</time>
      </trkpt>
      <trkpt lat="43.56911" lon="-0.0031">
        <ele>143</ele>
        <time>2021-02-20T11:22:53Z</time>
      </trkpt>
      <trkpt lat="43.56905" lon="-0.00301">
        <ele>143</ele>
        <time>2021-02-20T11:22:58Z</time>
      </trkpt>
      <trkpt lat="43.56902" lon="-0.00298">
        <ele>143</ele>
        <time>2021-02-20T11:23:00Z</time>
      </trkpt>
      <trkpt lat="43.5689" lon="-0.00279">
        <ele>143</ele>
        <time>2021-02-20T11:23:16Z</time>
      </trkpt>
      <trkpt lat="43.56874" lon="-0.00267">
        <ele>143</ele>
        <time>2021-02-20T11:23:28Z</time>
      </trkpt>
      <trkpt lat="43.56871" lon="-0.00252">
        <ele>142</ele>
        <time>2021-02-20T11:23:40Z</time>
      </trkpt>
      <trkpt lat="43.56861" lon="-0.00239">
        <ele>142</ele>
        <time>2021-02-20T11:23:51Z</time>
      </trkpt>
      <trkpt lat="43.5686" lon="-0.00234">
        <ele>142</ele>
        <time>2021-02-20T11:23:53Z</time>
      </trkpt>
      <trkpt lat="43.56856" lon="-0.00228">
        <ele>142</ele>
        <time>2021-02-20T11:23:59Z</time>
      </trkpt>
      <trkpt lat="43.56852" lon="-0.00227">
        <ele>142</ele>
        <time>2021-02-20T11:24:02Z</time>
      </trkpt>
      <trkpt lat="43.56845" lon="-0.00218">
        <ele>142</ele>
        <time>2021-02-20T11:24:09Z</time>
      </trkpt>
      <trkpt lat="43.5684" lon="-0.00214">
        <ele>142</ele>
        <time>2021-02-20T11:24:12Z</time>
      </trkpt>
      <trkpt lat="43.56833" lon="-0.00205">
        <ele>142</ele>
        <time>2021-02-20T11:24:26Z</time>
      </trkpt>
      <trkpt lat="43.56832" lon="-0.002">
        <ele>142</ele>
        <time>2021-02-20T11:24:29Z</time>
      </trkpt>
      <trkpt lat="43.56828" lon="-0.0018">
        <ele>143</ele>
        <time>2021-02-20T11:24:43Z</time>
      </trkpt>
      <trkpt lat="43.56825" lon="-0.00173">
        <ele>141</ele>
        <time>2021-02-20T11:25:33Z</time>
      </trkpt>
      <trkpt lat="43.56818" lon="-0.00166">
        <ele>142</ele>
        <time>2021-02-20T11:25:42Z</time>
      </trkpt>
      <trkpt lat="43.56814" lon="-0.0015">
        <ele>142</ele>
        <time>2021-02-20T11:25:49Z</time>
      </trkpt>
      <trkpt lat="43.56811" lon="-0.00145">
        <ele>142</ele>
        <time>2021-02-20T11:25:52Z</time>
      </trkpt>
      <trkpt lat="43.56801" lon="-0.00135">
        <ele>142</ele>
        <time>2021-02-20T11:26:00Z</time>
      </trkpt>
      <trkpt lat="43.56794" lon="-0.00131">
        <ele>142</ele>
        <time>2021-02-20T11:26:06Z</time>
      </trkpt>
      <trkpt lat="43.56773" lon="-0.00112">
        <ele>142</ele>
        <time>2021-02-20T11:26:27Z</time>
      </trkpt>
      <trkpt lat="43.56769" lon="-0.00111">
        <ele>142</ele>
        <time>2021-02-20T11:26:31Z</time>
      </trkpt>
      <trkpt lat="43.56762" lon="-0.00102">
        <ele>142</ele>
        <time>2021-02-20T11:26:42Z</time>
      </trkpt>
      <trkpt lat="43.56758" lon="-0.00097">
        <ele>142</ele>
        <time>2021-02-20T11:26:48Z</time>
      </trkpt>
      <trkpt lat="43.56746" lon="-0.00095">
        <ele>143</ele>
        <time>2021-02-20T11:26:56Z</time>
      </trkpt>
      <trkpt lat="43.56741" lon="-0.00092">
        <ele>142</ele>
        <time>2021-02-20T11:27:00Z</time>
      </trkpt>
      <trkpt lat="43.56736" lon="-0.00092">
        <ele>142</ele>
        <time>2021-02-20T11:27:04Z</time>
      </trkpt>
      <trkpt lat="43.56732" lon="-0.00089">
        <ele>142</ele>
        <time>2021-02-20T11:27:07Z</time>
      </trkpt>
      <trkpt lat="43.56724" lon="-0.00088">
        <ele>142</ele>
        <time>2021-02-20T11:27:16Z</time>
      </trkpt>
      <trkpt lat="43.5672" lon="-0.00085">
        <ele>142</ele>
        <time>2021-02-20T11:27:18Z</time>
      </trkpt>
      <trkpt lat="43.56711" lon="-0.00085">
        <ele>142</ele>
        <time>2021-02-20T11:27:25Z</time>
      </trkpt>
      <trkpt lat="43.56706" lon="-0.00079">
        <ele>142</ele>
        <time>2021-02-20T11:27:30Z</time>
      </trkpt>
      <trkpt lat="43.56695" lon="-0.00074">
        <ele>143</ele>
        <time>2021-02-20T11:27:39Z</time>
      </trkpt>
      <trkpt lat="43.56679" lon="-0.00055">
        <ele>143</ele>
        <time>2021-02-20T11:27:53Z</time>
      </trkpt>
      <trkpt lat="43.56676" lon="-0.00046">
        <ele>143</ele>
        <time>2021-02-20T11:28:01Z</time>
      </trkpt>
      <trkpt lat="43.56661" lon="-0.00028">
        <ele>142</ele>
        <time>2021-02-20T11:28:29Z</time>
      </trkpt>
      <trkpt lat="43.56649" lon="-0.00021">
        <ele>142</ele>
        <time>2021-02-20T11:28:42Z</time>
      </trkpt>
      <trkpt lat="43.56641" lon="-0.00019">
        <ele>142</ele>
        <time>2021-02-20T11:28:47Z</time>
      </trkpt>
      <trkpt lat="43.56627" lon="-0.00023">
        <ele>142</ele>
        <time>2021-02-20T11:28:57Z</time>
      </trkpt>
      <trkpt lat="43.56619" lon="-0.00028">
        <ele>142</ele>
        <time>2021-02-20T11:29:03Z</time>
      </trkpt>
      <trkpt lat="43.56616" lon="-0.00029">
        <ele>142</ele>
        <time>2021-02-20T11:29:05Z</time>
      </trkpt>
      <trkpt lat="43.56612" lon="-0.0003">
        <ele>142</ele>
        <time>2021-02-20T11:29:08Z</time>
      </trkpt>
      <trkpt lat="43.56603" lon="-0.00033">
        <ele>142</ele>
        <time>2021-02-20T11:29:14Z</time>
      </trkpt>
      <trkpt lat="43.56599" lon="-0.00038">
        <ele>142</ele>
        <time>2021-02-20T11:29:17Z</time>
      </trkpt>
      <trkpt lat="43.56592" lon="-0.0004">
        <ele>141</ele>
        <time>2021-02-20T11:29:26Z</time>
      </trkpt>
      <trkpt lat="43.56584" lon="-0.00038">
        <ele>141</ele>
        <time>2021-02-20T11:29:32Z</time>
      </trkpt>
      <trkpt lat="43.56579" lon="-0.00037">
        <ele>141</ele>
        <time>2021-02-20T11:29:35Z</time>
      </trkpt>
      <trkpt lat="43.56571" lon="-0.00041">
        <ele>142</ele>
        <time>2021-02-20T11:29:43Z</time>
      </trkpt>
      <trkpt lat="43.56562" lon="-0.00058">
        <ele>142</ele>
        <time>2021-02-20T11:30:01Z</time>
      </trkpt>
      <trkpt lat="43.56559" lon="-0.00061">
        <ele>141</ele>
        <time>2021-02-20T11:30:04Z</time>
      </trkpt>
      <trkpt lat="43.56558" lon="-0.00067">
        <ele>141</ele>
        <time>2021-02-20T11:30:08Z</time>
      </trkpt>
      <trkpt lat="43.56559" lon="-0.00077">
        <ele>141</ele>
        <time>2021-02-20T11:30:15Z</time>
      </trkpt>
      <trkpt lat="43.56556" lon="-0.00084">
        <ele>141</ele>
        <time>2021-02-20T11:30:18Z</time>
      </trkpt>
      <trkpt lat="43.56558" lon="-0.0009">
        <ele>141</ele>
        <time>2021-02-20T11:30:21Z</time>
      </trkpt>
      <trkpt lat="43.56547" lon="-0.00091">
        <ele>142</ele>
        <time>2021-02-20T11:31:17Z</time>
      </trkpt>
      <trkpt lat="43.56542" lon="-0.00097">
        <ele>142</ele>
        <time>2021-02-20T11:31:22Z</time>
      </trkpt>
      <trkpt lat="43.56537" lon="-0.001">
        <ele>141</ele>
        <time>2021-02-20T11:31:28Z</time>
      </trkpt>
      <trkpt lat="43.56531" lon="-0.00101">
        <ele>141</ele>
        <time>2021-02-20T11:31:36Z</time>
      </trkpt>
      <trkpt lat="43.56527" lon="-0.00107">
        <ele>142</ele>
        <time>2021-02-20T11:31:42Z</time>
      </trkpt>
      <trkpt lat="43.56515" lon="-0.00115">
        <ele>142</ele>
        <time>2021-02-20T11:31:51Z</time>
      </trkpt>
      <trkpt lat="43.5651" lon="-0.00121">
        <ele>142</ele>
        <time>2021-02-20T11:31:55Z</time>
      </trkpt>
      <trkpt lat="43.5649" lon="-0.00124">
        <ele>142</ele>
        <time>2021-02-20T11:32:08Z</time>
      </trkpt>
      <trkpt lat="43.56485" lon="-0.00128">
        <ele>142</ele>
        <time>2021-02-20T11:32:16Z</time>
      </trkpt>
      <trkpt lat="43.56476" lon="-0.00127">
        <ele>141</ele>
        <time>2021-02-20T11:32:24Z</time>
      </trkpt>
      <trkpt lat="43.56467" lon="-0.00123">
        <ele>141</ele>
        <time>2021-02-20T11:32:34Z</time>
      </trkpt>
      <trkpt lat="43.56458" lon="-0.00119">
        <ele>140</ele>
        <time>2021-02-20T11:32:40Z</time>
      </trkpt>
      <trkpt lat="43.56455" lon="-0.00116">
        <ele>140</ele>
        <time>2021-02-20T11:32:42Z</time>
      </trkpt>
      <trkpt lat="43.5645" lon="-0.00117">
        <ele>139</ele>
        <time>2021-02-20T11:32:51Z</time>
      </trkpt>
      <trkpt lat="43.56444" lon="-0.00112">
        <ele>140</ele>
        <time>2021-02-20T11:33:06Z</time>
      </trkpt>
      <trkpt lat="43.56425" lon="-0.00104">
        <ele>141</ele>
        <time>2021-02-20T11:33:24Z</time>
      </trkpt>
      <trkpt lat="43.56419" lon="-0.00105">
        <ele>140</ele>
        <time>2021-02-20T11:33:30Z</time>
      </trkpt>
      <trkpt lat="43.56405" lon="-0.00116">
        <ele>140</ele>
        <time>2021-02-20T11:33:45Z</time>
      </trkpt>
      <trkpt lat="43.56395" lon="-0.00129">
        <ele>140</ele>
        <time>2021-02-20T11:33:54Z</time>
      </trkpt>
      <trkpt lat="43.5639" lon="-0.00133">
        <ele>140</ele>
        <time>2021-02-20T11:33:58Z</time>
      </trkpt>
      <trkpt lat="43.56389" lon="-0.00141">
        <ele>140</ele>
        <time>2021-02-20T11:34:01Z</time>
      </trkpt>
      <trkpt lat="43.56385" lon="-0.00146">
        <ele>140</ele>
        <time>2021-02-20T11:34:06Z</time>
      </trkpt>
      <trkpt lat="43.5638" lon="-0.00151">
        <ele>140</ele>
        <time>2021-02-20T11:34:10Z</time>
      </trkpt>
      <trkpt lat="43.56369" lon="-0.00155">
        <ele>140</ele>
        <time>2021-02-20T11:34:19Z</time>
      </trkpt>
      <trkpt lat="43.56363" lon="-0.00151">
        <ele>140</ele>
        <time>2021-02-20T11:34:24Z</time>
      </trkpt>
      <trkpt lat="43.56357" lon="-0.00155">
        <ele>140</ele>
        <time>2021-02-20T11:34:28Z</time>
      </trkpt>
      <trkpt lat="43.56352" lon="-0.00157">
        <ele>140</ele>
        <time>2021-02-20T11:34:31Z</time>
      </trkpt>
      <trkpt lat="43.56346" lon="-0.00152">
        <ele>140</ele>
        <time>2021-02-20T11:34:36Z</time>
      </trkpt>
      <trkpt lat="43.5634" lon="-0.00156">
        <ele>140</ele>
        <time>2021-02-20T11:34:39Z</time>
      </trkpt>
      <trkpt lat="43.5633" lon="-0.00163">
        <ele>140</ele>
        <time>2021-02-20T11:34:49Z</time>
      </trkpt>
      <trkpt lat="43.56325" lon="-0.00162">
        <ele>140</ele>
        <time>2021-02-20T11:34:52Z</time>
      </trkpt>
      <trkpt lat="43.56316" lon="-0.00155">
        <ele>141</ele>
        <time>2021-02-20T11:34:58Z</time>
      </trkpt>
      <trkpt lat="43.56298" lon="-0.00149">
        <ele>141</ele>
        <time>2021-02-20T11:35:08Z</time>
      </trkpt>
      <trkpt lat="43.56294" lon="-0.00148">
        <ele>140</ele>
        <time>2021-02-20T11:35:11Z</time>
      </trkpt>
      <trkpt lat="43.56282" lon="-0.00142">
        <ele>140</ele>
        <time>2021-02-20T11:35:21Z</time>
      </trkpt>
      <trkpt lat="43.56273" lon="-0.00146">
        <ele>141</ele>
        <time>2021-02-20T11:35:30Z</time>
      </trkpt>
      <trkpt lat="43.56266" lon="-0.00142">
        <ele>141</ele>
        <time>2021-02-20T11:35:37Z</time>
      </trkpt>
      <trkpt lat="43.5626" lon="-0.00141">
        <ele>141</ele>
        <time>2021-02-20T11:35:47Z</time>
      </trkpt>
      <trkpt lat="43.56256" lon="-0.00143">
        <ele>141</ele>
        <time>2021-02-20T11:35:50Z</time>
      </trkpt>
      <trkpt lat="43.56252" lon="-0.00144">
        <ele>141</ele>
        <time>2021-02-20T11:35:54Z</time>
      </trkpt>
      <trkpt lat="43.56243" lon="-0.00142">
        <ele>142</ele>
        <time>2021-02-20T11:36:02Z</time>
      </trkpt>
      <trkpt lat="43.56234" lon="-0.00144">
        <ele>143</ele>
        <time>2021-02-20T11:36:10Z</time>
      </trkpt>
      <trkpt lat="43.56229" lon="-0.00143">
        <ele>144</ele>
        <time>2021-02-20T11:36:17Z</time>
      </trkpt>
      <trkpt lat="43.56225" lon="-0.00142">
        <ele>144</ele>
        <time>2021-02-20T11:36:22Z</time>
      </trkpt>
      <trkpt lat="43.56221" lon="-0.00143">
        <ele>143</ele>
        <time>2021-02-20T11:36:26Z</time>
      </trkpt>
      <trkpt lat="43.56216" lon="-0.00137">
        <ele>142</ele>
        <time>2021-02-20T11:36:34Z</time>
      </trkpt>
      <trkpt lat="43.56212" lon="-0.00134">
        <ele>142</ele>
        <time>2021-02-20T11:36:38Z</time>
      </trkpt>
      <trkpt lat="43.56207" lon="-0.00133">
        <ele>142</ele>
        <time>2021-02-20T11:36:42Z</time>
      </trkpt>
      <trkpt lat="43.562" lon="-0.00126">
        <ele>142</ele>
        <time>2021-02-20T11:36:50Z</time>
      </trkpt>
      <trkpt lat="43.56195" lon="-0.00127">
        <ele>142</ele>
        <time>2021-02-20T11:36:53Z</time>
      </trkpt>
      <trkpt lat="43.56191" lon="-0.00122">
        <ele>142</ele>
        <time>2021-02-20T11:36:56Z</time>
      </trkpt>
      <trkpt lat="43.56183" lon="-0.00111">
        <ele>142</ele>
        <time>2021-02-20T11:37:03Z</time>
      </trkpt>
      <trkpt lat="43.56172" lon="-0.00105">
        <ele>143</ele>
        <time>2021-02-20T11:37:13Z</time>
      </trkpt>
      <trkpt lat="43.56171" lon="-0.00099">
        <ele>143</ele>
        <time>2021-02-20T11:37:17Z</time>
      </trkpt>
      <trkpt lat="43.56149" lon="-0.00089">
        <ele>144</ele>
        <time>2021-02-20T11:37:35Z</time>
      </trkpt>
      <trkpt lat="43.56146" lon="-0.00086">
        <ele>144</ele>
        <time>2021-02-20T11:37:39Z</time>
      </trkpt>
      <trkpt lat="43.56122" lon="-0.00079">
        <ele>144</ele>
        <time>2021-02-20T11:37:57Z</time>
      </trkpt>
      <trkpt lat="43.56116" lon="-0.00076">
        <ele>144</ele>
        <time>2021-02-20T11:38:04Z</time>
      </trkpt>
      <trkpt lat="43.56111" lon="-0.00077">
        <ele>144</ele>
        <time>2021-02-20T11:38:08Z</time>
      </trkpt>
      <trkpt lat="43.56108" lon="-0.00076">
        <ele>144</ele>
        <time>2021-02-20T11:38:12Z</time>
      </trkpt>
      <trkpt lat="43.56099" lon="-0.00078">
        <ele>143</ele>
        <time>2021-02-20T11:38:20Z</time>
      </trkpt>
      <trkpt lat="43.56089" lon="-0.00082">
        <ele>143</ele>
        <time>2021-02-20T11:38:27Z</time>
      </trkpt>
      <trkpt lat="43.56083" lon="-0.00085">
        <ele>144</ele>
        <time>2021-02-20T11:38:32Z</time>
      </trkpt>
      <trkpt lat="43.56081" lon="-0.00091">
        <ele>144</ele>
        <time>2021-02-20T11:38:37Z</time>
      </trkpt>
      <trkpt lat="43.56077" lon="-0.00093">
        <ele>145</ele>
        <time>2021-02-20T11:38:40Z</time>
      </trkpt>
      <trkpt lat="43.56076" lon="-0.00098">
        <ele>145</ele>
        <time>2021-02-20T11:38:43Z</time>
      </trkpt>
      <trkpt lat="43.56071" lon="-0.00108">
        <ele>146</ele>
        <time>2021-02-20T11:38:51Z</time>
      </trkpt>
      <trkpt lat="43.56067" lon="-0.00113">
        <ele>146</ele>
        <time>2021-02-20T11:38:57Z</time>
      </trkpt>
      <trkpt lat="43.56043" lon="-0.00117">
        <ele>147</ele>
        <time>2021-02-20T11:39:12Z</time>
      </trkpt>
      <trkpt lat="43.5604" lon="-0.00114">
        <ele>147</ele>
        <time>2021-02-20T11:39:16Z</time>
      </trkpt>
      <trkpt lat="43.56028" lon="-0.00109">
        <ele>147</ele>
        <time>2021-02-20T11:39:26Z</time>
      </trkpt>
      <trkpt lat="43.56025" lon="-0.00113">
        <ele>147</ele>
        <time>2021-02-20T11:39:29Z</time>
      </trkpt>
      <trkpt lat="43.56018" lon="-0.00108">
        <ele>147</ele>
        <time>2021-02-20T11:40:11Z</time>
      </trkpt>
      <trkpt lat="43.56004" lon="-0.00102">
        <ele>147</ele>
        <time>2021-02-20T11:40:22Z</time>
      </trkpt>
      <trkpt lat="43.55973" lon="-0.00096">
        <ele>146</ele>
        <time>2021-02-20T11:40:42Z</time>
      </trkpt>
      <trkpt lat="43.5597" lon="-0.00097">
        <ele>146</ele>
        <time>2021-02-20T11:40:45Z</time>
      </trkpt>
      <trkpt lat="43.55967" lon="-0.00101">
        <ele>146</ele>
        <time>2021-02-20T11:40:48Z</time>
      </trkpt>
      <trkpt lat="43.55961" lon="-0.00104">
        <ele>146</ele>
        <time>2021-02-20T11:40:54Z</time>
      </trkpt>
      <trkpt lat="43.55956" lon="-0.00106">
        <ele>146</ele>
        <time>2021-02-20T11:41:00Z</time>
      </trkpt>
      <trkpt lat="43.55952" lon="-0.00106">
        <ele>146</ele>
        <time>2021-02-20T11:41:03Z</time>
      </trkpt>
      <trkpt lat="43.55949" lon="-0.00109">
        <ele>146</ele>
        <time>2021-02-20T11:41:06Z</time>
      </trkpt>
      <trkpt lat="43.55941" lon="-0.00108">
        <ele>146</ele>
        <time>2021-02-20T11:41:13Z</time>
      </trkpt>
      <trkpt lat="43.55932" lon="-0.00113">
        <ele>146</ele>
        <time>2021-02-20T11:41:19Z</time>
      </trkpt>
      <trkpt lat="43.55919" lon="-0.00115">
        <ele>146</ele>
        <time>2021-02-20T11:41:30Z</time>
      </trkpt>
      <trkpt lat="43.55915" lon="-0.00118">
        <ele>146</ele>
        <time>2021-02-20T11:41:34Z</time>
      </trkpt>
      <trkpt lat="43.55903" lon="-0.00117">
        <ele>146</ele>
        <time>2021-02-20T11:41:43Z</time>
      </trkpt>
      <trkpt lat="43.55895" lon="-0.0012">
        <ele>146</ele>
        <time>2021-02-20T11:41:49Z</time>
      </trkpt>
      <trkpt lat="43.5586" lon="-0.00125">
        <ele>146</ele>
        <time>2021-02-20T11:42:19Z</time>
      </trkpt>
      <trkpt lat="43.55842" lon="-0.00129">
        <ele>146</ele>
        <time>2021-02-20T11:42:37Z</time>
      </trkpt>
      <trkpt lat="43.55839" lon="-0.00132">
        <ele>146</ele>
        <time>2021-02-20T11:42:40Z</time>
      </trkpt>
      <trkpt lat="43.55822" lon="-0.00136">
        <ele>146</ele>
        <time>2021-02-20T11:42:54Z</time>
      </trkpt>
      <trkpt lat="43.55817" lon="-0.00136">
        <ele>146</ele>
        <time>2021-02-20T11:42:57Z</time>
      </trkpt>
      <trkpt lat="43.55813" lon="-0.00139">
        <ele>146</ele>
        <time>2021-02-20T11:43:01Z</time>
      </trkpt>
      <trkpt lat="43.55805" lon="-0.00137">
        <ele>146</ele>
        <time>2021-02-20T11:43:07Z</time>
      </trkpt>
      <trkpt lat="43.55784" lon="-0.0014">
        <ele>146</ele>
        <time>2021-02-20T11:43:23Z</time>
      </trkpt>
      <trkpt lat="43.55781" lon="-0.00142">
        <ele>146</ele>
        <time>2021-02-20T11:43:26Z</time>
      </trkpt>
      <trkpt lat="43.55774" lon="-0.00144">
        <ele>146</ele>
        <time>2021-02-20T11:43:33Z</time>
      </trkpt>
      <trkpt lat="43.5577" lon="-0.00143">
        <ele>146</ele>
        <time>2021-02-20T11:43:36Z</time>
      </trkpt>
      <trkpt lat="43.55757" lon="-0.00148">
        <ele>146</ele>
        <time>2021-02-20T11:43:46Z</time>
      </trkpt>
      <trkpt lat="43.55753" lon="-0.00148">
        <ele>146</ele>
        <time>2021-02-20T11:43:49Z</time>
      </trkpt>
      <trkpt lat="43.55746" lon="-0.00152">
        <ele>146</ele>
        <time>2021-02-20T11:43:59Z</time>
      </trkpt>
      <trkpt lat="43.55743" lon="-0.00154">
        <ele>147</ele>
        <time>2021-02-20T11:44:24Z</time>
      </trkpt>
      <trkpt lat="43.55739" lon="-0.00156">
        <ele>147</ele>
        <time>2021-02-20T11:44:28Z</time>
      </trkpt>
      <trkpt lat="43.55735" lon="-0.00157">
        <ele>147</ele>
        <time>2021-02-20T11:44:31Z</time>
      </trkpt>
      <trkpt lat="43.55713" lon="-0.00164">
        <ele>147</ele>
        <time>2021-02-20T11:44:49Z</time>
      </trkpt>
      <trkpt lat="43.5568" lon="-0.00164">
        <ele>147</ele>
        <time>2021-02-20T11:45:14Z</time>
      </trkpt>
      <trkpt lat="43.55668" lon="-0.00167">
        <ele>147</ele>
        <time>2021-02-20T11:45:24Z</time>
      </trkpt>
      <trkpt lat="43.55659" lon="-0.00168">
        <ele>147</ele>
        <time>2021-02-20T11:45:32Z</time>
      </trkpt>
      <trkpt lat="43.55641" lon="-0.00171">
        <ele>147</ele>
        <time>2021-02-20T11:45:45Z</time>
      </trkpt>
      <trkpt lat="43.55614" lon="-0.00169">
        <ele>147</ele>
        <time>2021-02-20T11:46:08Z</time>
      </trkpt>
      <trkpt lat="43.5561" lon="-0.00166">
        <ele>147</ele>
        <time>2021-02-20T11:46:12Z</time>
      </trkpt>
      <trkpt lat="43.55606" lon="-0.00166">
        <ele>147</ele>
        <time>2021-02-20T11:46:16Z</time>
      </trkpt>
      <trkpt lat="43.55602" lon="-0.00163">
        <ele>147</ele>
        <time>2021-02-20T11:46:20Z</time>
      </trkpt>
      <trkpt lat="43.55595" lon="-0.0016">
        <ele>147</ele>
        <time>2021-02-20T11:46:26Z</time>
      </trkpt>
      <trkpt lat="43.55591" lon="-0.00156">
        <ele>147</ele>
        <time>2021-02-20T11:46:30Z</time>
      </trkpt>
      <trkpt lat="43.55587" lon="-0.00154">
        <ele>147</ele>
        <time>2021-02-20T11:46:33Z</time>
      </trkpt>
      <trkpt lat="43.55584" lon="-0.0015">
        <ele>147</ele>
        <time>2021-02-20T11:46:36Z</time>
      </trkpt>
      <trkpt lat="43.5558" lon="-0.00148">
        <ele>147</ele>
        <time>2021-02-20T11:46:39Z</time>
      </trkpt>
      <trkpt lat="43.55577" lon="-0.00144">
        <ele>147</ele>
        <time>2021-02-20T11:46:43Z</time>
      </trkpt>
      <trkpt lat="43.55569" lon="-0.00137">
        <ele>147</ele>
        <time>2021-02-20T11:46:50Z</time>
      </trkpt>
      <trkpt lat="43.55565" lon="-0.00133">
        <ele>147</ele>
        <time>2021-02-20T11:46:54Z</time>
      </trkpt>
      <trkpt lat="43.55562" lon="-0.00129">
        <ele>147</ele>
        <time>2021-02-20T11:46:57Z</time>
      </trkpt>
      <trkpt lat="43.55559" lon="-0.00125">
        <ele>147</ele>
        <time>2021-02-20T11:47:00Z</time>
      </trkpt>
      <trkpt lat="43.55556" lon="-0.00121">
        <ele>147</ele>
        <time>2021-02-20T11:47:04Z</time>
      </trkpt>
      <trkpt lat="43.55552" lon="-0.00118">
        <ele>147</ele>
        <time>2021-02-20T11:47:08Z</time>
      </trkpt>
      <trkpt lat="43.55548" lon="-0.00111">
        <ele>147</ele>
        <time>2021-02-20T11:47:14Z</time>
      </trkpt>
      <trkpt lat="43.55533" lon="-0.001">
        <ele>147</ele>
        <time>2021-02-20T11:47:29Z</time>
      </trkpt>
      <trkpt lat="43.55529" lon="-0.00098">
        <ele>147</ele>
        <time>2021-02-20T11:47:32Z</time>
      </trkpt>
      <trkpt lat="43.55521" lon="-0.00097">
        <ele>147</ele>
        <time>2021-02-20T11:47:39Z</time>
      </trkpt>
      <trkpt lat="43.55512" lon="-0.00084">
        <ele>147</ele>
        <time>2021-02-20T11:47:50Z</time>
      </trkpt>
      <trkpt lat="43.55503" lon="-0.00077">
        <ele>147</ele>
        <time>2021-02-20T11:47:57Z</time>
      </trkpt>
      <trkpt lat="43.55499" lon="-0.00077">
        <ele>147</ele>
        <time>2021-02-20T11:48:00Z</time>
      </trkpt>
      <trkpt lat="43.55465" lon="-0.00049">
        <ele>147</ele>
        <time>2021-02-20T11:48:32Z</time>
      </trkpt>
      <trkpt lat="43.55458" lon="-0.00044">
        <ele>148</ele>
        <time>2021-02-20T11:48:39Z</time>
      </trkpt>
      <trkpt lat="43.55455" lon="-0.0004">
        <ele>148</ele>
        <time>2021-02-20T11:48:42Z</time>
      </trkpt>
      <trkpt lat="43.55452" lon="-0.00036">
        <ele>147</ele>
        <time>2021-02-20T11:48:45Z</time>
      </trkpt>
      <trkpt lat="43.55451" lon="-0.00029">
        <ele>147</ele>
        <time>2021-02-20T11:48:50Z</time>
      </trkpt>
      <trkpt lat="43.55448" lon="-0.00027">
        <ele>148</ele>
        <time>2021-02-20T11:49:17Z</time>
      </trkpt>
      <trkpt lat="43.55444" lon="-0.00025">
        <ele>148</ele>
        <time>2021-02-20T11:49:22Z</time>
      </trkpt>
      <trkpt lat="43.55437" lon="-0.00023">
        <ele>148</ele>
        <time>2021-02-20T11:49:28Z</time>
      </trkpt>
      <trkpt lat="43.55432" lon="-0.00026">
        <ele>148</ele>
        <time>2021-02-20T11:49:32Z</time>
      </trkpt>
      <trkpt lat="43.55406" lon="-0.00026">
        <ele>148</ele>
        <time>2021-02-20T11:49:54Z</time>
      </trkpt>
      <trkpt lat="43.55381" lon="-0.00038">
        <ele>148</ele>
        <time>2021-02-20T11:50:14Z</time>
      </trkpt>
      <trkpt lat="43.55377" lon="-0.00038">
        <ele>148</ele>
        <time>2021-02-20T11:50:17Z</time>
      </trkpt>
      <trkpt lat="43.55373" lon="-0.00039">
        <ele>148</ele>
        <time>2021-02-20T11:50:20Z</time>
      </trkpt>
      <trkpt lat="43.5537" lon="-0.00041">
        <ele>148</ele>
        <time>2021-02-20T11:50:23Z</time>
      </trkpt>
      <trkpt lat="43.55361" lon="-0.00041">
        <ele>148</ele>
        <time>2021-02-20T11:50:31Z</time>
      </trkpt>
      <trkpt lat="43.55344" lon="-0.00035">
        <ele>148</ele>
        <time>2021-02-20T11:50:44Z</time>
      </trkpt>
      <trkpt lat="43.5534" lon="-0.00035">
        <ele>148</ele>
        <time>2021-02-20T11:50:48Z</time>
      </trkpt>
      <trkpt lat="43.55339" lon="-0.00029">
        <ele>148</ele>
        <time>2021-02-20T11:50:59Z</time>
      </trkpt>
      <trkpt lat="43.55338" lon="-0.00012">
        <ele>148</ele>
        <time>2021-02-20T11:51:08Z</time>
      </trkpt>
      <trkpt lat="43.55334" lon="4.0E-5">
        <ele>148</ele>
        <time>2021-02-20T11:51:17Z</time>
      </trkpt>
      <trkpt lat="43.5533" lon="6.0E-5">
        <ele>148</ele>
        <time>2021-02-20T11:51:20Z</time>
      </trkpt>
      <trkpt lat="43.55328" lon="0.00011">
        <ele>148</ele>
        <time>2021-02-20T11:51:23Z</time>
      </trkpt>
      <trkpt lat="43.55324" lon="0.00015">
        <ele>148</ele>
        <time>2021-02-20T11:51:27Z</time>
      </trkpt>
      <trkpt lat="43.55311" lon="0.0002">
        <ele>148</ele>
        <time>2021-02-20T11:51:38Z</time>
      </trkpt>
      <trkpt lat="43.55307" lon="0.00026">
        <ele>148</ele>
        <time>2021-02-20T11:51:42Z</time>
      </trkpt>
      <trkpt lat="43.55292" lon="0.00037">
        <ele>148</ele>
        <time>2021-02-20T11:51:56Z</time>
      </trkpt>
      <trkpt lat="43.55288" lon="0.00039">
        <ele>148</ele>
        <time>2021-02-20T11:52:00Z</time>
      </trkpt>
      <trkpt lat="43.55281" lon="0.00047">
        <ele>148</ele>
        <time>2021-02-20T11:52:06Z</time>
      </trkpt>
      <trkpt lat="43.55273" lon="0.00052">
        <ele>148</ele>
        <time>2021-02-20T11:52:15Z</time>
      </trkpt>
      <trkpt lat="43.55252" lon="0.00057">
        <ele>148</ele>
        <time>2021-02-20T11:52:33Z</time>
      </trkpt>
      <trkpt lat="43.55249" lon="0.00063">
        <ele>148</ele>
        <time>2021-02-20T11:52:36Z</time>
      </trkpt>
      <trkpt lat="43.55248" lon="0.00067">
        <ele>148</ele>
        <time>2021-02-20T11:52:38Z</time>
      </trkpt>
      <trkpt lat="43.55249" lon="0.0008">
        <ele>148</ele>
        <time>2021-02-20T11:52:46Z</time>
      </trkpt>
      <trkpt lat="43.55249" lon="0.00085">
        <ele>148</ele>
        <time>2021-02-20T11:52:50Z</time>
      </trkpt>
      <trkpt lat="43.55251" lon="0.00091">
        <ele>148</ele>
        <time>2021-02-20T11:52:53Z</time>
      </trkpt>
      <trkpt lat="43.55253" lon="0.00108">
        <ele>148</ele>
        <time>2021-02-20T11:53:02Z</time>
      </trkpt>
      <trkpt lat="43.55256" lon="0.00117">
        <ele>148</ele>
        <time>2021-02-20T11:53:08Z</time>
      </trkpt>
      <trkpt lat="43.55259" lon="0.00137">
        <ele>148</ele>
        <time>2021-02-20T11:53:19Z</time>
      </trkpt>
      <trkpt lat="43.55259" lon="0.0016">
        <ele>148</ele>
        <time>2021-02-20T11:53:33Z</time>
      </trkpt>
      <trkpt lat="43.55264" lon="0.00181">
        <ele>147</ele>
        <time>2021-02-20T11:53:46Z</time>
      </trkpt>
      <trkpt lat="43.55268" lon="0.00207">
        <ele>148</ele>
        <time>2021-02-20T11:54:01Z</time>
      </trkpt>
      <trkpt lat="43.55277" lon="0.00261">
        <ele>148</ele>
        <time>2021-02-20T11:54:33Z</time>
      </trkpt>
      <trkpt lat="43.55281" lon="0.00277">
        <ele>148</ele>
        <time>2021-02-20T11:54:42Z</time>
      </trkpt>
      <trkpt lat="43.55283" lon="0.00289">
        <ele>148</ele>
        <time>2021-02-20T11:54:50Z</time>
      </trkpt>
      <trkpt lat="43.55295" lon="0.00322">
        <ele>148</ele>
        <time>2021-02-20T11:55:11Z</time>
      </trkpt>
      <trkpt lat="43.553" lon="0.00324">
        <ele>148</ele>
        <time>2021-02-20T11:55:15Z</time>
      </trkpt>
      <trkpt lat="43.5531" lon="0.00325">
        <ele>147</ele>
        <time>2021-02-20T11:56:00Z</time>
      </trkpt>
      <trkpt lat="43.5532" lon="0.00325">
        <ele>147</ele>
        <time>2021-02-20T12:10:48Z</time>
      </trkpt>
    </trkseg>
  </trk>
</gpx>